<?xml version="1.0" encoding="UTF-8" standalone="no" ?>
<gpx xmlns="http://www.topografix.com/GPX/1/1" xmlns:xsi="http://www.w3.org/2001/XMLSchema-instance" xsi:schemaLocation="http://www.topografix.com/GPX/1/1 http://www.topografix.com/GPX/1/1/gpx.xsd" version="1.1" creator="VisuGPX - https://www.visugpx.com">
  <metadata>
    <name>mrt chambon-dol</name>
    <desc><![CDATA[depart office du tourisme,perception,croisement D993 D41a a guauche,longeville,moulin des cotes,chambon]]></desc>
  </metadata>
  <trk>
    <name><![CDATA[mrt chambon-dol_1]]></name>
    <trkseg>
      <trkpt lat="46.18927" lon="2.42524">
        <ele>337</ele>
        <time>2016-04-07T13:52:54Z</time>
      </trkpt>
      <trkpt lat="46.18943" lon="2.42557">
        <ele>338</ele>
        <time>2016-04-07T13:53:14Z</time>
      </trkpt>
      <trkpt lat="46.18943" lon="2.42562">
        <ele>337</ele>
        <time>2016-04-07T13:53:17Z</time>
      </trkpt>
      <trkpt lat="46.18943" lon="2.42567">
        <ele>337</ele>
        <time>2016-04-07T13:53:20Z</time>
      </trkpt>
      <trkpt lat="46.18942" lon="2.42572">
        <ele>337</ele>
        <time>2016-04-07T13:53:23Z</time>
      </trkpt>
      <trkpt lat="46.18941" lon="2.42578">
        <ele>337</ele>
        <time>2016-04-07T13:53:26Z</time>
      </trkpt>
      <trkpt lat="46.18945" lon="2.42581">
        <ele>337</ele>
        <time>2016-04-07T13:53:29Z</time>
      </trkpt>
      <trkpt lat="46.18945" lon="2.42588">
        <ele>337</ele>
        <time>2016-04-07T13:53:33Z</time>
      </trkpt>
      <trkpt lat="46.18944" lon="2.42596">
        <ele>337</ele>
        <time>2016-04-07T13:53:36Z</time>
      </trkpt>
      <trkpt lat="46.18946" lon="2.42602">
        <ele>340</ele>
        <time>2016-04-07T13:53:40Z</time>
      </trkpt>
      <trkpt lat="46.18947" lon="2.42607">
        <ele>342</ele>
        <time>2016-04-07T13:53:43Z</time>
      </trkpt>
      <trkpt lat="46.18947" lon="2.42613">
        <ele>342</ele>
        <time>2016-04-07T13:53:46Z</time>
      </trkpt>
      <trkpt lat="46.18946" lon="2.42619">
        <ele>342</ele>
        <time>2016-04-07T13:53:49Z</time>
      </trkpt>
      <trkpt lat="46.18945" lon="2.42626">
        <ele>344</ele>
        <time>2016-04-07T13:53:52Z</time>
      </trkpt>
      <trkpt lat="46.18941" lon="2.42632">
        <ele>344</ele>
        <time>2016-04-07T13:53:55Z</time>
      </trkpt>
      <trkpt lat="46.1894" lon="2.42638">
        <ele>344</ele>
        <time>2016-04-07T13:53:58Z</time>
      </trkpt>
      <trkpt lat="46.18939" lon="2.42643">
        <ele>344</ele>
        <time>2016-04-07T13:54:01Z</time>
      </trkpt>
      <trkpt lat="46.18939" lon="2.42648">
        <ele>344</ele>
        <time>2016-04-07T13:54:04Z</time>
      </trkpt>
      <trkpt lat="46.18939" lon="2.42653">
        <ele>344</ele>
        <time>2016-04-07T13:54:07Z</time>
      </trkpt>
      <trkpt lat="46.18934" lon="2.42658">
        <ele>343</ele>
        <time>2016-04-07T13:54:10Z</time>
      </trkpt>
      <trkpt lat="46.1893" lon="2.42663">
        <ele>342</ele>
        <time>2016-04-07T13:54:13Z</time>
      </trkpt>
      <trkpt lat="46.18927" lon="2.42666">
        <ele>341</ele>
        <time>2016-04-07T13:54:16Z</time>
      </trkpt>
      <trkpt lat="46.18923" lon="2.4267">
        <ele>341</ele>
        <time>2016-04-07T13:54:19Z</time>
      </trkpt>
      <trkpt lat="46.18919" lon="2.42677">
        <ele>341</ele>
        <time>2016-04-07T13:54:22Z</time>
      </trkpt>
      <trkpt lat="46.18915" lon="2.4268">
        <ele>341</ele>
        <time>2016-04-07T13:54:26Z</time>
      </trkpt>
      <trkpt lat="46.18913" lon="2.42681">
        <ele>340</ele>
        <time>2016-04-07T13:54:29Z</time>
      </trkpt>
      <trkpt lat="46.18909" lon="2.42684">
        <ele>336</ele>
        <time>2016-04-07T13:54:33Z</time>
      </trkpt>
      <trkpt lat="46.18906" lon="2.42689">
        <ele>335</ele>
        <time>2016-04-07T13:54:36Z</time>
      </trkpt>
      <trkpt lat="46.18903" lon="2.42694">
        <ele>334</ele>
        <time>2016-04-07T13:54:40Z</time>
      </trkpt>
      <trkpt lat="46.18901" lon="2.42694">
        <ele>334</ele>
        <time>2016-04-07T13:54:43Z</time>
      </trkpt>
      <trkpt lat="46.189" lon="2.42698">
        <ele>334</ele>
        <time>2016-04-07T13:54:48Z</time>
      </trkpt>
      <trkpt lat="46.18898" lon="2.42702">
        <ele>334</ele>
        <time>2016-04-07T13:54:51Z</time>
      </trkpt>
      <trkpt lat="46.18895" lon="2.42707">
        <ele>334</ele>
        <time>2016-04-07T13:54:54Z</time>
      </trkpt>
      <trkpt lat="46.18894" lon="2.42713">
        <ele>334</ele>
        <time>2016-04-07T13:54:57Z</time>
      </trkpt>
      <trkpt lat="46.18894" lon="2.42719">
        <ele>334</ele>
        <time>2016-04-07T13:55:00Z</time>
      </trkpt>
      <trkpt lat="46.18894" lon="2.42724">
        <ele>333</ele>
        <time>2016-04-07T13:55:03Z</time>
      </trkpt>
      <trkpt lat="46.18894" lon="2.4273">
        <ele>332</ele>
        <time>2016-04-07T13:55:06Z</time>
      </trkpt>
      <trkpt lat="46.18895" lon="2.42736">
        <ele>332</ele>
        <time>2016-04-07T13:55:09Z</time>
      </trkpt>
      <trkpt lat="46.18896" lon="2.42742">
        <ele>331</ele>
        <time>2016-04-07T13:55:12Z</time>
      </trkpt>
      <trkpt lat="46.18896" lon="2.42748">
        <ele>331</ele>
        <time>2016-04-07T13:55:15Z</time>
      </trkpt>
      <trkpt lat="46.18897" lon="2.42754">
        <ele>331</ele>
        <time>2016-04-07T13:55:18Z</time>
      </trkpt>
      <trkpt lat="46.18898" lon="2.4276">
        <ele>331</ele>
        <time>2016-04-07T13:55:21Z</time>
      </trkpt>
      <trkpt lat="46.18899" lon="2.42766">
        <ele>331</ele>
        <time>2016-04-07T13:55:24Z</time>
      </trkpt>
      <trkpt lat="46.189" lon="2.42772">
        <ele>331</ele>
        <time>2016-04-07T13:55:27Z</time>
      </trkpt>
      <trkpt lat="46.18901" lon="2.42778">
        <ele>331</ele>
        <time>2016-04-07T13:55:30Z</time>
      </trkpt>
      <trkpt lat="46.18902" lon="2.42784">
        <ele>331</ele>
        <time>2016-04-07T13:55:33Z</time>
      </trkpt>
      <trkpt lat="46.18903" lon="2.42791">
        <ele>331</ele>
        <time>2016-04-07T13:55:36Z</time>
      </trkpt>
      <trkpt lat="46.18905" lon="2.42797">
        <ele>331</ele>
        <time>2016-04-07T13:55:39Z</time>
      </trkpt>
      <trkpt lat="46.18906" lon="2.42801">
        <ele>331</ele>
        <time>2016-04-07T13:55:42Z</time>
      </trkpt>
      <trkpt lat="46.18909" lon="2.42806">
        <ele>331</ele>
        <time>2016-04-07T13:55:45Z</time>
      </trkpt>
      <trkpt lat="46.18911" lon="2.42812">
        <ele>331</ele>
        <time>2016-04-07T13:55:48Z</time>
      </trkpt>
      <trkpt lat="46.18913" lon="2.42817">
        <ele>331</ele>
        <time>2016-04-07T13:55:51Z</time>
      </trkpt>
      <trkpt lat="46.18914" lon="2.42823">
        <ele>331</ele>
        <time>2016-04-07T13:55:54Z</time>
      </trkpt>
      <trkpt lat="46.18914" lon="2.42829">
        <ele>331</ele>
        <time>2016-04-07T13:55:57Z</time>
      </trkpt>
      <trkpt lat="46.18916" lon="2.42834">
        <ele>331</ele>
        <time>2016-04-07T13:56:00Z</time>
      </trkpt>
      <trkpt lat="46.18916" lon="2.42834">
        <ele>331</ele>
        <time>2016-04-07T13:56:04Z</time>
      </trkpt>
      <trkpt lat="46.18916" lon="2.42827">
        <ele>331</ele>
        <time>2016-04-07T13:56:11Z</time>
      </trkpt>
      <trkpt lat="46.18916" lon="2.42821">
        <ele>331</ele>
        <time>2016-04-07T13:56:14Z</time>
      </trkpt>
      <trkpt lat="46.18917" lon="2.42815">
        <ele>331</ele>
        <time>2016-04-07T13:56:17Z</time>
      </trkpt>
      <trkpt lat="46.18919" lon="2.42813">
        <ele>331</ele>
        <time>2016-04-07T13:56:20Z</time>
      </trkpt>
      <trkpt lat="46.18924" lon="2.42811">
        <ele>331</ele>
        <time>2016-04-07T13:56:23Z</time>
      </trkpt>
      <trkpt lat="46.18927" lon="2.4281">
        <ele>331</ele>
        <time>2016-04-07T13:56:26Z</time>
      </trkpt>
      <trkpt lat="46.18932" lon="2.42809">
        <ele>331</ele>
        <time>2016-04-07T13:56:30Z</time>
      </trkpt>
      <trkpt lat="46.18936" lon="2.42809">
        <ele>331</ele>
        <time>2016-04-07T13:56:33Z</time>
      </trkpt>
      <trkpt lat="46.18939" lon="2.42811">
        <ele>331</ele>
        <time>2016-04-07T13:56:37Z</time>
      </trkpt>
      <trkpt lat="46.18942" lon="2.42816">
        <ele>331</ele>
        <time>2016-04-07T13:56:41Z</time>
      </trkpt>
      <trkpt lat="46.18943" lon="2.42821">
        <ele>331</ele>
        <time>2016-04-07T13:56:44Z</time>
      </trkpt>
      <trkpt lat="46.18944" lon="2.42826">
        <ele>331</ele>
        <time>2016-04-07T13:56:47Z</time>
      </trkpt>
      <trkpt lat="46.18945" lon="2.42831">
        <ele>332</ele>
        <time>2016-04-07T13:56:50Z</time>
      </trkpt>
      <trkpt lat="46.18947" lon="2.42835">
        <ele>332</ele>
        <time>2016-04-07T13:56:53Z</time>
      </trkpt>
      <trkpt lat="46.18949" lon="2.4284">
        <ele>333</ele>
        <time>2016-04-07T13:56:56Z</time>
      </trkpt>
      <trkpt lat="46.18951" lon="2.42845">
        <ele>333</ele>
        <time>2016-04-07T13:56:59Z</time>
      </trkpt>
      <trkpt lat="46.18953" lon="2.4285">
        <ele>334</ele>
        <time>2016-04-07T13:57:02Z</time>
      </trkpt>
      <trkpt lat="46.18956" lon="2.42855">
        <ele>334</ele>
        <time>2016-04-07T13:57:05Z</time>
      </trkpt>
      <trkpt lat="46.18959" lon="2.4286">
        <ele>335</ele>
        <time>2016-04-07T13:57:08Z</time>
      </trkpt>
      <trkpt lat="46.18961" lon="2.42864">
        <ele>335</ele>
        <time>2016-04-07T13:57:11Z</time>
      </trkpt>
      <trkpt lat="46.18964" lon="2.42868">
        <ele>335</ele>
        <time>2016-04-07T13:57:14Z</time>
      </trkpt>
      <trkpt lat="46.18967" lon="2.42872">
        <ele>335</ele>
        <time>2016-04-07T13:57:17Z</time>
      </trkpt>
      <trkpt lat="46.18969" lon="2.42877">
        <ele>335</ele>
        <time>2016-04-07T13:57:20Z</time>
      </trkpt>
      <trkpt lat="46.1897" lon="2.42882">
        <ele>335</ele>
        <time>2016-04-07T13:57:23Z</time>
      </trkpt>
      <trkpt lat="46.18971" lon="2.42887">
        <ele>335</ele>
        <time>2016-04-07T13:57:26Z</time>
      </trkpt>
      <trkpt lat="46.1897" lon="2.42893">
        <ele>335</ele>
        <time>2016-04-07T13:57:29Z</time>
      </trkpt>
      <trkpt lat="46.18969" lon="2.42897">
        <ele>335</ele>
        <time>2016-04-07T13:57:32Z</time>
      </trkpt>
      <trkpt lat="46.18964" lon="2.429">
        <ele>336</ele>
        <time>2016-04-07T13:57:36Z</time>
      </trkpt>
      <trkpt lat="46.18961" lon="2.42902">
        <ele>336</ele>
        <time>2016-04-07T13:57:39Z</time>
      </trkpt>
      <trkpt lat="46.18958" lon="2.42904">
        <ele>336</ele>
        <time>2016-04-07T13:57:42Z</time>
      </trkpt>
      <trkpt lat="46.18953" lon="2.42907">
        <ele>336</ele>
        <time>2016-04-07T13:57:45Z</time>
      </trkpt>
      <trkpt lat="46.18948" lon="2.42909">
        <ele>336</ele>
        <time>2016-04-07T13:57:48Z</time>
      </trkpt>
      <trkpt lat="46.18944" lon="2.4291">
        <ele>336</ele>
        <time>2016-04-07T13:57:51Z</time>
      </trkpt>
      <trkpt lat="46.1894" lon="2.42911">
        <ele>336</ele>
        <time>2016-04-07T13:57:54Z</time>
      </trkpt>
      <trkpt lat="46.18936" lon="2.42913">
        <ele>336</ele>
        <time>2016-04-07T13:57:57Z</time>
      </trkpt>
      <trkpt lat="46.18932" lon="2.42915">
        <ele>336</ele>
        <time>2016-04-07T13:58:00Z</time>
      </trkpt>
      <trkpt lat="46.18927" lon="2.42916">
        <ele>336</ele>
        <time>2016-04-07T13:58:03Z</time>
      </trkpt>
      <trkpt lat="46.18923" lon="2.42917">
        <ele>336</ele>
        <time>2016-04-07T13:58:06Z</time>
      </trkpt>
      <trkpt lat="46.18919" lon="2.42922">
        <ele>337</ele>
        <time>2016-04-07T13:58:09Z</time>
      </trkpt>
      <trkpt lat="46.18916" lon="2.42925">
        <ele>337</ele>
        <time>2016-04-07T13:58:12Z</time>
      </trkpt>
      <trkpt lat="46.18911" lon="2.4293">
        <ele>337</ele>
        <time>2016-04-07T13:58:16Z</time>
      </trkpt>
      <trkpt lat="46.18908" lon="2.42934">
        <ele>338</ele>
        <time>2016-04-07T13:58:19Z</time>
      </trkpt>
      <trkpt lat="46.18906" lon="2.42938">
        <ele>338</ele>
        <time>2016-04-07T13:58:22Z</time>
      </trkpt>
      <trkpt lat="46.18903" lon="2.42943">
        <ele>339</ele>
        <time>2016-04-07T13:58:25Z</time>
      </trkpt>
      <trkpt lat="46.189" lon="2.42947">
        <ele>340</ele>
        <time>2016-04-07T13:58:28Z</time>
      </trkpt>
      <trkpt lat="46.18898" lon="2.42952">
        <ele>340</ele>
        <time>2016-04-07T13:58:31Z</time>
      </trkpt>
      <trkpt lat="46.18895" lon="2.42957">
        <ele>340</ele>
        <time>2016-04-07T13:58:34Z</time>
      </trkpt>
      <trkpt lat="46.18893" lon="2.42961">
        <ele>340</ele>
        <time>2016-04-07T13:58:37Z</time>
      </trkpt>
      <trkpt lat="46.1889" lon="2.42966">
        <ele>341</ele>
        <time>2016-04-07T13:58:40Z</time>
      </trkpt>
      <trkpt lat="46.18888" lon="2.42971">
        <ele>341</ele>
        <time>2016-04-07T13:58:43Z</time>
      </trkpt>
      <trkpt lat="46.18886" lon="2.42977">
        <ele>341</ele>
        <time>2016-04-07T13:58:46Z</time>
      </trkpt>
      <trkpt lat="46.18883" lon="2.42983">
        <ele>342</ele>
        <time>2016-04-07T13:58:50Z</time>
      </trkpt>
      <trkpt lat="46.18882" lon="2.42989">
        <ele>342</ele>
        <time>2016-04-07T13:58:53Z</time>
      </trkpt>
      <trkpt lat="46.18881" lon="2.42994">
        <ele>343</ele>
        <time>2016-04-07T13:58:56Z</time>
      </trkpt>
      <trkpt lat="46.18881" lon="2.43">
        <ele>343</ele>
        <time>2016-04-07T13:58:59Z</time>
      </trkpt>
      <trkpt lat="46.1888" lon="2.43006">
        <ele>344</ele>
        <time>2016-04-07T13:59:02Z</time>
      </trkpt>
      <trkpt lat="46.1888" lon="2.43013">
        <ele>344</ele>
        <time>2016-04-07T13:59:05Z</time>
      </trkpt>
      <trkpt lat="46.1888" lon="2.43019">
        <ele>345</ele>
        <time>2016-04-07T13:59:08Z</time>
      </trkpt>
      <trkpt lat="46.1888" lon="2.43025">
        <ele>345</ele>
        <time>2016-04-07T13:59:11Z</time>
      </trkpt>
      <trkpt lat="46.18881" lon="2.43032">
        <ele>345</ele>
        <time>2016-04-07T13:59:14Z</time>
      </trkpt>
      <trkpt lat="46.18882" lon="2.43038">
        <ele>345</ele>
        <time>2016-04-07T13:59:17Z</time>
      </trkpt>
      <trkpt lat="46.18882" lon="2.43044">
        <ele>345</ele>
        <time>2016-04-07T13:59:20Z</time>
      </trkpt>
      <trkpt lat="46.18884" lon="2.4305">
        <ele>345</ele>
        <time>2016-04-07T13:59:23Z</time>
      </trkpt>
      <trkpt lat="46.18884" lon="2.43056">
        <ele>346</ele>
        <time>2016-04-07T13:59:27Z</time>
      </trkpt>
      <trkpt lat="46.18884" lon="2.43062">
        <ele>347</ele>
        <time>2016-04-07T13:59:30Z</time>
      </trkpt>
      <trkpt lat="46.18883" lon="2.43068">
        <ele>348</ele>
        <time>2016-04-07T13:59:33Z</time>
      </trkpt>
      <trkpt lat="46.18883" lon="2.43073">
        <ele>349</ele>
        <time>2016-04-07T13:59:36Z</time>
      </trkpt>
      <trkpt lat="46.18883" lon="2.43077">
        <ele>350</ele>
        <time>2016-04-07T13:59:39Z</time>
      </trkpt>
      <trkpt lat="46.18883" lon="2.43081">
        <ele>350</ele>
        <time>2016-04-07T13:59:42Z</time>
      </trkpt>
      <trkpt lat="46.18882" lon="2.43087">
        <ele>350</ele>
        <time>2016-04-07T13:59:45Z</time>
      </trkpt>
      <trkpt lat="46.18882" lon="2.43092">
        <ele>350</ele>
        <time>2016-04-07T13:59:48Z</time>
      </trkpt>
      <trkpt lat="46.1888" lon="2.43097">
        <ele>350</ele>
        <time>2016-04-07T13:59:51Z</time>
      </trkpt>
      <trkpt lat="46.1888" lon="2.43103">
        <ele>350</ele>
        <time>2016-04-07T13:59:54Z</time>
      </trkpt>
      <trkpt lat="46.1888" lon="2.43109">
        <ele>350</ele>
        <time>2016-04-07T13:59:57Z</time>
      </trkpt>
      <trkpt lat="46.18879" lon="2.43116">
        <ele>350</ele>
        <time>2016-04-07T14:00:00Z</time>
      </trkpt>
      <trkpt lat="46.18879" lon="2.43122">
        <ele>350</ele>
        <time>2016-04-07T14:00:03Z</time>
      </trkpt>
      <trkpt lat="46.1888" lon="2.43128">
        <ele>350</ele>
        <time>2016-04-07T14:00:06Z</time>
      </trkpt>
      <trkpt lat="46.1888" lon="2.43134">
        <ele>350</ele>
        <time>2016-04-07T14:00:09Z</time>
      </trkpt>
      <trkpt lat="46.1888" lon="2.43139">
        <ele>350</ele>
        <time>2016-04-07T14:00:12Z</time>
      </trkpt>
      <trkpt lat="46.1888" lon="2.43145">
        <ele>350</ele>
        <time>2016-04-07T14:00:15Z</time>
      </trkpt>
      <trkpt lat="46.1888" lon="2.43151">
        <ele>350</ele>
        <time>2016-04-07T14:00:18Z</time>
      </trkpt>
      <trkpt lat="46.1888" lon="2.43157">
        <ele>350</ele>
        <time>2016-04-07T14:00:21Z</time>
      </trkpt>
      <trkpt lat="46.18879" lon="2.43162">
        <ele>350</ele>
        <time>2016-04-07T14:00:24Z</time>
      </trkpt>
      <trkpt lat="46.18879" lon="2.43168">
        <ele>350</ele>
        <time>2016-04-07T14:00:27Z</time>
      </trkpt>
      <trkpt lat="46.18878" lon="2.43173">
        <ele>351</ele>
        <time>2016-04-07T14:00:30Z</time>
      </trkpt>
      <trkpt lat="46.18878" lon="2.43178">
        <ele>351</ele>
        <time>2016-04-07T14:00:33Z</time>
      </trkpt>
      <trkpt lat="46.18878" lon="2.43184">
        <ele>351</ele>
        <time>2016-04-07T14:00:36Z</time>
      </trkpt>
      <trkpt lat="46.18878" lon="2.43189">
        <ele>353</ele>
        <time>2016-04-07T14:00:39Z</time>
      </trkpt>
      <trkpt lat="46.18878" lon="2.43195">
        <ele>354</ele>
        <time>2016-04-07T14:00:42Z</time>
      </trkpt>
      <trkpt lat="46.18878" lon="2.43201">
        <ele>355</ele>
        <time>2016-04-07T14:00:45Z</time>
      </trkpt>
      <trkpt lat="46.18879" lon="2.43207">
        <ele>355</ele>
        <time>2016-04-07T14:00:48Z</time>
      </trkpt>
      <trkpt lat="46.18879" lon="2.43214">
        <ele>355</ele>
        <time>2016-04-07T14:00:51Z</time>
      </trkpt>
      <trkpt lat="46.1888" lon="2.43221">
        <ele>356</ele>
        <time>2016-04-07T14:00:54Z</time>
      </trkpt>
      <trkpt lat="46.18881" lon="2.43227">
        <ele>358</ele>
        <time>2016-04-07T14:00:58Z</time>
      </trkpt>
      <trkpt lat="46.18883" lon="2.4323">
        <ele>358</ele>
        <time>2016-04-07T14:01:01Z</time>
      </trkpt>
      <trkpt lat="46.18886" lon="2.43234">
        <ele>358</ele>
        <time>2016-04-07T14:01:05Z</time>
      </trkpt>
      <trkpt lat="46.18889" lon="2.43236">
        <ele>358</ele>
        <time>2016-04-07T14:01:09Z</time>
      </trkpt>
      <trkpt lat="46.18892" lon="2.43241">
        <ele>358</ele>
        <time>2016-04-07T14:01:13Z</time>
      </trkpt>
      <trkpt lat="46.18895" lon="2.43245">
        <ele>358</ele>
        <time>2016-04-07T14:01:17Z</time>
      </trkpt>
      <trkpt lat="46.18898" lon="2.4325">
        <ele>357</ele>
        <time>2016-04-07T14:01:20Z</time>
      </trkpt>
      <trkpt lat="46.189" lon="2.43259">
        <ele>357</ele>
        <time>2016-04-07T14:01:24Z</time>
      </trkpt>
      <trkpt lat="46.18903" lon="2.43263">
        <ele>357</ele>
        <time>2016-04-07T14:01:27Z</time>
      </trkpt>
      <trkpt lat="46.18903" lon="2.43269">
        <ele>357</ele>
        <time>2016-04-07T14:01:30Z</time>
      </trkpt>
      <trkpt lat="46.18904" lon="2.43274">
        <ele>357</ele>
        <time>2016-04-07T14:01:33Z</time>
      </trkpt>
      <trkpt lat="46.18905" lon="2.4328">
        <ele>357</ele>
        <time>2016-04-07T14:01:36Z</time>
      </trkpt>
      <trkpt lat="46.18903" lon="2.43285">
        <ele>358</ele>
        <time>2016-04-07T14:01:40Z</time>
      </trkpt>
      <trkpt lat="46.18901" lon="2.4329">
        <ele>360</ele>
        <time>2016-04-07T14:01:44Z</time>
      </trkpt>
      <trkpt lat="46.18898" lon="2.43294">
        <ele>362</ele>
        <time>2016-04-07T14:01:47Z</time>
      </trkpt>
      <trkpt lat="46.18896" lon="2.43299">
        <ele>363</ele>
        <time>2016-04-07T14:01:50Z</time>
      </trkpt>
      <trkpt lat="46.18892" lon="2.43304">
        <ele>363</ele>
        <time>2016-04-07T14:01:54Z</time>
      </trkpt>
      <trkpt lat="46.18888" lon="2.43309">
        <ele>363</ele>
        <time>2016-04-07T14:01:58Z</time>
      </trkpt>
      <trkpt lat="46.18885" lon="2.43313">
        <ele>363</ele>
        <time>2016-04-07T14:02:01Z</time>
      </trkpt>
      <trkpt lat="46.18883" lon="2.43317">
        <ele>364</ele>
        <time>2016-04-07T14:02:04Z</time>
      </trkpt>
      <trkpt lat="46.18881" lon="2.43321">
        <ele>364</ele>
        <time>2016-04-07T14:02:07Z</time>
      </trkpt>
      <trkpt lat="46.18878" lon="2.43325">
        <ele>364</ele>
        <time>2016-04-07T14:02:11Z</time>
      </trkpt>
      <trkpt lat="46.18874" lon="2.43331">
        <ele>364</ele>
        <time>2016-04-07T14:02:15Z</time>
      </trkpt>
      <trkpt lat="46.18872" lon="2.43335">
        <ele>365</ele>
        <time>2016-04-07T14:02:18Z</time>
      </trkpt>
      <trkpt lat="46.1887" lon="2.43339">
        <ele>365</ele>
        <time>2016-04-07T14:02:21Z</time>
      </trkpt>
      <trkpt lat="46.18868" lon="2.43344">
        <ele>365</ele>
        <time>2016-04-07T14:02:24Z</time>
      </trkpt>
      <trkpt lat="46.18866" lon="2.43349">
        <ele>365</ele>
        <time>2016-04-07T14:02:27Z</time>
      </trkpt>
      <trkpt lat="46.18864" lon="2.43355">
        <ele>365</ele>
        <time>2016-04-07T14:02:31Z</time>
      </trkpt>
      <trkpt lat="46.18864" lon="2.43362">
        <ele>366</ele>
        <time>2016-04-07T14:02:35Z</time>
      </trkpt>
      <trkpt lat="46.18863" lon="2.43367">
        <ele>366</ele>
        <time>2016-04-07T14:02:39Z</time>
      </trkpt>
      <trkpt lat="46.18863" lon="2.43372">
        <ele>366</ele>
        <time>2016-04-07T14:02:42Z</time>
      </trkpt>
      <trkpt lat="46.18862" lon="2.43377">
        <ele>366</ele>
        <time>2016-04-07T14:02:46Z</time>
      </trkpt>
      <trkpt lat="46.18861" lon="2.43379">
        <ele>366</ele>
        <time>2016-04-07T14:02:50Z</time>
      </trkpt>
      <trkpt lat="46.18861" lon="2.43384">
        <ele>366</ele>
        <time>2016-04-07T14:02:54Z</time>
      </trkpt>
      <trkpt lat="46.18861" lon="2.43386">
        <ele>366</ele>
        <time>2016-04-07T14:02:58Z</time>
      </trkpt>
      <trkpt lat="46.18861" lon="2.43394">
        <ele>367</ele>
        <time>2016-04-07T14:03:02Z</time>
      </trkpt>
      <trkpt lat="46.1886" lon="2.434">
        <ele>367</ele>
        <time>2016-04-07T14:03:05Z</time>
      </trkpt>
      <trkpt lat="46.18859" lon="2.43405">
        <ele>367</ele>
        <time>2016-04-07T14:03:08Z</time>
      </trkpt>
      <trkpt lat="46.18859" lon="2.43412">
        <ele>367</ele>
        <time>2016-04-07T14:03:12Z</time>
      </trkpt>
      <trkpt lat="46.18859" lon="2.43418">
        <ele>367</ele>
        <time>2016-04-07T14:03:15Z</time>
      </trkpt>
      <trkpt lat="46.18857" lon="2.43422">
        <ele>367</ele>
        <time>2016-04-07T14:03:18Z</time>
      </trkpt>
      <trkpt lat="46.18855" lon="2.43429">
        <ele>368</ele>
        <time>2016-04-07T14:03:22Z</time>
      </trkpt>
      <trkpt lat="46.18855" lon="2.43434">
        <ele>368</ele>
        <time>2016-04-07T14:03:25Z</time>
      </trkpt>
      <trkpt lat="46.18854" lon="2.43439">
        <ele>368</ele>
        <time>2016-04-07T14:03:28Z</time>
      </trkpt>
      <trkpt lat="46.18854" lon="2.43444">
        <ele>368</ele>
        <time>2016-04-07T14:03:31Z</time>
      </trkpt>
      <trkpt lat="46.18853" lon="2.43452">
        <ele>368</ele>
        <time>2016-04-07T14:03:35Z</time>
      </trkpt>
      <trkpt lat="46.18853" lon="2.43457">
        <ele>368</ele>
        <time>2016-04-07T14:03:38Z</time>
      </trkpt>
      <trkpt lat="46.18853" lon="2.43463">
        <ele>368</ele>
        <time>2016-04-07T14:03:41Z</time>
      </trkpt>
      <trkpt lat="46.18853" lon="2.43469">
        <ele>368</ele>
        <time>2016-04-07T14:03:44Z</time>
      </trkpt>
      <trkpt lat="46.18853" lon="2.43475">
        <ele>368</ele>
        <time>2016-04-07T14:03:47Z</time>
      </trkpt>
      <trkpt lat="46.18853" lon="2.43481">
        <ele>368</ele>
        <time>2016-04-07T14:03:51Z</time>
      </trkpt>
      <trkpt lat="46.18853" lon="2.43488">
        <ele>368</ele>
        <time>2016-04-07T14:03:54Z</time>
      </trkpt>
      <trkpt lat="46.18853" lon="2.43494">
        <ele>368</ele>
        <time>2016-04-07T14:03:57Z</time>
      </trkpt>
      <trkpt lat="46.18854" lon="2.43499">
        <ele>369</ele>
        <time>2016-04-07T14:04:00Z</time>
      </trkpt>
      <trkpt lat="46.18856" lon="2.43504">
        <ele>369</ele>
        <time>2016-04-07T14:04:03Z</time>
      </trkpt>
      <trkpt lat="46.18859" lon="2.43511">
        <ele>369</ele>
        <time>2016-04-07T14:04:08Z</time>
      </trkpt>
      <trkpt lat="46.18863" lon="2.43517">
        <ele>369</ele>
        <time>2016-04-07T14:04:13Z</time>
      </trkpt>
      <trkpt lat="46.18866" lon="2.43522">
        <ele>369</ele>
        <time>2016-04-07T14:04:17Z</time>
      </trkpt>
      <trkpt lat="46.18868" lon="2.43528">
        <ele>369</ele>
        <time>2016-04-07T14:04:20Z</time>
      </trkpt>
      <trkpt lat="46.18871" lon="2.43532">
        <ele>370</ele>
        <time>2016-04-07T14:04:23Z</time>
      </trkpt>
      <trkpt lat="46.18874" lon="2.43538">
        <ele>371</ele>
        <time>2016-04-07T14:04:27Z</time>
      </trkpt>
      <trkpt lat="46.18877" lon="2.43541">
        <ele>371</ele>
        <time>2016-04-07T14:04:30Z</time>
      </trkpt>
      <trkpt lat="46.18882" lon="2.43545">
        <ele>371</ele>
        <time>2016-04-07T14:04:34Z</time>
      </trkpt>
      <trkpt lat="46.18885" lon="2.4355">
        <ele>371</ele>
        <time>2016-04-07T14:04:37Z</time>
      </trkpt>
      <trkpt lat="46.18888" lon="2.43555">
        <ele>374</ele>
        <time>2016-04-07T14:04:41Z</time>
      </trkpt>
      <trkpt lat="46.18892" lon="2.43555">
        <ele>375</ele>
        <time>2016-04-07T14:04:44Z</time>
      </trkpt>
      <trkpt lat="46.18895" lon="2.43561">
        <ele>376</ele>
        <time>2016-04-07T14:04:48Z</time>
      </trkpt>
      <trkpt lat="46.18896" lon="2.43569">
        <ele>380</ele>
        <time>2016-04-07T14:04:52Z</time>
      </trkpt>
      <trkpt lat="46.18898" lon="2.43576">
        <ele>382</ele>
        <time>2016-04-07T14:04:55Z</time>
      </trkpt>
      <trkpt lat="46.18899" lon="2.43585">
        <ele>385</ele>
        <time>2016-04-07T14:04:59Z</time>
      </trkpt>
      <trkpt lat="46.18904" lon="2.43589">
        <ele>386</ele>
        <time>2016-04-07T14:05:03Z</time>
      </trkpt>
      <trkpt lat="46.18906" lon="2.43594">
        <ele>386</ele>
        <time>2016-04-07T14:05:07Z</time>
      </trkpt>
      <trkpt lat="46.18908" lon="2.43598">
        <ele>386</ele>
        <time>2016-04-07T14:05:11Z</time>
      </trkpt>
      <trkpt lat="46.18908" lon="2.43606">
        <ele>386</ele>
        <time>2016-04-07T14:05:15Z</time>
      </trkpt>
      <trkpt lat="46.18907" lon="2.43612">
        <ele>386</ele>
        <time>2016-04-07T14:05:19Z</time>
      </trkpt>
      <trkpt lat="46.18904" lon="2.43617">
        <ele>386</ele>
        <time>2016-04-07T14:05:23Z</time>
      </trkpt>
      <trkpt lat="46.18901" lon="2.43622">
        <ele>386</ele>
        <time>2016-04-07T14:05:27Z</time>
      </trkpt>
      <trkpt lat="46.18899" lon="2.43627">
        <ele>386</ele>
        <time>2016-04-07T14:05:30Z</time>
      </trkpt>
      <trkpt lat="46.18897" lon="2.43632">
        <ele>386</ele>
        <time>2016-04-07T14:05:34Z</time>
      </trkpt>
      <trkpt lat="46.18893" lon="2.43639">
        <ele>386</ele>
        <time>2016-04-07T14:05:38Z</time>
      </trkpt>
      <trkpt lat="46.1889" lon="2.43644">
        <ele>386</ele>
        <time>2016-04-07T14:05:41Z</time>
      </trkpt>
      <trkpt lat="46.18888" lon="2.43649">
        <ele>386</ele>
        <time>2016-04-07T14:05:44Z</time>
      </trkpt>
      <trkpt lat="46.18886" lon="2.43654">
        <ele>386</ele>
        <time>2016-04-07T14:05:47Z</time>
      </trkpt>
      <trkpt lat="46.18883" lon="2.43659">
        <ele>386</ele>
        <time>2016-04-07T14:05:50Z</time>
      </trkpt>
      <trkpt lat="46.18881" lon="2.43663">
        <ele>386</ele>
        <time>2016-04-07T14:05:54Z</time>
      </trkpt>
      <trkpt lat="46.1888" lon="2.43667">
        <ele>386</ele>
        <time>2016-04-07T14:05:57Z</time>
      </trkpt>
      <trkpt lat="46.18879" lon="2.43671">
        <ele>386</ele>
        <time>2016-04-07T14:06:00Z</time>
      </trkpt>
      <trkpt lat="46.18877" lon="2.43678">
        <ele>386</ele>
        <time>2016-04-07T14:06:04Z</time>
      </trkpt>
      <trkpt lat="46.18876" lon="2.43683">
        <ele>386</ele>
        <time>2016-04-07T14:06:07Z</time>
      </trkpt>
      <trkpt lat="46.18875" lon="2.43691">
        <ele>386</ele>
        <time>2016-04-07T14:06:11Z</time>
      </trkpt>
      <trkpt lat="46.18874" lon="2.43697">
        <ele>386</ele>
        <time>2016-04-07T14:06:14Z</time>
      </trkpt>
      <trkpt lat="46.18874" lon="2.43703">
        <ele>386</ele>
        <time>2016-04-07T14:06:17Z</time>
      </trkpt>
      <trkpt lat="46.18874" lon="2.43712">
        <ele>386</ele>
        <time>2016-04-07T14:06:22Z</time>
      </trkpt>
      <trkpt lat="46.18874" lon="2.43719">
        <ele>386</ele>
        <time>2016-04-07T14:06:26Z</time>
      </trkpt>
      <trkpt lat="46.18874" lon="2.43725">
        <ele>386</ele>
        <time>2016-04-07T14:06:29Z</time>
      </trkpt>
      <trkpt lat="46.18874" lon="2.4373">
        <ele>386</ele>
        <time>2016-04-07T14:06:32Z</time>
      </trkpt>
      <trkpt lat="46.18874" lon="2.43738">
        <ele>386</ele>
        <time>2016-04-07T14:06:36Z</time>
      </trkpt>
      <trkpt lat="46.18875" lon="2.43744">
        <ele>386</ele>
        <time>2016-04-07T14:06:39Z</time>
      </trkpt>
      <trkpt lat="46.18876" lon="2.43749">
        <ele>386</ele>
        <time>2016-04-07T14:06:42Z</time>
      </trkpt>
      <trkpt lat="46.18877" lon="2.43757">
        <ele>387</ele>
        <time>2016-04-07T14:06:46Z</time>
      </trkpt>
      <trkpt lat="46.18878" lon="2.43763">
        <ele>387</ele>
        <time>2016-04-07T14:06:50Z</time>
      </trkpt>
      <trkpt lat="46.18879" lon="2.43769">
        <ele>387</ele>
        <time>2016-04-07T14:06:53Z</time>
      </trkpt>
      <trkpt lat="46.18879" lon="2.43773">
        <ele>387</ele>
        <time>2016-04-07T14:06:56Z</time>
      </trkpt>
      <trkpt lat="46.1888" lon="2.4378">
        <ele>387</ele>
        <time>2016-04-07T14:07:00Z</time>
      </trkpt>
      <trkpt lat="46.18879" lon="2.43788">
        <ele>387</ele>
        <time>2016-04-07T14:07:03Z</time>
      </trkpt>
      <trkpt lat="46.18879" lon="2.43794">
        <ele>387</ele>
        <time>2016-04-07T14:07:06Z</time>
      </trkpt>
      <trkpt lat="46.18879" lon="2.43801">
        <ele>387</ele>
        <time>2016-04-07T14:07:09Z</time>
      </trkpt>
      <trkpt lat="46.18878" lon="2.43806">
        <ele>387</ele>
        <time>2016-04-07T14:07:12Z</time>
      </trkpt>
      <trkpt lat="46.18879" lon="2.43813">
        <ele>387</ele>
        <time>2016-04-07T14:07:16Z</time>
      </trkpt>
      <trkpt lat="46.18879" lon="2.43818">
        <ele>387</ele>
        <time>2016-04-07T14:07:19Z</time>
      </trkpt>
      <trkpt lat="46.18881" lon="2.43822">
        <ele>388</ele>
        <time>2016-04-07T14:07:22Z</time>
      </trkpt>
      <trkpt lat="46.18885" lon="2.43826">
        <ele>388</ele>
        <time>2016-04-07T14:07:26Z</time>
      </trkpt>
      <trkpt lat="46.18887" lon="2.43831">
        <ele>388</ele>
        <time>2016-04-07T14:07:29Z</time>
      </trkpt>
      <trkpt lat="46.18888" lon="2.43836">
        <ele>388</ele>
        <time>2016-04-07T14:07:32Z</time>
      </trkpt>
      <trkpt lat="46.18892" lon="2.4384">
        <ele>388</ele>
        <time>2016-04-07T14:07:36Z</time>
      </trkpt>
      <trkpt lat="46.18894" lon="2.43846">
        <ele>388</ele>
        <time>2016-04-07T14:07:39Z</time>
      </trkpt>
      <trkpt lat="46.18896" lon="2.4385">
        <ele>388</ele>
        <time>2016-04-07T14:07:42Z</time>
      </trkpt>
      <trkpt lat="46.18899" lon="2.43854">
        <ele>388</ele>
        <time>2016-04-07T14:07:45Z</time>
      </trkpt>
      <trkpt lat="46.189" lon="2.43859">
        <ele>388</ele>
        <time>2016-04-07T14:07:48Z</time>
      </trkpt>
      <trkpt lat="46.18901" lon="2.43865">
        <ele>388</ele>
        <time>2016-04-07T14:07:51Z</time>
      </trkpt>
      <trkpt lat="46.18901" lon="2.43872">
        <ele>389</ele>
        <time>2016-04-07T14:07:54Z</time>
      </trkpt>
      <trkpt lat="46.18902" lon="2.43878">
        <ele>390</ele>
        <time>2016-04-07T14:07:57Z</time>
      </trkpt>
      <trkpt lat="46.18902" lon="2.43887">
        <ele>392</ele>
        <time>2016-04-07T14:08:01Z</time>
      </trkpt>
      <trkpt lat="46.18901" lon="2.43893">
        <ele>393</ele>
        <time>2016-04-07T14:08:04Z</time>
      </trkpt>
      <trkpt lat="46.18902" lon="2.439">
        <ele>394</ele>
        <time>2016-04-07T14:08:07Z</time>
      </trkpt>
      <trkpt lat="46.18902" lon="2.43908">
        <ele>394</ele>
        <time>2016-04-07T14:08:11Z</time>
      </trkpt>
      <trkpt lat="46.18903" lon="2.43914">
        <ele>395</ele>
        <time>2016-04-07T14:08:14Z</time>
      </trkpt>
      <trkpt lat="46.18906" lon="2.4392">
        <ele>397</ele>
        <time>2016-04-07T14:08:18Z</time>
      </trkpt>
      <trkpt lat="46.18907" lon="2.43925">
        <ele>398</ele>
        <time>2016-04-07T14:08:21Z</time>
      </trkpt>
      <trkpt lat="46.1891" lon="2.43928">
        <ele>399</ele>
        <time>2016-04-07T14:08:24Z</time>
      </trkpt>
      <trkpt lat="46.18914" lon="2.43931">
        <ele>399</ele>
        <time>2016-04-07T14:08:28Z</time>
      </trkpt>
      <trkpt lat="46.18917" lon="2.43933">
        <ele>399</ele>
        <time>2016-04-07T14:08:31Z</time>
      </trkpt>
      <trkpt lat="46.18923" lon="2.43934">
        <ele>399</ele>
        <time>2016-04-07T14:08:35Z</time>
      </trkpt>
      <trkpt lat="46.18927" lon="2.43934">
        <ele>399</ele>
        <time>2016-04-07T14:08:38Z</time>
      </trkpt>
      <trkpt lat="46.1893" lon="2.43936">
        <ele>399</ele>
        <time>2016-04-07T14:08:41Z</time>
      </trkpt>
      <trkpt lat="46.18934" lon="2.43938">
        <ele>399</ele>
        <time>2016-04-07T14:08:45Z</time>
      </trkpt>
      <trkpt lat="46.18938" lon="2.43941">
        <ele>399</ele>
        <time>2016-04-07T14:08:49Z</time>
      </trkpt>
      <trkpt lat="46.18942" lon="2.43943">
        <ele>399</ele>
        <time>2016-04-07T14:08:52Z</time>
      </trkpt>
      <trkpt lat="46.18946" lon="2.43946">
        <ele>400</ele>
        <time>2016-04-07T14:08:56Z</time>
      </trkpt>
      <trkpt lat="46.18949" lon="2.43947">
        <ele>400</ele>
        <time>2016-04-07T14:08:59Z</time>
      </trkpt>
      <trkpt lat="46.18954" lon="2.4395">
        <ele>400</ele>
        <time>2016-04-07T14:09:03Z</time>
      </trkpt>
      <trkpt lat="46.18958" lon="2.43952">
        <ele>400</ele>
        <time>2016-04-07T14:09:07Z</time>
      </trkpt>
      <trkpt lat="46.18962" lon="2.43955">
        <ele>400</ele>
        <time>2016-04-07T14:09:10Z</time>
      </trkpt>
      <trkpt lat="46.18964" lon="2.43956">
        <ele>400</ele>
        <time>2016-04-07T14:09:13Z</time>
      </trkpt>
      <trkpt lat="46.18969" lon="2.43957">
        <ele>400</ele>
        <time>2016-04-07T14:09:17Z</time>
      </trkpt>
      <trkpt lat="46.18974" lon="2.43959">
        <ele>400</ele>
        <time>2016-04-07T14:09:21Z</time>
      </trkpt>
      <trkpt lat="46.18977" lon="2.4396">
        <ele>400</ele>
        <time>2016-04-07T14:09:24Z</time>
      </trkpt>
      <trkpt lat="46.18981" lon="2.43963">
        <ele>400</ele>
        <time>2016-04-07T14:09:28Z</time>
      </trkpt>
      <trkpt lat="46.18986" lon="2.43965">
        <ele>400</ele>
        <time>2016-04-07T14:09:32Z</time>
      </trkpt>
      <trkpt lat="46.1899" lon="2.43967">
        <ele>400</ele>
        <time>2016-04-07T14:09:36Z</time>
      </trkpt>
      <trkpt lat="46.18993" lon="2.4397">
        <ele>400</ele>
        <time>2016-04-07T14:09:40Z</time>
      </trkpt>
      <trkpt lat="46.18998" lon="2.43973">
        <ele>401</ele>
        <time>2016-04-07T14:09:44Z</time>
      </trkpt>
      <trkpt lat="46.19003" lon="2.43975">
        <ele>402</ele>
        <time>2016-04-07T14:09:48Z</time>
      </trkpt>
      <trkpt lat="46.19007" lon="2.43977">
        <ele>402</ele>
        <time>2016-04-07T14:09:51Z</time>
      </trkpt>
      <trkpt lat="46.1901" lon="2.4398">
        <ele>402</ele>
        <time>2016-04-07T14:09:54Z</time>
      </trkpt>
      <trkpt lat="46.19014" lon="2.43981">
        <ele>402</ele>
        <time>2016-04-07T14:09:57Z</time>
      </trkpt>
      <trkpt lat="46.19019" lon="2.43984">
        <ele>402</ele>
        <time>2016-04-07T14:10:01Z</time>
      </trkpt>
      <trkpt lat="46.19023" lon="2.43987">
        <ele>402</ele>
        <time>2016-04-07T14:10:04Z</time>
      </trkpt>
      <trkpt lat="46.19027" lon="2.43989">
        <ele>402</ele>
        <time>2016-04-07T14:10:07Z</time>
      </trkpt>
      <trkpt lat="46.19031" lon="2.43991">
        <ele>403</ele>
        <time>2016-04-07T14:10:10Z</time>
      </trkpt>
      <trkpt lat="46.19034" lon="2.43994">
        <ele>404</ele>
        <time>2016-04-07T14:10:13Z</time>
      </trkpt>
      <trkpt lat="46.19038" lon="2.43996">
        <ele>404</ele>
        <time>2016-04-07T14:10:16Z</time>
      </trkpt>
      <trkpt lat="46.19042" lon="2.43998">
        <ele>404</ele>
        <time>2016-04-07T14:10:19Z</time>
      </trkpt>
      <trkpt lat="46.19046" lon="2.44001">
        <ele>404</ele>
        <time>2016-04-07T14:10:22Z</time>
      </trkpt>
      <trkpt lat="46.19051" lon="2.44003">
        <ele>404</ele>
        <time>2016-04-07T14:10:25Z</time>
      </trkpt>
      <trkpt lat="46.19054" lon="2.44005">
        <ele>404</ele>
        <time>2016-04-07T14:10:28Z</time>
      </trkpt>
      <trkpt lat="46.19059" lon="2.44007">
        <ele>404</ele>
        <time>2016-04-07T14:10:31Z</time>
      </trkpt>
      <trkpt lat="46.19062" lon="2.44009">
        <ele>404</ele>
        <time>2016-04-07T14:10:34Z</time>
      </trkpt>
      <trkpt lat="46.19067" lon="2.44011">
        <ele>405</ele>
        <time>2016-04-07T14:10:37Z</time>
      </trkpt>
      <trkpt lat="46.19072" lon="2.44014">
        <ele>405</ele>
        <time>2016-04-07T14:10:41Z</time>
      </trkpt>
      <trkpt lat="46.19075" lon="2.44016">
        <ele>405</ele>
        <time>2016-04-07T14:10:44Z</time>
      </trkpt>
      <trkpt lat="46.1908" lon="2.44019">
        <ele>405</ele>
        <time>2016-04-07T14:10:47Z</time>
      </trkpt>
      <trkpt lat="46.19084" lon="2.44022">
        <ele>405</ele>
        <time>2016-04-07T14:10:51Z</time>
      </trkpt>
      <trkpt lat="46.19088" lon="2.44024">
        <ele>405</ele>
        <time>2016-04-07T14:10:54Z</time>
      </trkpt>
      <trkpt lat="46.19093" lon="2.44027">
        <ele>405</ele>
        <time>2016-04-07T14:10:57Z</time>
      </trkpt>
      <trkpt lat="46.19096" lon="2.44029">
        <ele>405</ele>
        <time>2016-04-07T14:11:00Z</time>
      </trkpt>
      <trkpt lat="46.19101" lon="2.44032">
        <ele>405</ele>
        <time>2016-04-07T14:11:03Z</time>
      </trkpt>
      <trkpt lat="46.19104" lon="2.44034">
        <ele>405</ele>
        <time>2016-04-07T14:11:06Z</time>
      </trkpt>
      <trkpt lat="46.19108" lon="2.44036">
        <ele>405</ele>
        <time>2016-04-07T14:11:09Z</time>
      </trkpt>
      <trkpt lat="46.19112" lon="2.44038">
        <ele>406</ele>
        <time>2016-04-07T14:11:13Z</time>
      </trkpt>
      <trkpt lat="46.19116" lon="2.44041">
        <ele>406</ele>
        <time>2016-04-07T14:11:16Z</time>
      </trkpt>
      <trkpt lat="46.1912" lon="2.44043">
        <ele>406</ele>
        <time>2016-04-07T14:11:19Z</time>
      </trkpt>
      <trkpt lat="46.19124" lon="2.44046">
        <ele>406</ele>
        <time>2016-04-07T14:11:22Z</time>
      </trkpt>
      <trkpt lat="46.19128" lon="2.44047">
        <ele>406</ele>
        <time>2016-04-07T14:11:25Z</time>
      </trkpt>
      <trkpt lat="46.19132" lon="2.44049">
        <ele>406</ele>
        <time>2016-04-07T14:11:28Z</time>
      </trkpt>
      <trkpt lat="46.19136" lon="2.44051">
        <ele>406</ele>
        <time>2016-04-07T14:11:31Z</time>
      </trkpt>
      <trkpt lat="46.1914" lon="2.44053">
        <ele>406</ele>
        <time>2016-04-07T14:11:34Z</time>
      </trkpt>
      <trkpt lat="46.19144" lon="2.44054">
        <ele>406</ele>
        <time>2016-04-07T14:11:37Z</time>
      </trkpt>
      <trkpt lat="46.19147" lon="2.44056">
        <ele>406</ele>
        <time>2016-04-07T14:11:40Z</time>
      </trkpt>
      <trkpt lat="46.19151" lon="2.44058">
        <ele>406</ele>
        <time>2016-04-07T14:11:43Z</time>
      </trkpt>
      <trkpt lat="46.19155" lon="2.4406">
        <ele>406</ele>
        <time>2016-04-07T14:11:46Z</time>
      </trkpt>
      <trkpt lat="46.1916" lon="2.44063">
        <ele>406</ele>
        <time>2016-04-07T14:11:50Z</time>
      </trkpt>
      <trkpt lat="46.19164" lon="2.44065">
        <ele>406</ele>
        <time>2016-04-07T14:11:53Z</time>
      </trkpt>
      <trkpt lat="46.19168" lon="2.44068">
        <ele>406</ele>
        <time>2016-04-07T14:11:56Z</time>
      </trkpt>
      <trkpt lat="46.19172" lon="2.4407">
        <ele>407</ele>
        <time>2016-04-07T14:11:59Z</time>
      </trkpt>
      <trkpt lat="46.19176" lon="2.44072">
        <ele>407</ele>
        <time>2016-04-07T14:12:02Z</time>
      </trkpt>
      <trkpt lat="46.1918" lon="2.44074">
        <ele>407</ele>
        <time>2016-04-07T14:12:05Z</time>
      </trkpt>
      <trkpt lat="46.19185" lon="2.44076">
        <ele>408</ele>
        <time>2016-04-07T14:12:09Z</time>
      </trkpt>
      <trkpt lat="46.19189" lon="2.4408">
        <ele>408</ele>
        <time>2016-04-07T14:12:13Z</time>
      </trkpt>
      <trkpt lat="46.19193" lon="2.44082">
        <ele>408</ele>
        <time>2016-04-07T14:12:16Z</time>
      </trkpt>
      <trkpt lat="46.19197" lon="2.44086">
        <ele>409</ele>
        <time>2016-04-07T14:12:19Z</time>
      </trkpt>
      <trkpt lat="46.19202" lon="2.44088">
        <ele>410</ele>
        <time>2016-04-07T14:12:22Z</time>
      </trkpt>
      <trkpt lat="46.19205" lon="2.44091">
        <ele>410</ele>
        <time>2016-04-07T14:12:25Z</time>
      </trkpt>
      <trkpt lat="46.19209" lon="2.44093">
        <ele>411</ele>
        <time>2016-04-07T14:12:28Z</time>
      </trkpt>
      <trkpt lat="46.19212" lon="2.44095">
        <ele>411</ele>
        <time>2016-04-07T14:12:31Z</time>
      </trkpt>
      <trkpt lat="46.19216" lon="2.44097">
        <ele>412</ele>
        <time>2016-04-07T14:12:34Z</time>
      </trkpt>
      <trkpt lat="46.19221" lon="2.441">
        <ele>412</ele>
        <time>2016-04-07T14:12:38Z</time>
      </trkpt>
      <trkpt lat="46.19225" lon="2.44101">
        <ele>412</ele>
        <time>2016-04-07T14:12:41Z</time>
      </trkpt>
      <trkpt lat="46.19228" lon="2.44104">
        <ele>412</ele>
        <time>2016-04-07T14:12:44Z</time>
      </trkpt>
      <trkpt lat="46.19233" lon="2.44106">
        <ele>413</ele>
        <time>2016-04-07T14:12:47Z</time>
      </trkpt>
      <trkpt lat="46.19236" lon="2.44107">
        <ele>413</ele>
        <time>2016-04-07T14:12:50Z</time>
      </trkpt>
      <trkpt lat="46.1924" lon="2.44109">
        <ele>414</ele>
        <time>2016-04-07T14:12:53Z</time>
      </trkpt>
      <trkpt lat="46.19244" lon="2.4411">
        <ele>414</ele>
        <time>2016-04-07T14:12:56Z</time>
      </trkpt>
      <trkpt lat="46.19248" lon="2.44113">
        <ele>414</ele>
        <time>2016-04-07T14:12:59Z</time>
      </trkpt>
      <trkpt lat="46.19252" lon="2.44115">
        <ele>414</ele>
        <time>2016-04-07T14:13:02Z</time>
      </trkpt>
      <trkpt lat="46.19256" lon="2.44117">
        <ele>414</ele>
        <time>2016-04-07T14:13:05Z</time>
      </trkpt>
      <trkpt lat="46.19259" lon="2.44118">
        <ele>414</ele>
        <time>2016-04-07T14:13:08Z</time>
      </trkpt>
      <trkpt lat="46.19263" lon="2.4412">
        <ele>414</ele>
        <time>2016-04-07T14:13:11Z</time>
      </trkpt>
      <trkpt lat="46.19267" lon="2.44121">
        <ele>414</ele>
        <time>2016-04-07T14:13:14Z</time>
      </trkpt>
      <trkpt lat="46.19271" lon="2.44125">
        <ele>414</ele>
        <time>2016-04-07T14:13:18Z</time>
      </trkpt>
      <trkpt lat="46.19274" lon="2.44129">
        <ele>414</ele>
        <time>2016-04-07T14:13:22Z</time>
      </trkpt>
      <trkpt lat="46.19277" lon="2.44131">
        <ele>414</ele>
        <time>2016-04-07T14:13:26Z</time>
      </trkpt>
      <trkpt lat="46.1928" lon="2.44135">
        <ele>413</ele>
        <time>2016-04-07T14:13:30Z</time>
      </trkpt>
      <trkpt lat="46.19282" lon="2.44138">
        <ele>410</ele>
        <time>2016-04-07T14:13:34Z</time>
      </trkpt>
      <trkpt lat="46.19286" lon="2.4414">
        <ele>408</ele>
        <time>2016-04-07T14:13:37Z</time>
      </trkpt>
      <trkpt lat="46.19291" lon="2.44143">
        <ele>408</ele>
        <time>2016-04-07T14:13:41Z</time>
      </trkpt>
      <trkpt lat="46.19299" lon="2.44144">
        <ele>408</ele>
        <time>2016-04-07T14:13:44Z</time>
      </trkpt>
      <trkpt lat="46.19304" lon="2.44145">
        <ele>409</ele>
        <time>2016-04-07T14:13:47Z</time>
      </trkpt>
      <trkpt lat="46.19309" lon="2.44147">
        <ele>411</ele>
        <time>2016-04-07T14:13:50Z</time>
      </trkpt>
      <trkpt lat="46.19313" lon="2.44149">
        <ele>412</ele>
        <time>2016-04-07T14:13:53Z</time>
      </trkpt>
      <trkpt lat="46.19317" lon="2.44152">
        <ele>412</ele>
        <time>2016-04-07T14:13:56Z</time>
      </trkpt>
      <trkpt lat="46.19321" lon="2.44153">
        <ele>413</ele>
        <time>2016-04-07T14:13:59Z</time>
      </trkpt>
      <trkpt lat="46.19325" lon="2.44156">
        <ele>414</ele>
        <time>2016-04-07T14:14:03Z</time>
      </trkpt>
      <trkpt lat="46.19329" lon="2.44158">
        <ele>414</ele>
        <time>2016-04-07T14:14:06Z</time>
      </trkpt>
      <trkpt lat="46.19333" lon="2.4416">
        <ele>415</ele>
        <time>2016-04-07T14:14:09Z</time>
      </trkpt>
      <trkpt lat="46.19337" lon="2.44162">
        <ele>415</ele>
        <time>2016-04-07T14:14:12Z</time>
      </trkpt>
      <trkpt lat="46.19341" lon="2.44164">
        <ele>415</ele>
        <time>2016-04-07T14:14:15Z</time>
      </trkpt>
      <trkpt lat="46.19345" lon="2.44168">
        <ele>415</ele>
        <time>2016-04-07T14:14:19Z</time>
      </trkpt>
      <trkpt lat="46.19349" lon="2.44169">
        <ele>415</ele>
        <time>2016-04-07T14:14:22Z</time>
      </trkpt>
      <trkpt lat="46.19352" lon="2.44171">
        <ele>415</ele>
        <time>2016-04-07T14:14:25Z</time>
      </trkpt>
      <trkpt lat="46.19355" lon="2.44173">
        <ele>415</ele>
        <time>2016-04-07T14:14:28Z</time>
      </trkpt>
      <trkpt lat="46.19359" lon="2.44174">
        <ele>416</ele>
        <time>2016-04-07T14:14:31Z</time>
      </trkpt>
      <trkpt lat="46.19363" lon="2.44177">
        <ele>416</ele>
        <time>2016-04-07T14:14:34Z</time>
      </trkpt>
      <trkpt lat="46.19366" lon="2.44178">
        <ele>417</ele>
        <time>2016-04-07T14:14:37Z</time>
      </trkpt>
      <trkpt lat="46.19369" lon="2.4418">
        <ele>418</ele>
        <time>2016-04-07T14:14:41Z</time>
      </trkpt>
      <trkpt lat="46.19373" lon="2.44182">
        <ele>419</ele>
        <time>2016-04-07T14:14:46Z</time>
      </trkpt>
      <trkpt lat="46.19376" lon="2.44184">
        <ele>419</ele>
        <time>2016-04-07T14:14:50Z</time>
      </trkpt>
      <trkpt lat="46.19379" lon="2.44186">
        <ele>419</ele>
        <time>2016-04-07T14:14:55Z</time>
      </trkpt>
      <trkpt lat="46.19382" lon="2.44188">
        <ele>420</ele>
        <time>2016-04-07T14:14:59Z</time>
      </trkpt>
      <trkpt lat="46.19386" lon="2.4419">
        <ele>420</ele>
        <time>2016-04-07T14:15:02Z</time>
      </trkpt>
      <trkpt lat="46.19389" lon="2.44192">
        <ele>420</ele>
        <time>2016-04-07T14:15:05Z</time>
      </trkpt>
      <trkpt lat="46.19392" lon="2.44194">
        <ele>420</ele>
        <time>2016-04-07T14:15:08Z</time>
      </trkpt>
      <trkpt lat="46.19396" lon="2.44196">
        <ele>421</ele>
        <time>2016-04-07T14:15:11Z</time>
      </trkpt>
      <trkpt lat="46.19399" lon="2.44198">
        <ele>421</ele>
        <time>2016-04-07T14:15:14Z</time>
      </trkpt>
      <trkpt lat="46.19403" lon="2.442">
        <ele>421</ele>
        <time>2016-04-07T14:15:17Z</time>
      </trkpt>
      <trkpt lat="46.19406" lon="2.44201">
        <ele>421</ele>
        <time>2016-04-07T14:15:20Z</time>
      </trkpt>
      <trkpt lat="46.1941" lon="2.44203">
        <ele>422</ele>
        <time>2016-04-07T14:15:23Z</time>
      </trkpt>
      <trkpt lat="46.19413" lon="2.44204">
        <ele>422</ele>
        <time>2016-04-07T14:15:26Z</time>
      </trkpt>
      <trkpt lat="46.19417" lon="2.44206">
        <ele>422</ele>
        <time>2016-04-07T14:15:29Z</time>
      </trkpt>
      <trkpt lat="46.1942" lon="2.44208">
        <ele>422</ele>
        <time>2016-04-07T14:15:32Z</time>
      </trkpt>
      <trkpt lat="46.19424" lon="2.4421">
        <ele>423</ele>
        <time>2016-04-07T14:15:35Z</time>
      </trkpt>
      <trkpt lat="46.19428" lon="2.44212">
        <ele>423</ele>
        <time>2016-04-07T14:15:38Z</time>
      </trkpt>
      <trkpt lat="46.19432" lon="2.44214">
        <ele>423</ele>
        <time>2016-04-07T14:15:41Z</time>
      </trkpt>
      <trkpt lat="46.19436" lon="2.44216">
        <ele>423</ele>
        <time>2016-04-07T14:15:44Z</time>
      </trkpt>
      <trkpt lat="46.1944" lon="2.44218">
        <ele>423</ele>
        <time>2016-04-07T14:15:47Z</time>
      </trkpt>
      <trkpt lat="46.19444" lon="2.44221">
        <ele>424</ele>
        <time>2016-04-07T14:15:50Z</time>
      </trkpt>
      <trkpt lat="46.19447" lon="2.44222">
        <ele>424</ele>
        <time>2016-04-07T14:15:53Z</time>
      </trkpt>
      <trkpt lat="46.19451" lon="2.44225">
        <ele>424</ele>
        <time>2016-04-07T14:15:56Z</time>
      </trkpt>
      <trkpt lat="46.19455" lon="2.44227">
        <ele>424</ele>
        <time>2016-04-07T14:15:59Z</time>
      </trkpt>
      <trkpt lat="46.1946" lon="2.44229">
        <ele>424</ele>
        <time>2016-04-07T14:16:02Z</time>
      </trkpt>
      <trkpt lat="46.19464" lon="2.44231">
        <ele>424</ele>
        <time>2016-04-07T14:16:05Z</time>
      </trkpt>
      <trkpt lat="46.19468" lon="2.44233">
        <ele>425</ele>
        <time>2016-04-07T14:16:08Z</time>
      </trkpt>
      <trkpt lat="46.19471" lon="2.44235">
        <ele>425</ele>
        <time>2016-04-07T14:16:11Z</time>
      </trkpt>
      <trkpt lat="46.19475" lon="2.44237">
        <ele>425</ele>
        <time>2016-04-07T14:16:14Z</time>
      </trkpt>
      <trkpt lat="46.19479" lon="2.44239">
        <ele>425</ele>
        <time>2016-04-07T14:16:17Z</time>
      </trkpt>
      <trkpt lat="46.19483" lon="2.44241">
        <ele>425</ele>
        <time>2016-04-07T14:16:20Z</time>
      </trkpt>
      <trkpt lat="46.19487" lon="2.44244">
        <ele>425</ele>
        <time>2016-04-07T14:16:23Z</time>
      </trkpt>
      <trkpt lat="46.19491" lon="2.44247">
        <ele>425</ele>
        <time>2016-04-07T14:16:27Z</time>
      </trkpt>
      <trkpt lat="46.19495" lon="2.44249">
        <ele>425</ele>
        <time>2016-04-07T14:16:30Z</time>
      </trkpt>
      <trkpt lat="46.19499" lon="2.44252">
        <ele>425</ele>
        <time>2016-04-07T14:16:33Z</time>
      </trkpt>
      <trkpt lat="46.19503" lon="2.44254">
        <ele>425</ele>
        <time>2016-04-07T14:16:36Z</time>
      </trkpt>
      <trkpt lat="46.19508" lon="2.44256">
        <ele>425</ele>
        <time>2016-04-07T14:16:39Z</time>
      </trkpt>
      <trkpt lat="46.19511" lon="2.44259">
        <ele>425</ele>
        <time>2016-04-07T14:16:42Z</time>
      </trkpt>
      <trkpt lat="46.19516" lon="2.44261">
        <ele>425</ele>
        <time>2016-04-07T14:16:45Z</time>
      </trkpt>
      <trkpt lat="46.19519" lon="2.44263">
        <ele>425</ele>
        <time>2016-04-07T14:16:48Z</time>
      </trkpt>
      <trkpt lat="46.19524" lon="2.44265">
        <ele>425</ele>
        <time>2016-04-07T14:16:51Z</time>
      </trkpt>
      <trkpt lat="46.19527" lon="2.44267">
        <ele>425</ele>
        <time>2016-04-07T14:16:54Z</time>
      </trkpt>
      <trkpt lat="46.19531" lon="2.4427">
        <ele>426</ele>
        <time>2016-04-07T14:16:57Z</time>
      </trkpt>
      <trkpt lat="46.19535" lon="2.44272">
        <ele>426</ele>
        <time>2016-04-07T14:17:00Z</time>
      </trkpt>
      <trkpt lat="46.1954" lon="2.44274">
        <ele>426</ele>
        <time>2016-04-07T14:17:03Z</time>
      </trkpt>
      <trkpt lat="46.19543" lon="2.44276">
        <ele>426</ele>
        <time>2016-04-07T14:17:06Z</time>
      </trkpt>
      <trkpt lat="46.19547" lon="2.44279">
        <ele>426</ele>
        <time>2016-04-07T14:17:09Z</time>
      </trkpt>
      <trkpt lat="46.19551" lon="2.44281">
        <ele>426</ele>
        <time>2016-04-07T14:17:12Z</time>
      </trkpt>
      <trkpt lat="46.19555" lon="2.44283">
        <ele>427</ele>
        <time>2016-04-07T14:17:15Z</time>
      </trkpt>
      <trkpt lat="46.19559" lon="2.44285">
        <ele>427</ele>
        <time>2016-04-07T14:17:18Z</time>
      </trkpt>
      <trkpt lat="46.19563" lon="2.44287">
        <ele>427</ele>
        <time>2016-04-07T14:17:21Z</time>
      </trkpt>
      <trkpt lat="46.19567" lon="2.44289">
        <ele>427</ele>
        <time>2016-04-07T14:17:24Z</time>
      </trkpt>
      <trkpt lat="46.19571" lon="2.44291">
        <ele>427</ele>
        <time>2016-04-07T14:17:27Z</time>
      </trkpt>
      <trkpt lat="46.19575" lon="2.44294">
        <ele>427</ele>
        <time>2016-04-07T14:17:30Z</time>
      </trkpt>
      <trkpt lat="46.19579" lon="2.44297">
        <ele>427</ele>
        <time>2016-04-07T14:17:34Z</time>
      </trkpt>
      <trkpt lat="46.19583" lon="2.44299">
        <ele>427</ele>
        <time>2016-04-07T14:17:37Z</time>
      </trkpt>
      <trkpt lat="46.19587" lon="2.44301">
        <ele>427</ele>
        <time>2016-04-07T14:17:40Z</time>
      </trkpt>
      <trkpt lat="46.19591" lon="2.44303">
        <ele>428</ele>
        <time>2016-04-07T14:17:43Z</time>
      </trkpt>
      <trkpt lat="46.19595" lon="2.44305">
        <ele>428</ele>
        <time>2016-04-07T14:17:46Z</time>
      </trkpt>
      <trkpt lat="46.19599" lon="2.44307">
        <ele>428</ele>
        <time>2016-04-07T14:17:49Z</time>
      </trkpt>
      <trkpt lat="46.19603" lon="2.44309">
        <ele>428</ele>
        <time>2016-04-07T14:17:52Z</time>
      </trkpt>
      <trkpt lat="46.19607" lon="2.44311">
        <ele>428</ele>
        <time>2016-04-07T14:17:55Z</time>
      </trkpt>
      <trkpt lat="46.19611" lon="2.44314">
        <ele>429</ele>
        <time>2016-04-07T14:17:58Z</time>
      </trkpt>
      <trkpt lat="46.19615" lon="2.44316">
        <ele>429</ele>
        <time>2016-04-07T14:18:01Z</time>
      </trkpt>
      <trkpt lat="46.19618" lon="2.44318">
        <ele>429</ele>
        <time>2016-04-07T14:18:04Z</time>
      </trkpt>
      <trkpt lat="46.19622" lon="2.4432">
        <ele>429</ele>
        <time>2016-04-07T14:18:07Z</time>
      </trkpt>
      <trkpt lat="46.19626" lon="2.44322">
        <ele>429</ele>
        <time>2016-04-07T14:18:10Z</time>
      </trkpt>
      <trkpt lat="46.1963" lon="2.44324">
        <ele>429</ele>
        <time>2016-04-07T14:18:13Z</time>
      </trkpt>
      <trkpt lat="46.19634" lon="2.44326">
        <ele>429</ele>
        <time>2016-04-07T14:18:16Z</time>
      </trkpt>
      <trkpt lat="46.19637" lon="2.44329">
        <ele>429</ele>
        <time>2016-04-07T14:18:19Z</time>
      </trkpt>
      <trkpt lat="46.19641" lon="2.44331">
        <ele>429</ele>
        <time>2016-04-07T14:18:22Z</time>
      </trkpt>
      <trkpt lat="46.19645" lon="2.44334">
        <ele>429</ele>
        <time>2016-04-07T14:18:25Z</time>
      </trkpt>
      <trkpt lat="46.19648" lon="2.44336">
        <ele>429</ele>
        <time>2016-04-07T14:18:28Z</time>
      </trkpt>
      <trkpt lat="46.19652" lon="2.44338">
        <ele>429</ele>
        <time>2016-04-07T14:18:31Z</time>
      </trkpt>
      <trkpt lat="46.19656" lon="2.44341">
        <ele>429</ele>
        <time>2016-04-07T14:18:34Z</time>
      </trkpt>
      <trkpt lat="46.1966" lon="2.44343">
        <ele>429</ele>
        <time>2016-04-07T14:18:37Z</time>
      </trkpt>
      <trkpt lat="46.19664" lon="2.44345">
        <ele>429</ele>
        <time>2016-04-07T14:18:40Z</time>
      </trkpt>
      <trkpt lat="46.19668" lon="2.44347">
        <ele>429</ele>
        <time>2016-04-07T14:18:43Z</time>
      </trkpt>
      <trkpt lat="46.19672" lon="2.44349">
        <ele>429</ele>
        <time>2016-04-07T14:18:46Z</time>
      </trkpt>
      <trkpt lat="46.19675" lon="2.44351">
        <ele>430</ele>
        <time>2016-04-07T14:18:49Z</time>
      </trkpt>
      <trkpt lat="46.1968" lon="2.44352">
        <ele>430</ele>
        <time>2016-04-07T14:18:52Z</time>
      </trkpt>
      <trkpt lat="46.19683" lon="2.44354">
        <ele>430</ele>
        <time>2016-04-07T14:18:55Z</time>
      </trkpt>
      <trkpt lat="46.19687" lon="2.44356">
        <ele>430</ele>
        <time>2016-04-07T14:18:58Z</time>
      </trkpt>
      <trkpt lat="46.19691" lon="2.44359">
        <ele>430</ele>
        <time>2016-04-07T14:19:01Z</time>
      </trkpt>
      <trkpt lat="46.19695" lon="2.44361">
        <ele>430</ele>
        <time>2016-04-07T14:19:04Z</time>
      </trkpt>
      <trkpt lat="46.19699" lon="2.44363">
        <ele>430</ele>
        <time>2016-04-07T14:19:07Z</time>
      </trkpt>
      <trkpt lat="46.19703" lon="2.44365">
        <ele>430</ele>
        <time>2016-04-07T14:19:10Z</time>
      </trkpt>
      <trkpt lat="46.19707" lon="2.44368">
        <ele>430</ele>
        <time>2016-04-07T14:19:13Z</time>
      </trkpt>
      <trkpt lat="46.19711" lon="2.4437">
        <ele>430</ele>
        <time>2016-04-07T14:19:16Z</time>
      </trkpt>
      <trkpt lat="46.19715" lon="2.44372">
        <ele>430</ele>
        <time>2016-04-07T14:19:19Z</time>
      </trkpt>
      <trkpt lat="46.19719" lon="2.44374">
        <ele>430</ele>
        <time>2016-04-07T14:19:22Z</time>
      </trkpt>
      <trkpt lat="46.19723" lon="2.44377">
        <ele>430</ele>
        <time>2016-04-07T14:19:25Z</time>
      </trkpt>
      <trkpt lat="46.19727" lon="2.44379">
        <ele>430</ele>
        <time>2016-04-07T14:19:28Z</time>
      </trkpt>
      <trkpt lat="46.19732" lon="2.44381">
        <ele>430</ele>
        <time>2016-04-07T14:19:31Z</time>
      </trkpt>
      <trkpt lat="46.19735" lon="2.44384">
        <ele>430</ele>
        <time>2016-04-07T14:19:34Z</time>
      </trkpt>
      <trkpt lat="46.19739" lon="2.44386">
        <ele>430</ele>
        <time>2016-04-07T14:19:37Z</time>
      </trkpt>
      <trkpt lat="46.19743" lon="2.44388">
        <ele>430</ele>
        <time>2016-04-07T14:19:40Z</time>
      </trkpt>
      <trkpt lat="46.19747" lon="2.44391">
        <ele>430</ele>
        <time>2016-04-07T14:19:43Z</time>
      </trkpt>
      <trkpt lat="46.19751" lon="2.44392">
        <ele>430</ele>
        <time>2016-04-07T14:19:46Z</time>
      </trkpt>
      <trkpt lat="46.19756" lon="2.44395">
        <ele>430</ele>
        <time>2016-04-07T14:19:49Z</time>
      </trkpt>
      <trkpt lat="46.1976" lon="2.44397">
        <ele>430</ele>
        <time>2016-04-07T14:19:52Z</time>
      </trkpt>
      <trkpt lat="46.19764" lon="2.44399">
        <ele>430</ele>
        <time>2016-04-07T14:19:55Z</time>
      </trkpt>
      <trkpt lat="46.19767" lon="2.44402">
        <ele>430</ele>
        <time>2016-04-07T14:19:58Z</time>
      </trkpt>
      <trkpt lat="46.19772" lon="2.44404">
        <ele>430</ele>
        <time>2016-04-07T14:20:01Z</time>
      </trkpt>
      <trkpt lat="46.19776" lon="2.44406">
        <ele>430</ele>
        <time>2016-04-07T14:20:04Z</time>
      </trkpt>
      <trkpt lat="46.19781" lon="2.44409">
        <ele>430</ele>
        <time>2016-04-07T14:20:08Z</time>
      </trkpt>
      <trkpt lat="46.19785" lon="2.44411">
        <ele>430</ele>
        <time>2016-04-07T14:20:11Z</time>
      </trkpt>
      <trkpt lat="46.19789" lon="2.44414">
        <ele>430</ele>
        <time>2016-04-07T14:20:14Z</time>
      </trkpt>
      <trkpt lat="46.19793" lon="2.44416">
        <ele>430</ele>
        <time>2016-04-07T14:20:17Z</time>
      </trkpt>
      <trkpt lat="46.19797" lon="2.44419">
        <ele>430</ele>
        <time>2016-04-07T14:20:20Z</time>
      </trkpt>
      <trkpt lat="46.19801" lon="2.44421">
        <ele>430</ele>
        <time>2016-04-07T14:20:23Z</time>
      </trkpt>
      <trkpt lat="46.19806" lon="2.44423">
        <ele>430</ele>
        <time>2016-04-07T14:20:26Z</time>
      </trkpt>
      <trkpt lat="46.1981" lon="2.44425">
        <ele>430</ele>
        <time>2016-04-07T14:20:29Z</time>
      </trkpt>
      <trkpt lat="46.19814" lon="2.44428">
        <ele>430</ele>
        <time>2016-04-07T14:20:32Z</time>
      </trkpt>
      <trkpt lat="46.19818" lon="2.44429">
        <ele>430</ele>
        <time>2016-04-07T14:20:35Z</time>
      </trkpt>
      <trkpt lat="46.19822" lon="2.44431">
        <ele>430</ele>
        <time>2016-04-07T14:20:38Z</time>
      </trkpt>
      <trkpt lat="46.19826" lon="2.44434">
        <ele>430</ele>
        <time>2016-04-07T14:20:41Z</time>
      </trkpt>
      <trkpt lat="46.1983" lon="2.44436">
        <ele>430</ele>
        <time>2016-04-07T14:20:44Z</time>
      </trkpt>
      <trkpt lat="46.19834" lon="2.44438">
        <ele>431</ele>
        <time>2016-04-07T14:20:47Z</time>
      </trkpt>
      <trkpt lat="46.19838" lon="2.4444">
        <ele>431</ele>
        <time>2016-04-07T14:20:50Z</time>
      </trkpt>
      <trkpt lat="46.19842" lon="2.44442">
        <ele>431</ele>
        <time>2016-04-07T14:20:53Z</time>
      </trkpt>
      <trkpt lat="46.19847" lon="2.44443">
        <ele>431</ele>
        <time>2016-04-07T14:20:56Z</time>
      </trkpt>
      <trkpt lat="46.19852" lon="2.44445">
        <ele>431</ele>
        <time>2016-04-07T14:20:59Z</time>
      </trkpt>
      <trkpt lat="46.19857" lon="2.44446">
        <ele>431</ele>
        <time>2016-04-07T14:21:02Z</time>
      </trkpt>
      <trkpt lat="46.19861" lon="2.44448">
        <ele>431</ele>
        <time>2016-04-07T14:21:05Z</time>
      </trkpt>
      <trkpt lat="46.19866" lon="2.4445">
        <ele>431</ele>
        <time>2016-04-07T14:21:08Z</time>
      </trkpt>
      <trkpt lat="46.1987" lon="2.44453">
        <ele>431</ele>
        <time>2016-04-07T14:21:11Z</time>
      </trkpt>
      <trkpt lat="46.19874" lon="2.44455">
        <ele>431</ele>
        <time>2016-04-07T14:21:14Z</time>
      </trkpt>
      <trkpt lat="46.19878" lon="2.44456">
        <ele>431</ele>
        <time>2016-04-07T14:21:17Z</time>
      </trkpt>
      <trkpt lat="46.19882" lon="2.44459">
        <ele>431</ele>
        <time>2016-04-07T14:21:20Z</time>
      </trkpt>
      <trkpt lat="46.19886" lon="2.44461">
        <ele>431</ele>
        <time>2016-04-07T14:21:23Z</time>
      </trkpt>
      <trkpt lat="46.1989" lon="2.44463">
        <ele>431</ele>
        <time>2016-04-07T14:21:26Z</time>
      </trkpt>
      <trkpt lat="46.19894" lon="2.44466">
        <ele>431</ele>
        <time>2016-04-07T14:21:29Z</time>
      </trkpt>
      <trkpt lat="46.19898" lon="2.44469">
        <ele>431</ele>
        <time>2016-04-07T14:21:32Z</time>
      </trkpt>
      <trkpt lat="46.19902" lon="2.44471">
        <ele>431</ele>
        <time>2016-04-07T14:21:35Z</time>
      </trkpt>
      <trkpt lat="46.19906" lon="2.44474">
        <ele>431</ele>
        <time>2016-04-07T14:21:38Z</time>
      </trkpt>
      <trkpt lat="46.19911" lon="2.44476">
        <ele>431</ele>
        <time>2016-04-07T14:21:41Z</time>
      </trkpt>
      <trkpt lat="46.19915" lon="2.44479">
        <ele>431</ele>
        <time>2016-04-07T14:21:44Z</time>
      </trkpt>
      <trkpt lat="46.19918" lon="2.44481">
        <ele>431</ele>
        <time>2016-04-07T14:21:47Z</time>
      </trkpt>
      <trkpt lat="46.19923" lon="2.44484">
        <ele>431</ele>
        <time>2016-04-07T14:21:50Z</time>
      </trkpt>
      <trkpt lat="46.19927" lon="2.44486">
        <ele>431</ele>
        <time>2016-04-07T14:21:53Z</time>
      </trkpt>
      <trkpt lat="46.19931" lon="2.44489">
        <ele>431</ele>
        <time>2016-04-07T14:21:56Z</time>
      </trkpt>
      <trkpt lat="46.19935" lon="2.44491">
        <ele>431</ele>
        <time>2016-04-07T14:21:59Z</time>
      </trkpt>
      <trkpt lat="46.1994" lon="2.44493">
        <ele>431</ele>
        <time>2016-04-07T14:22:02Z</time>
      </trkpt>
      <trkpt lat="46.19944" lon="2.44497">
        <ele>431</ele>
        <time>2016-04-07T14:22:05Z</time>
      </trkpt>
      <trkpt lat="46.19947" lon="2.445">
        <ele>431</ele>
        <time>2016-04-07T14:22:08Z</time>
      </trkpt>
      <trkpt lat="46.19951" lon="2.44502">
        <ele>431</ele>
        <time>2016-04-07T14:22:11Z</time>
      </trkpt>
      <trkpt lat="46.19955" lon="2.44505">
        <ele>431</ele>
        <time>2016-04-07T14:22:14Z</time>
      </trkpt>
      <trkpt lat="46.19959" lon="2.44507">
        <ele>431</ele>
        <time>2016-04-07T14:22:17Z</time>
      </trkpt>
      <trkpt lat="46.19963" lon="2.44509">
        <ele>431</ele>
        <time>2016-04-07T14:22:20Z</time>
      </trkpt>
      <trkpt lat="46.19967" lon="2.44511">
        <ele>431</ele>
        <time>2016-04-07T14:22:23Z</time>
      </trkpt>
      <trkpt lat="46.19971" lon="2.44514">
        <ele>431</ele>
        <time>2016-04-07T14:22:26Z</time>
      </trkpt>
      <trkpt lat="46.19975" lon="2.44516">
        <ele>431</ele>
        <time>2016-04-07T14:22:29Z</time>
      </trkpt>
      <trkpt lat="46.1998" lon="2.44519">
        <ele>431</ele>
        <time>2016-04-07T14:22:32Z</time>
      </trkpt>
      <trkpt lat="46.19984" lon="2.44521">
        <ele>431</ele>
        <time>2016-04-07T14:22:35Z</time>
      </trkpt>
      <trkpt lat="46.19988" lon="2.44523">
        <ele>431</ele>
        <time>2016-04-07T14:22:38Z</time>
      </trkpt>
      <trkpt lat="46.19992" lon="2.44526">
        <ele>431</ele>
        <time>2016-04-07T14:22:41Z</time>
      </trkpt>
      <trkpt lat="46.19996" lon="2.44528">
        <ele>431</ele>
        <time>2016-04-07T14:22:44Z</time>
      </trkpt>
      <trkpt lat="46.2" lon="2.4453">
        <ele>431</ele>
        <time>2016-04-07T14:22:47Z</time>
      </trkpt>
      <trkpt lat="46.20004" lon="2.44531">
        <ele>431</ele>
        <time>2016-04-07T14:22:50Z</time>
      </trkpt>
      <trkpt lat="46.20008" lon="2.44534">
        <ele>431</ele>
        <time>2016-04-07T14:22:53Z</time>
      </trkpt>
      <trkpt lat="46.20012" lon="2.44536">
        <ele>431</ele>
        <time>2016-04-07T14:22:56Z</time>
      </trkpt>
      <trkpt lat="46.20016" lon="2.44537">
        <ele>431</ele>
        <time>2016-04-07T14:22:59Z</time>
      </trkpt>
      <trkpt lat="46.2002" lon="2.4454">
        <ele>431</ele>
        <time>2016-04-07T14:23:02Z</time>
      </trkpt>
      <trkpt lat="46.20024" lon="2.44543">
        <ele>432</ele>
        <time>2016-04-07T14:23:05Z</time>
      </trkpt>
      <trkpt lat="46.20028" lon="2.44544">
        <ele>432</ele>
        <time>2016-04-07T14:23:08Z</time>
      </trkpt>
      <trkpt lat="46.20033" lon="2.44547">
        <ele>432</ele>
        <time>2016-04-07T14:23:11Z</time>
      </trkpt>
      <trkpt lat="46.20036" lon="2.4455">
        <ele>432</ele>
        <time>2016-04-07T14:23:14Z</time>
      </trkpt>
      <trkpt lat="46.20041" lon="2.44552">
        <ele>432</ele>
        <time>2016-04-07T14:23:17Z</time>
      </trkpt>
      <trkpt lat="46.20044" lon="2.44555">
        <ele>432</ele>
        <time>2016-04-07T14:23:20Z</time>
      </trkpt>
      <trkpt lat="46.20049" lon="2.44557">
        <ele>432</ele>
        <time>2016-04-07T14:23:23Z</time>
      </trkpt>
      <trkpt lat="46.20053" lon="2.4456">
        <ele>432</ele>
        <time>2016-04-07T14:23:26Z</time>
      </trkpt>
      <trkpt lat="46.20057" lon="2.44562">
        <ele>432</ele>
        <time>2016-04-07T14:23:29Z</time>
      </trkpt>
      <trkpt lat="46.20061" lon="2.44564">
        <ele>432</ele>
        <time>2016-04-07T14:23:32Z</time>
      </trkpt>
      <trkpt lat="46.20065" lon="2.44566">
        <ele>432</ele>
        <time>2016-04-07T14:23:35Z</time>
      </trkpt>
      <trkpt lat="46.20069" lon="2.44569">
        <ele>432</ele>
        <time>2016-04-07T14:23:38Z</time>
      </trkpt>
      <trkpt lat="46.20073" lon="2.44572">
        <ele>432</ele>
        <time>2016-04-07T14:23:41Z</time>
      </trkpt>
      <trkpt lat="46.20077" lon="2.44574">
        <ele>432</ele>
        <time>2016-04-07T14:23:44Z</time>
      </trkpt>
      <trkpt lat="46.20081" lon="2.44576">
        <ele>432</ele>
        <time>2016-04-07T14:23:47Z</time>
      </trkpt>
      <trkpt lat="46.20085" lon="2.44579">
        <ele>432</ele>
        <time>2016-04-07T14:23:50Z</time>
      </trkpt>
      <trkpt lat="46.20089" lon="2.44581">
        <ele>432</ele>
        <time>2016-04-07T14:23:53Z</time>
      </trkpt>
      <trkpt lat="46.20093" lon="2.44584">
        <ele>432</ele>
        <time>2016-04-07T14:23:56Z</time>
      </trkpt>
      <trkpt lat="46.20097" lon="2.44586">
        <ele>432</ele>
        <time>2016-04-07T14:23:59Z</time>
      </trkpt>
      <trkpt lat="46.20101" lon="2.44589">
        <ele>432</ele>
        <time>2016-04-07T14:24:02Z</time>
      </trkpt>
      <trkpt lat="46.20105" lon="2.44591">
        <ele>432</ele>
        <time>2016-04-07T14:24:05Z</time>
      </trkpt>
      <trkpt lat="46.20109" lon="2.44594">
        <ele>432</ele>
        <time>2016-04-07T14:24:08Z</time>
      </trkpt>
      <trkpt lat="46.20113" lon="2.44596">
        <ele>432</ele>
        <time>2016-04-07T14:24:11Z</time>
      </trkpt>
      <trkpt lat="46.20117" lon="2.44598">
        <ele>432</ele>
        <time>2016-04-07T14:24:14Z</time>
      </trkpt>
      <trkpt lat="46.20121" lon="2.44601">
        <ele>432</ele>
        <time>2016-04-07T14:24:17Z</time>
      </trkpt>
      <trkpt lat="46.20125" lon="2.44603">
        <ele>432</ele>
        <time>2016-04-07T14:24:20Z</time>
      </trkpt>
      <trkpt lat="46.20129" lon="2.44606">
        <ele>432</ele>
        <time>2016-04-07T14:24:23Z</time>
      </trkpt>
      <trkpt lat="46.20132" lon="2.44608">
        <ele>432</ele>
        <time>2016-04-07T14:24:26Z</time>
      </trkpt>
      <trkpt lat="46.20137" lon="2.44611">
        <ele>432</ele>
        <time>2016-04-07T14:24:29Z</time>
      </trkpt>
      <trkpt lat="46.20141" lon="2.44613">
        <ele>432</ele>
        <time>2016-04-07T14:24:32Z</time>
      </trkpt>
      <trkpt lat="46.20145" lon="2.44615">
        <ele>432</ele>
        <time>2016-04-07T14:24:35Z</time>
      </trkpt>
      <trkpt lat="46.20148" lon="2.44618">
        <ele>432</ele>
        <time>2016-04-07T14:24:38Z</time>
      </trkpt>
      <trkpt lat="46.20153" lon="2.44619">
        <ele>432</ele>
        <time>2016-04-07T14:24:41Z</time>
      </trkpt>
      <trkpt lat="46.20157" lon="2.44618">
        <ele>432</ele>
        <time>2016-04-07T14:24:44Z</time>
      </trkpt>
      <trkpt lat="46.2016" lon="2.44615">
        <ele>432</ele>
        <time>2016-04-07T14:24:47Z</time>
      </trkpt>
      <trkpt lat="46.20163" lon="2.44609">
        <ele>432</ele>
        <time>2016-04-07T14:24:50Z</time>
      </trkpt>
      <trkpt lat="46.20165" lon="2.44603">
        <ele>432</ele>
        <time>2016-04-07T14:24:53Z</time>
      </trkpt>
      <trkpt lat="46.20168" lon="2.44598">
        <ele>432</ele>
        <time>2016-04-07T14:24:56Z</time>
      </trkpt>
      <trkpt lat="46.2017" lon="2.44593">
        <ele>432</ele>
        <time>2016-04-07T14:24:59Z</time>
      </trkpt>
      <trkpt lat="46.20173" lon="2.44588">
        <ele>432</ele>
        <time>2016-04-07T14:25:02Z</time>
      </trkpt>
      <trkpt lat="46.20175" lon="2.44583">
        <ele>432</ele>
        <time>2016-04-07T14:25:05Z</time>
      </trkpt>
      <trkpt lat="46.20178" lon="2.44578">
        <ele>432</ele>
        <time>2016-04-07T14:25:08Z</time>
      </trkpt>
      <trkpt lat="46.2018" lon="2.44572">
        <ele>432</ele>
        <time>2016-04-07T14:25:11Z</time>
      </trkpt>
      <trkpt lat="46.20183" lon="2.44567">
        <ele>432</ele>
        <time>2016-04-07T14:25:14Z</time>
      </trkpt>
      <trkpt lat="46.20185" lon="2.44562">
        <ele>432</ele>
        <time>2016-04-07T14:25:17Z</time>
      </trkpt>
      <trkpt lat="46.20188" lon="2.44557">
        <ele>432</ele>
        <time>2016-04-07T14:25:20Z</time>
      </trkpt>
      <trkpt lat="46.2019" lon="2.44552">
        <ele>432</ele>
        <time>2016-04-07T14:25:23Z</time>
      </trkpt>
      <trkpt lat="46.20193" lon="2.44547">
        <ele>432</ele>
        <time>2016-04-07T14:25:26Z</time>
      </trkpt>
      <trkpt lat="46.20195" lon="2.44542">
        <ele>432</ele>
        <time>2016-04-07T14:25:29Z</time>
      </trkpt>
      <trkpt lat="46.20198" lon="2.44536">
        <ele>432</ele>
        <time>2016-04-07T14:25:32Z</time>
      </trkpt>
      <trkpt lat="46.20201" lon="2.44531">
        <ele>432</ele>
        <time>2016-04-07T14:25:35Z</time>
      </trkpt>
      <trkpt lat="46.20203" lon="2.44526">
        <ele>432</ele>
        <time>2016-04-07T14:25:38Z</time>
      </trkpt>
      <trkpt lat="46.20206" lon="2.44521">
        <ele>432</ele>
        <time>2016-04-07T14:25:41Z</time>
      </trkpt>
      <trkpt lat="46.20208" lon="2.44515">
        <ele>432</ele>
        <time>2016-04-07T14:25:44Z</time>
      </trkpt>
      <trkpt lat="46.20211" lon="2.4451">
        <ele>432</ele>
        <time>2016-04-07T14:25:47Z</time>
      </trkpt>
      <trkpt lat="46.20213" lon="2.44504">
        <ele>432</ele>
        <time>2016-04-07T14:25:50Z</time>
      </trkpt>
      <trkpt lat="46.20216" lon="2.44499">
        <ele>432</ele>
        <time>2016-04-07T14:25:53Z</time>
      </trkpt>
      <trkpt lat="46.20219" lon="2.44494">
        <ele>432</ele>
        <time>2016-04-07T14:25:56Z</time>
      </trkpt>
      <trkpt lat="46.20222" lon="2.44489">
        <ele>432</ele>
        <time>2016-04-07T14:25:59Z</time>
      </trkpt>
      <trkpt lat="46.20224" lon="2.44484">
        <ele>432</ele>
        <time>2016-04-07T14:26:02Z</time>
      </trkpt>
      <trkpt lat="46.20227" lon="2.44479">
        <ele>432</ele>
        <time>2016-04-07T14:26:05Z</time>
      </trkpt>
      <trkpt lat="46.20229" lon="2.44474">
        <ele>432</ele>
        <time>2016-04-07T14:26:08Z</time>
      </trkpt>
      <trkpt lat="46.20231" lon="2.44468">
        <ele>432</ele>
        <time>2016-04-07T14:26:11Z</time>
      </trkpt>
      <trkpt lat="46.20234" lon="2.44463">
        <ele>432</ele>
        <time>2016-04-07T14:26:14Z</time>
      </trkpt>
      <trkpt lat="46.20236" lon="2.44459">
        <ele>432</ele>
        <time>2016-04-07T14:26:17Z</time>
      </trkpt>
      <trkpt lat="46.20238" lon="2.44453">
        <ele>432</ele>
        <time>2016-04-07T14:26:20Z</time>
      </trkpt>
      <trkpt lat="46.20241" lon="2.44448">
        <ele>432</ele>
        <time>2016-04-07T14:26:23Z</time>
      </trkpt>
      <trkpt lat="46.20243" lon="2.44443">
        <ele>432</ele>
        <time>2016-04-07T14:26:26Z</time>
      </trkpt>
      <trkpt lat="46.20245" lon="2.44438">
        <ele>432</ele>
        <time>2016-04-07T14:26:29Z</time>
      </trkpt>
      <trkpt lat="46.20247" lon="2.44432">
        <ele>432</ele>
        <time>2016-04-07T14:26:32Z</time>
      </trkpt>
      <trkpt lat="46.2025" lon="2.44427">
        <ele>432</ele>
        <time>2016-04-07T14:26:35Z</time>
      </trkpt>
      <trkpt lat="46.20252" lon="2.44421">
        <ele>432</ele>
        <time>2016-04-07T14:26:38Z</time>
      </trkpt>
      <trkpt lat="46.20254" lon="2.44415">
        <ele>432</ele>
        <time>2016-04-07T14:26:41Z</time>
      </trkpt>
      <trkpt lat="46.20256" lon="2.4441">
        <ele>432</ele>
        <time>2016-04-07T14:26:44Z</time>
      </trkpt>
      <trkpt lat="46.20258" lon="2.44404">
        <ele>432</ele>
        <time>2016-04-07T14:26:47Z</time>
      </trkpt>
      <trkpt lat="46.2026" lon="2.44398">
        <ele>432</ele>
        <time>2016-04-07T14:26:50Z</time>
      </trkpt>
      <trkpt lat="46.20263" lon="2.44392">
        <ele>432</ele>
        <time>2016-04-07T14:26:53Z</time>
      </trkpt>
      <trkpt lat="46.20264" lon="2.44386">
        <ele>432</ele>
        <time>2016-04-07T14:26:56Z</time>
      </trkpt>
      <trkpt lat="46.20267" lon="2.4438">
        <ele>432</ele>
        <time>2016-04-07T14:26:59Z</time>
      </trkpt>
      <trkpt lat="46.20269" lon="2.44374">
        <ele>432</ele>
        <time>2016-04-07T14:27:02Z</time>
      </trkpt>
      <trkpt lat="46.20271" lon="2.44369">
        <ele>432</ele>
        <time>2016-04-07T14:27:05Z</time>
      </trkpt>
      <trkpt lat="46.20272" lon="2.44363">
        <ele>432</ele>
        <time>2016-04-07T14:27:08Z</time>
      </trkpt>
      <trkpt lat="46.20274" lon="2.44357">
        <ele>432</ele>
        <time>2016-04-07T14:27:11Z</time>
      </trkpt>
      <trkpt lat="46.20276" lon="2.44352">
        <ele>432</ele>
        <time>2016-04-07T14:27:14Z</time>
      </trkpt>
      <trkpt lat="46.20278" lon="2.44346">
        <ele>432</ele>
        <time>2016-04-07T14:27:17Z</time>
      </trkpt>
      <trkpt lat="46.2028" lon="2.4434">
        <ele>432</ele>
        <time>2016-04-07T14:27:20Z</time>
      </trkpt>
      <trkpt lat="46.20282" lon="2.44335">
        <ele>432</ele>
        <time>2016-04-07T14:27:23Z</time>
      </trkpt>
      <trkpt lat="46.20284" lon="2.44329">
        <ele>432</ele>
        <time>2016-04-07T14:27:26Z</time>
      </trkpt>
      <trkpt lat="46.20286" lon="2.44322">
        <ele>432</ele>
        <time>2016-04-07T14:27:29Z</time>
      </trkpt>
      <trkpt lat="46.20288" lon="2.44317">
        <ele>432</ele>
        <time>2016-04-07T14:27:32Z</time>
      </trkpt>
      <trkpt lat="46.20289" lon="2.44311">
        <ele>432</ele>
        <time>2016-04-07T14:27:35Z</time>
      </trkpt>
      <trkpt lat="46.20291" lon="2.44305">
        <ele>432</ele>
        <time>2016-04-07T14:27:38Z</time>
      </trkpt>
      <trkpt lat="46.20293" lon="2.44299">
        <ele>432</ele>
        <time>2016-04-07T14:27:41Z</time>
      </trkpt>
      <trkpt lat="46.20294" lon="2.44292">
        <ele>432</ele>
        <time>2016-04-07T14:27:44Z</time>
      </trkpt>
      <trkpt lat="46.20296" lon="2.44286">
        <ele>432</ele>
        <time>2016-04-07T14:27:47Z</time>
      </trkpt>
      <trkpt lat="46.20297" lon="2.4428">
        <ele>432</ele>
        <time>2016-04-07T14:27:50Z</time>
      </trkpt>
      <trkpt lat="46.20299" lon="2.44274">
        <ele>432</ele>
        <time>2016-04-07T14:27:53Z</time>
      </trkpt>
      <trkpt lat="46.203" lon="2.44268">
        <ele>432</ele>
        <time>2016-04-07T14:27:56Z</time>
      </trkpt>
      <trkpt lat="46.20301" lon="2.44262">
        <ele>432</ele>
        <time>2016-04-07T14:27:59Z</time>
      </trkpt>
      <trkpt lat="46.20303" lon="2.44256">
        <ele>432</ele>
        <time>2016-04-07T14:28:02Z</time>
      </trkpt>
      <trkpt lat="46.20304" lon="2.4425">
        <ele>432</ele>
        <time>2016-04-07T14:28:05Z</time>
      </trkpt>
      <trkpt lat="46.20305" lon="2.44244">
        <ele>432</ele>
        <time>2016-04-07T14:28:08Z</time>
      </trkpt>
      <trkpt lat="46.20306" lon="2.44237">
        <ele>432</ele>
        <time>2016-04-07T14:28:11Z</time>
      </trkpt>
      <trkpt lat="46.20307" lon="2.44231">
        <ele>432</ele>
        <time>2016-04-07T14:28:14Z</time>
      </trkpt>
      <trkpt lat="46.20308" lon="2.44225">
        <ele>432</ele>
        <time>2016-04-07T14:28:17Z</time>
      </trkpt>
      <trkpt lat="46.20309" lon="2.44219">
        <ele>432</ele>
        <time>2016-04-07T14:28:20Z</time>
      </trkpt>
      <trkpt lat="46.2031" lon="2.44213">
        <ele>432</ele>
        <time>2016-04-07T14:28:23Z</time>
      </trkpt>
      <trkpt lat="46.20311" lon="2.44207">
        <ele>432</ele>
        <time>2016-04-07T14:28:26Z</time>
      </trkpt>
      <trkpt lat="46.20313" lon="2.44201">
        <ele>432</ele>
        <time>2016-04-07T14:28:29Z</time>
      </trkpt>
      <trkpt lat="46.20313" lon="2.44195">
        <ele>432</ele>
        <time>2016-04-07T14:28:32Z</time>
      </trkpt>
      <trkpt lat="46.20314" lon="2.44189">
        <ele>432</ele>
        <time>2016-04-07T14:28:35Z</time>
      </trkpt>
      <trkpt lat="46.20315" lon="2.44183">
        <ele>432</ele>
        <time>2016-04-07T14:28:38Z</time>
      </trkpt>
      <trkpt lat="46.20316" lon="2.44177">
        <ele>432</ele>
        <time>2016-04-07T14:28:41Z</time>
      </trkpt>
      <trkpt lat="46.20316" lon="2.44171">
        <ele>432</ele>
        <time>2016-04-07T14:28:44Z</time>
      </trkpt>
      <trkpt lat="46.20317" lon="2.44165">
        <ele>432</ele>
        <time>2016-04-07T14:28:47Z</time>
      </trkpt>
      <trkpt lat="46.20318" lon="2.44159">
        <ele>432</ele>
        <time>2016-04-07T14:28:50Z</time>
      </trkpt>
      <trkpt lat="46.20319" lon="2.44153">
        <ele>432</ele>
        <time>2016-04-07T14:28:53Z</time>
      </trkpt>
      <trkpt lat="46.2032" lon="2.44147">
        <ele>432</ele>
        <time>2016-04-07T14:28:56Z</time>
      </trkpt>
      <trkpt lat="46.20321" lon="2.44141">
        <ele>432</ele>
        <time>2016-04-07T14:28:59Z</time>
      </trkpt>
      <trkpt lat="46.20322" lon="2.44135">
        <ele>432</ele>
        <time>2016-04-07T14:29:02Z</time>
      </trkpt>
      <trkpt lat="46.20323" lon="2.44129">
        <ele>432</ele>
        <time>2016-04-07T14:29:05Z</time>
      </trkpt>
      <trkpt lat="46.20324" lon="2.44123">
        <ele>432</ele>
        <time>2016-04-07T14:29:08Z</time>
      </trkpt>
      <trkpt lat="46.20325" lon="2.44117">
        <ele>432</ele>
        <time>2016-04-07T14:29:11Z</time>
      </trkpt>
      <trkpt lat="46.20326" lon="2.44111">
        <ele>432</ele>
        <time>2016-04-07T14:29:14Z</time>
      </trkpt>
      <trkpt lat="46.20327" lon="2.44105">
        <ele>432</ele>
        <time>2016-04-07T14:29:17Z</time>
      </trkpt>
      <trkpt lat="46.20328" lon="2.44099">
        <ele>432</ele>
        <time>2016-04-07T14:29:20Z</time>
      </trkpt>
      <trkpt lat="46.20329" lon="2.44093">
        <ele>432</ele>
        <time>2016-04-07T14:29:23Z</time>
      </trkpt>
      <trkpt lat="46.2033" lon="2.44087">
        <ele>432</ele>
        <time>2016-04-07T14:29:26Z</time>
      </trkpt>
      <trkpt lat="46.20331" lon="2.4408">
        <ele>432</ele>
        <time>2016-04-07T14:29:29Z</time>
      </trkpt>
      <trkpt lat="46.20332" lon="2.44075">
        <ele>432</ele>
        <time>2016-04-07T14:29:32Z</time>
      </trkpt>
      <trkpt lat="46.20333" lon="2.44069">
        <ele>432</ele>
        <time>2016-04-07T14:29:35Z</time>
      </trkpt>
      <trkpt lat="46.20334" lon="2.44062">
        <ele>432</ele>
        <time>2016-04-07T14:29:38Z</time>
      </trkpt>
      <trkpt lat="46.20335" lon="2.44057">
        <ele>432</ele>
        <time>2016-04-07T14:29:41Z</time>
      </trkpt>
      <trkpt lat="46.20336" lon="2.44051">
        <ele>432</ele>
        <time>2016-04-07T14:29:44Z</time>
      </trkpt>
      <trkpt lat="46.20337" lon="2.44044">
        <ele>432</ele>
        <time>2016-04-07T14:29:47Z</time>
      </trkpt>
      <trkpt lat="46.20338" lon="2.44038">
        <ele>432</ele>
        <time>2016-04-07T14:29:50Z</time>
      </trkpt>
      <trkpt lat="46.20339" lon="2.44032">
        <ele>432</ele>
        <time>2016-04-07T14:29:53Z</time>
      </trkpt>
      <trkpt lat="46.2034" lon="2.44026">
        <ele>432</ele>
        <time>2016-04-07T14:29:56Z</time>
      </trkpt>
      <trkpt lat="46.20341" lon="2.4402">
        <ele>432</ele>
        <time>2016-04-07T14:29:59Z</time>
      </trkpt>
      <trkpt lat="46.20342" lon="2.44015">
        <ele>432</ele>
        <time>2016-04-07T14:30:02Z</time>
      </trkpt>
      <trkpt lat="46.20343" lon="2.44009">
        <ele>432</ele>
        <time>2016-04-07T14:30:05Z</time>
      </trkpt>
      <trkpt lat="46.20343" lon="2.44003">
        <ele>432</ele>
        <time>2016-04-07T14:30:08Z</time>
      </trkpt>
      <trkpt lat="46.20345" lon="2.43997">
        <ele>432</ele>
        <time>2016-04-07T14:30:11Z</time>
      </trkpt>
      <trkpt lat="46.20346" lon="2.43991">
        <ele>432</ele>
        <time>2016-04-07T14:30:14Z</time>
      </trkpt>
      <trkpt lat="46.20347" lon="2.43985">
        <ele>432</ele>
        <time>2016-04-07T14:30:17Z</time>
      </trkpt>
      <trkpt lat="46.20348" lon="2.43979">
        <ele>432</ele>
        <time>2016-04-07T14:30:20Z</time>
      </trkpt>
      <trkpt lat="46.20348" lon="2.43973">
        <ele>432</ele>
        <time>2016-04-07T14:30:23Z</time>
      </trkpt>
      <trkpt lat="46.2035" lon="2.43967">
        <ele>432</ele>
        <time>2016-04-07T14:30:26Z</time>
      </trkpt>
      <trkpt lat="46.20351" lon="2.43961">
        <ele>432</ele>
        <time>2016-04-07T14:30:29Z</time>
      </trkpt>
      <trkpt lat="46.20351" lon="2.43955">
        <ele>432</ele>
        <time>2016-04-07T14:30:32Z</time>
      </trkpt>
      <trkpt lat="46.20352" lon="2.43949">
        <ele>432</ele>
        <time>2016-04-07T14:30:35Z</time>
      </trkpt>
      <trkpt lat="46.20353" lon="2.43943">
        <ele>432</ele>
        <time>2016-04-07T14:30:38Z</time>
      </trkpt>
      <trkpt lat="46.20354" lon="2.43937">
        <ele>432</ele>
        <time>2016-04-07T14:30:41Z</time>
      </trkpt>
      <trkpt lat="46.20355" lon="2.43931">
        <ele>432</ele>
        <time>2016-04-07T14:30:44Z</time>
      </trkpt>
      <trkpt lat="46.20356" lon="2.43925">
        <ele>432</ele>
        <time>2016-04-07T14:30:47Z</time>
      </trkpt>
      <trkpt lat="46.20357" lon="2.4392">
        <ele>432</ele>
        <time>2016-04-07T14:30:50Z</time>
      </trkpt>
      <trkpt lat="46.20358" lon="2.43915">
        <ele>432</ele>
        <time>2016-04-07T14:30:53Z</time>
      </trkpt>
      <trkpt lat="46.20359" lon="2.43909">
        <ele>432</ele>
        <time>2016-04-07T14:30:56Z</time>
      </trkpt>
      <trkpt lat="46.2036" lon="2.43904">
        <ele>432</ele>
        <time>2016-04-07T14:30:59Z</time>
      </trkpt>
      <trkpt lat="46.20361" lon="2.43899">
        <ele>432</ele>
        <time>2016-04-07T14:31:02Z</time>
      </trkpt>
      <trkpt lat="46.20361" lon="2.43893">
        <ele>432</ele>
        <time>2016-04-07T14:31:05Z</time>
      </trkpt>
      <trkpt lat="46.20362" lon="2.43888">
        <ele>432</ele>
        <time>2016-04-07T14:31:08Z</time>
      </trkpt>
      <trkpt lat="46.20363" lon="2.43883">
        <ele>432</ele>
        <time>2016-04-07T14:31:11Z</time>
      </trkpt>
      <trkpt lat="46.20364" lon="2.43878">
        <ele>432</ele>
        <time>2016-04-07T14:31:14Z</time>
      </trkpt>
      <trkpt lat="46.20365" lon="2.43872">
        <ele>432</ele>
        <time>2016-04-07T14:31:17Z</time>
      </trkpt>
      <trkpt lat="46.20366" lon="2.43866">
        <ele>432</ele>
        <time>2016-04-07T14:31:20Z</time>
      </trkpt>
      <trkpt lat="46.20367" lon="2.43861">
        <ele>432</ele>
        <time>2016-04-07T14:31:23Z</time>
      </trkpt>
      <trkpt lat="46.20367" lon="2.43855">
        <ele>432</ele>
        <time>2016-04-07T14:31:26Z</time>
      </trkpt>
      <trkpt lat="46.20367" lon="2.4385">
        <ele>432</ele>
        <time>2016-04-07T14:31:29Z</time>
      </trkpt>
      <trkpt lat="46.20366" lon="2.43844">
        <ele>432</ele>
        <time>2016-04-07T14:31:32Z</time>
      </trkpt>
      <trkpt lat="46.20366" lon="2.43839">
        <ele>432</ele>
        <time>2016-04-07T14:31:35Z</time>
      </trkpt>
      <trkpt lat="46.20364" lon="2.43833">
        <ele>432</ele>
        <time>2016-04-07T14:31:38Z</time>
      </trkpt>
      <trkpt lat="46.20364" lon="2.43828">
        <ele>432</ele>
        <time>2016-04-07T14:31:41Z</time>
      </trkpt>
      <trkpt lat="46.20364" lon="2.43823">
        <ele>432</ele>
        <time>2016-04-07T14:31:44Z</time>
      </trkpt>
      <trkpt lat="46.20364" lon="2.43818">
        <ele>432</ele>
        <time>2016-04-07T14:31:47Z</time>
      </trkpt>
      <trkpt lat="46.20364" lon="2.43812">
        <ele>432</ele>
        <time>2016-04-07T14:31:50Z</time>
      </trkpt>
      <trkpt lat="46.20363" lon="2.43806">
        <ele>432</ele>
        <time>2016-04-07T14:31:53Z</time>
      </trkpt>
      <trkpt lat="46.20364" lon="2.438">
        <ele>432</ele>
        <time>2016-04-07T14:31:56Z</time>
      </trkpt>
      <trkpt lat="46.20364" lon="2.43795">
        <ele>432</ele>
        <time>2016-04-07T14:31:59Z</time>
      </trkpt>
      <trkpt lat="46.20363" lon="2.43791">
        <ele>432</ele>
        <time>2016-04-07T14:32:02Z</time>
      </trkpt>
      <trkpt lat="46.20363" lon="2.43785">
        <ele>432</ele>
        <time>2016-04-07T14:32:05Z</time>
      </trkpt>
      <trkpt lat="46.20363" lon="2.4378">
        <ele>432</ele>
        <time>2016-04-07T14:32:08Z</time>
      </trkpt>
      <trkpt lat="46.20363" lon="2.43776">
        <ele>432</ele>
        <time>2016-04-07T14:32:11Z</time>
      </trkpt>
      <trkpt lat="46.20363" lon="2.43771">
        <ele>432</ele>
        <time>2016-04-07T14:32:14Z</time>
      </trkpt>
      <trkpt lat="46.20362" lon="2.43765">
        <ele>432</ele>
        <time>2016-04-07T14:32:17Z</time>
      </trkpt>
      <trkpt lat="46.20362" lon="2.4376">
        <ele>432</ele>
        <time>2016-04-07T14:32:20Z</time>
      </trkpt>
      <trkpt lat="46.20362" lon="2.43754">
        <ele>432</ele>
        <time>2016-04-07T14:32:23Z</time>
      </trkpt>
      <trkpt lat="46.2036" lon="2.43748">
        <ele>432</ele>
        <time>2016-04-07T14:32:26Z</time>
      </trkpt>
      <trkpt lat="46.20359" lon="2.43743">
        <ele>432</ele>
        <time>2016-04-07T14:32:29Z</time>
      </trkpt>
      <trkpt lat="46.20358" lon="2.43738">
        <ele>432</ele>
        <time>2016-04-07T14:32:32Z</time>
      </trkpt>
      <trkpt lat="46.20358" lon="2.43732">
        <ele>432</ele>
        <time>2016-04-07T14:32:35Z</time>
      </trkpt>
      <trkpt lat="46.20358" lon="2.43726">
        <ele>432</ele>
        <time>2016-04-07T14:32:38Z</time>
      </trkpt>
      <trkpt lat="46.20357" lon="2.4372">
        <ele>432</ele>
        <time>2016-04-07T14:32:41Z</time>
      </trkpt>
      <trkpt lat="46.20357" lon="2.43714">
        <ele>432</ele>
        <time>2016-04-07T14:32:44Z</time>
      </trkpt>
      <trkpt lat="46.20356" lon="2.43709">
        <ele>432</ele>
        <time>2016-04-07T14:32:47Z</time>
      </trkpt>
      <trkpt lat="46.20356" lon="2.43704">
        <ele>432</ele>
        <time>2016-04-07T14:32:50Z</time>
      </trkpt>
      <trkpt lat="46.20356" lon="2.43698">
        <ele>432</ele>
        <time>2016-04-07T14:32:53Z</time>
      </trkpt>
      <trkpt lat="46.20355" lon="2.43692">
        <ele>432</ele>
        <time>2016-04-07T14:32:56Z</time>
      </trkpt>
      <trkpt lat="46.20354" lon="2.43687">
        <ele>433</ele>
        <time>2016-04-07T14:32:59Z</time>
      </trkpt>
      <trkpt lat="46.20353" lon="2.4368">
        <ele>433</ele>
        <time>2016-04-07T14:33:02Z</time>
      </trkpt>
      <trkpt lat="46.20353" lon="2.43674">
        <ele>433</ele>
        <time>2016-04-07T14:33:05Z</time>
      </trkpt>
      <trkpt lat="46.20352" lon="2.43668">
        <ele>434</ele>
        <time>2016-04-07T14:33:08Z</time>
      </trkpt>
      <trkpt lat="46.20351" lon="2.43663">
        <ele>434</ele>
        <time>2016-04-07T14:33:11Z</time>
      </trkpt>
      <trkpt lat="46.20351" lon="2.43658">
        <ele>434</ele>
        <time>2016-04-07T14:33:14Z</time>
      </trkpt>
      <trkpt lat="46.2035" lon="2.43653">
        <ele>434</ele>
        <time>2016-04-07T14:33:17Z</time>
      </trkpt>
      <trkpt lat="46.2035" lon="2.43649">
        <ele>434</ele>
        <time>2016-04-07T14:33:20Z</time>
      </trkpt>
      <trkpt lat="46.2035" lon="2.43645">
        <ele>434</ele>
        <time>2016-04-07T14:33:23Z</time>
      </trkpt>
      <trkpt lat="46.20348" lon="2.43638">
        <ele>434</ele>
        <time>2016-04-07T14:33:26Z</time>
      </trkpt>
      <trkpt lat="46.20348" lon="2.43632">
        <ele>434</ele>
        <time>2016-04-07T14:33:29Z</time>
      </trkpt>
      <trkpt lat="46.20347" lon="2.43627">
        <ele>434</ele>
        <time>2016-04-07T14:33:32Z</time>
      </trkpt>
      <trkpt lat="46.20345" lon="2.4362">
        <ele>434</ele>
        <time>2016-04-07T14:33:35Z</time>
      </trkpt>
      <trkpt lat="46.20343" lon="2.43614">
        <ele>434</ele>
        <time>2016-04-07T14:33:38Z</time>
      </trkpt>
      <trkpt lat="46.20342" lon="2.43608">
        <ele>434</ele>
        <time>2016-04-07T14:33:41Z</time>
      </trkpt>
      <trkpt lat="46.20341" lon="2.43602">
        <ele>434</ele>
        <time>2016-04-07T14:33:44Z</time>
      </trkpt>
      <trkpt lat="46.20339" lon="2.43596">
        <ele>434</ele>
        <time>2016-04-07T14:33:47Z</time>
      </trkpt>
      <trkpt lat="46.20338" lon="2.4359">
        <ele>434</ele>
        <time>2016-04-07T14:33:50Z</time>
      </trkpt>
      <trkpt lat="46.20338" lon="2.43584">
        <ele>434</ele>
        <time>2016-04-07T14:33:53Z</time>
      </trkpt>
      <trkpt lat="46.20338" lon="2.43579">
        <ele>434</ele>
        <time>2016-04-07T14:33:56Z</time>
      </trkpt>
      <trkpt lat="46.20338" lon="2.43573">
        <ele>434</ele>
        <time>2016-04-07T14:33:59Z</time>
      </trkpt>
      <trkpt lat="46.20338" lon="2.43567">
        <ele>434</ele>
        <time>2016-04-07T14:34:02Z</time>
      </trkpt>
      <trkpt lat="46.20338" lon="2.43562">
        <ele>434</ele>
        <time>2016-04-07T14:34:05Z</time>
      </trkpt>
      <trkpt lat="46.20337" lon="2.43555">
        <ele>435</ele>
        <time>2016-04-07T14:34:08Z</time>
      </trkpt>
      <trkpt lat="46.20338" lon="2.43548">
        <ele>435</ele>
        <time>2016-04-07T14:34:11Z</time>
      </trkpt>
      <trkpt lat="46.20338" lon="2.43543">
        <ele>435</ele>
        <time>2016-04-07T14:34:14Z</time>
      </trkpt>
      <trkpt lat="46.20338" lon="2.43537">
        <ele>435</ele>
        <time>2016-04-07T14:34:17Z</time>
      </trkpt>
      <trkpt lat="46.20338" lon="2.43531">
        <ele>435</ele>
        <time>2016-04-07T14:34:20Z</time>
      </trkpt>
      <trkpt lat="46.20338" lon="2.43526">
        <ele>435</ele>
        <time>2016-04-07T14:34:23Z</time>
      </trkpt>
      <trkpt lat="46.20338" lon="2.43519">
        <ele>435</ele>
        <time>2016-04-07T14:34:26Z</time>
      </trkpt>
      <trkpt lat="46.20338" lon="2.43514">
        <ele>435</ele>
        <time>2016-04-07T14:34:29Z</time>
      </trkpt>
      <trkpt lat="46.20339" lon="2.43508">
        <ele>435</ele>
        <time>2016-04-07T14:34:32Z</time>
      </trkpt>
      <trkpt lat="46.2034" lon="2.43502">
        <ele>435</ele>
        <time>2016-04-07T14:34:35Z</time>
      </trkpt>
      <trkpt lat="46.2034" lon="2.43496">
        <ele>436</ele>
        <time>2016-04-07T14:34:38Z</time>
      </trkpt>
      <trkpt lat="46.2034" lon="2.4349">
        <ele>436</ele>
        <time>2016-04-07T14:34:41Z</time>
      </trkpt>
      <trkpt lat="46.2034" lon="2.43483">
        <ele>436</ele>
        <time>2016-04-07T14:34:44Z</time>
      </trkpt>
      <trkpt lat="46.2034" lon="2.43477">
        <ele>436</ele>
        <time>2016-04-07T14:34:47Z</time>
      </trkpt>
      <trkpt lat="46.2034" lon="2.43471">
        <ele>436</ele>
        <time>2016-04-07T14:34:50Z</time>
      </trkpt>
      <trkpt lat="46.2034" lon="2.43466">
        <ele>436</ele>
        <time>2016-04-07T14:34:53Z</time>
      </trkpt>
      <trkpt lat="46.2034" lon="2.4346">
        <ele>436</ele>
        <time>2016-04-07T14:34:56Z</time>
      </trkpt>
      <trkpt lat="46.20342" lon="2.43456">
        <ele>436</ele>
        <time>2016-04-07T14:35:04Z</time>
      </trkpt>
      <trkpt lat="46.20342" lon="2.43452">
        <ele>436</ele>
        <time>2016-04-07T14:35:08Z</time>
      </trkpt>
      <trkpt lat="46.20342" lon="2.4345">
        <ele>437</ele>
        <time>2016-04-07T14:35:18Z</time>
      </trkpt>
      <trkpt lat="46.20342" lon="2.43446">
        <ele>438</ele>
        <time>2016-04-07T14:35:22Z</time>
      </trkpt>
      <trkpt lat="46.20343" lon="2.43444">
        <ele>439</ele>
        <time>2016-04-07T14:35:30Z</time>
      </trkpt>
      <trkpt lat="46.20344" lon="2.43443">
        <ele>439</ele>
        <time>2016-04-07T14:35:33Z</time>
      </trkpt>
      <trkpt lat="46.20346" lon="2.43443">
        <ele>440</ele>
        <time>2016-04-07T14:35:55Z</time>
      </trkpt>
      <trkpt lat="46.2035" lon="2.43444">
        <ele>440</ele>
        <time>2016-04-07T14:35:59Z</time>
      </trkpt>
      <trkpt lat="46.20354" lon="2.43446">
        <ele>440</ele>
        <time>2016-04-07T14:36:02Z</time>
      </trkpt>
      <trkpt lat="46.20358" lon="2.43447">
        <ele>440</ele>
        <time>2016-04-07T14:36:05Z</time>
      </trkpt>
      <trkpt lat="46.20362" lon="2.43449">
        <ele>440</ele>
        <time>2016-04-07T14:36:08Z</time>
      </trkpt>
      <trkpt lat="46.20366" lon="2.43452">
        <ele>440</ele>
        <time>2016-04-07T14:36:11Z</time>
      </trkpt>
      <trkpt lat="46.20369" lon="2.43454">
        <ele>440</ele>
        <time>2016-04-07T14:36:14Z</time>
      </trkpt>
      <trkpt lat="46.20374" lon="2.43456">
        <ele>440</ele>
        <time>2016-04-07T14:36:17Z</time>
      </trkpt>
      <trkpt lat="46.20377" lon="2.43457">
        <ele>440</ele>
        <time>2016-04-07T14:36:20Z</time>
      </trkpt>
      <trkpt lat="46.20381" lon="2.43459">
        <ele>440</ele>
        <time>2016-04-07T14:36:23Z</time>
      </trkpt>
      <trkpt lat="46.20385" lon="2.43461">
        <ele>440</ele>
        <time>2016-04-07T14:36:27Z</time>
      </trkpt>
      <trkpt lat="46.20388" lon="2.43462">
        <ele>440</ele>
        <time>2016-04-07T14:36:30Z</time>
      </trkpt>
      <trkpt lat="46.20391" lon="2.43464">
        <ele>440</ele>
        <time>2016-04-07T14:36:33Z</time>
      </trkpt>
      <trkpt lat="46.20396" lon="2.43466">
        <ele>440</ele>
        <time>2016-04-07T14:36:37Z</time>
      </trkpt>
      <trkpt lat="46.20399" lon="2.43468">
        <ele>440</ele>
        <time>2016-04-07T14:36:40Z</time>
      </trkpt>
      <trkpt lat="46.20403" lon="2.4347">
        <ele>440</ele>
        <time>2016-04-07T14:36:44Z</time>
      </trkpt>
      <trkpt lat="46.20407" lon="2.43471">
        <ele>440</ele>
        <time>2016-04-07T14:36:47Z</time>
      </trkpt>
      <trkpt lat="46.2041" lon="2.43473">
        <ele>440</ele>
        <time>2016-04-07T14:36:50Z</time>
      </trkpt>
      <trkpt lat="46.20414" lon="2.43475">
        <ele>440</ele>
        <time>2016-04-07T14:36:53Z</time>
      </trkpt>
      <trkpt lat="46.20418" lon="2.43476">
        <ele>440</ele>
        <time>2016-04-07T14:36:56Z</time>
      </trkpt>
      <trkpt lat="46.20422" lon="2.43478">
        <ele>440</ele>
        <time>2016-04-07T14:36:59Z</time>
      </trkpt>
      <trkpt lat="46.20425" lon="2.4348">
        <ele>440</ele>
        <time>2016-04-07T14:37:02Z</time>
      </trkpt>
      <trkpt lat="46.20429" lon="2.43482">
        <ele>440</ele>
        <time>2016-04-07T14:37:05Z</time>
      </trkpt>
      <trkpt lat="46.20432" lon="2.43484">
        <ele>440</ele>
        <time>2016-04-07T14:37:08Z</time>
      </trkpt>
      <trkpt lat="46.20435" lon="2.43487">
        <ele>440</ele>
        <time>2016-04-07T14:37:11Z</time>
      </trkpt>
      <trkpt lat="46.2044" lon="2.4349">
        <ele>440</ele>
        <time>2016-04-07T14:37:14Z</time>
      </trkpt>
      <trkpt lat="46.20443" lon="2.43492">
        <ele>440</ele>
        <time>2016-04-07T14:37:17Z</time>
      </trkpt>
      <trkpt lat="46.20447" lon="2.43494">
        <ele>440</ele>
        <time>2016-04-07T14:37:20Z</time>
      </trkpt>
      <trkpt lat="46.20451" lon="2.43497">
        <ele>440</ele>
        <time>2016-04-07T14:37:24Z</time>
      </trkpt>
      <trkpt lat="46.20454" lon="2.43499">
        <ele>440</ele>
        <time>2016-04-07T14:37:27Z</time>
      </trkpt>
      <trkpt lat="46.20459" lon="2.43501">
        <ele>440</ele>
        <time>2016-04-07T14:37:30Z</time>
      </trkpt>
      <trkpt lat="46.20463" lon="2.43504">
        <ele>440</ele>
        <time>2016-04-07T14:37:33Z</time>
      </trkpt>
      <trkpt lat="46.20467" lon="2.43507">
        <ele>440</ele>
        <time>2016-04-07T14:37:36Z</time>
      </trkpt>
      <trkpt lat="46.20471" lon="2.43509">
        <ele>440</ele>
        <time>2016-04-07T14:37:39Z</time>
      </trkpt>
      <trkpt lat="46.20475" lon="2.43512">
        <ele>440</ele>
        <time>2016-04-07T14:37:42Z</time>
      </trkpt>
      <trkpt lat="46.20479" lon="2.43514">
        <ele>440</ele>
        <time>2016-04-07T14:37:45Z</time>
      </trkpt>
      <trkpt lat="46.20482" lon="2.43517">
        <ele>439</ele>
        <time>2016-04-07T14:37:48Z</time>
      </trkpt>
      <trkpt lat="46.20486" lon="2.4352">
        <ele>439</ele>
        <time>2016-04-07T14:37:51Z</time>
      </trkpt>
      <trkpt lat="46.2049" lon="2.43525">
        <ele>439</ele>
        <time>2016-04-07T14:37:55Z</time>
      </trkpt>
      <trkpt lat="46.20494" lon="2.43529">
        <ele>438</ele>
        <time>2016-04-07T14:37:58Z</time>
      </trkpt>
      <trkpt lat="46.20497" lon="2.43532">
        <ele>438</ele>
        <time>2016-04-07T14:38:01Z</time>
      </trkpt>
      <trkpt lat="46.20501" lon="2.43535">
        <ele>437</ele>
        <time>2016-04-07T14:38:04Z</time>
      </trkpt>
      <trkpt lat="46.20505" lon="2.4354">
        <ele>437</ele>
        <time>2016-04-07T14:38:08Z</time>
      </trkpt>
      <trkpt lat="46.20509" lon="2.43545">
        <ele>437</ele>
        <time>2016-04-07T14:38:12Z</time>
      </trkpt>
      <trkpt lat="46.20513" lon="2.43551">
        <ele>436</ele>
        <time>2016-04-07T14:38:16Z</time>
      </trkpt>
      <trkpt lat="46.20517" lon="2.43555">
        <ele>435</ele>
        <time>2016-04-07T14:38:20Z</time>
      </trkpt>
      <trkpt lat="46.2052" lon="2.43558">
        <ele>435</ele>
        <time>2016-04-07T14:38:23Z</time>
      </trkpt>
      <trkpt lat="46.20525" lon="2.43562">
        <ele>435</ele>
        <time>2016-04-07T14:38:27Z</time>
      </trkpt>
      <trkpt lat="46.20528" lon="2.43566">
        <ele>435</ele>
        <time>2016-04-07T14:38:30Z</time>
      </trkpt>
      <trkpt lat="46.20532" lon="2.4357">
        <ele>435</ele>
        <time>2016-04-07T14:38:34Z</time>
      </trkpt>
      <trkpt lat="46.20535" lon="2.43576">
        <ele>435</ele>
        <time>2016-04-07T14:38:37Z</time>
      </trkpt>
      <trkpt lat="46.20536" lon="2.43582">
        <ele>435</ele>
        <time>2016-04-07T14:38:40Z</time>
      </trkpt>
      <trkpt lat="46.20541" lon="2.43588">
        <ele>435</ele>
        <time>2016-04-07T14:38:44Z</time>
      </trkpt>
      <trkpt lat="46.20543" lon="2.43593">
        <ele>435</ele>
        <time>2016-04-07T14:38:47Z</time>
      </trkpt>
      <trkpt lat="46.20547" lon="2.43597">
        <ele>435</ele>
        <time>2016-04-07T14:38:51Z</time>
      </trkpt>
      <trkpt lat="46.20551" lon="2.43601">
        <ele>435</ele>
        <time>2016-04-07T14:38:55Z</time>
      </trkpt>
      <trkpt lat="46.20554" lon="2.43605">
        <ele>435</ele>
        <time>2016-04-07T14:38:58Z</time>
      </trkpt>
      <trkpt lat="46.20557" lon="2.43607">
        <ele>435</ele>
        <time>2016-04-07T14:39:01Z</time>
      </trkpt>
      <trkpt lat="46.20559" lon="2.43605">
        <ele>435</ele>
        <time>2016-04-07T14:39:05Z</time>
      </trkpt>
      <trkpt lat="46.20564" lon="2.43602">
        <ele>435</ele>
        <time>2016-04-07T14:39:09Z</time>
      </trkpt>
      <trkpt lat="46.20567" lon="2.43598">
        <ele>435</ele>
        <time>2016-04-07T14:39:13Z</time>
      </trkpt>
      <trkpt lat="46.20571" lon="2.43595">
        <ele>435</ele>
        <time>2016-04-07T14:39:16Z</time>
      </trkpt>
      <trkpt lat="46.20575" lon="2.4359">
        <ele>435</ele>
        <time>2016-04-07T14:39:20Z</time>
      </trkpt>
      <trkpt lat="46.20579" lon="2.43587">
        <ele>435</ele>
        <time>2016-04-07T14:39:23Z</time>
      </trkpt>
      <trkpt lat="46.20582" lon="2.43583">
        <ele>435</ele>
        <time>2016-04-07T14:39:26Z</time>
      </trkpt>
      <trkpt lat="46.20586" lon="2.4358">
        <ele>435</ele>
        <time>2016-04-07T14:39:29Z</time>
      </trkpt>
      <trkpt lat="46.20591" lon="2.43576">
        <ele>435</ele>
        <time>2016-04-07T14:39:33Z</time>
      </trkpt>
      <trkpt lat="46.20594" lon="2.43572">
        <ele>435</ele>
        <time>2016-04-07T14:39:36Z</time>
      </trkpt>
      <trkpt lat="46.20598" lon="2.43568">
        <ele>435</ele>
        <time>2016-04-07T14:39:40Z</time>
      </trkpt>
      <trkpt lat="46.20601" lon="2.43564">
        <ele>435</ele>
        <time>2016-04-07T14:39:43Z</time>
      </trkpt>
      <trkpt lat="46.20605" lon="2.43562">
        <ele>435</ele>
        <time>2016-04-07T14:39:46Z</time>
      </trkpt>
      <trkpt lat="46.20609" lon="2.43559">
        <ele>435</ele>
        <time>2016-04-07T14:39:49Z</time>
      </trkpt>
      <trkpt lat="46.20612" lon="2.43556">
        <ele>435</ele>
        <time>2016-04-07T14:39:52Z</time>
      </trkpt>
      <trkpt lat="46.20615" lon="2.43552">
        <ele>435</ele>
        <time>2016-04-07T14:39:55Z</time>
      </trkpt>
      <trkpt lat="46.20619" lon="2.43548">
        <ele>435</ele>
        <time>2016-04-07T14:39:59Z</time>
      </trkpt>
      <trkpt lat="46.20623" lon="2.43544">
        <ele>435</ele>
        <time>2016-04-07T14:40:02Z</time>
      </trkpt>
      <trkpt lat="46.20627" lon="2.43538">
        <ele>435</ele>
        <time>2016-04-07T14:40:06Z</time>
      </trkpt>
      <trkpt lat="46.20631" lon="2.43534">
        <ele>435</ele>
        <time>2016-04-07T14:40:10Z</time>
      </trkpt>
      <trkpt lat="46.20635" lon="2.43529">
        <ele>435</ele>
        <time>2016-04-07T14:40:14Z</time>
      </trkpt>
      <trkpt lat="46.20639" lon="2.43524">
        <ele>435</ele>
        <time>2016-04-07T14:40:18Z</time>
      </trkpt>
      <trkpt lat="46.20643" lon="2.4352">
        <ele>435</ele>
        <time>2016-04-07T14:40:22Z</time>
      </trkpt>
      <trkpt lat="46.20646" lon="2.43516">
        <ele>435</ele>
        <time>2016-04-07T14:40:25Z</time>
      </trkpt>
      <trkpt lat="46.20649" lon="2.43512">
        <ele>434</ele>
        <time>2016-04-07T14:40:28Z</time>
      </trkpt>
      <trkpt lat="46.20652" lon="2.43507">
        <ele>434</ele>
        <time>2016-04-07T14:40:31Z</time>
      </trkpt>
      <trkpt lat="46.20655" lon="2.43502">
        <ele>434</ele>
        <time>2016-04-07T14:40:34Z</time>
      </trkpt>
      <trkpt lat="46.20658" lon="2.43496">
        <ele>433</ele>
        <time>2016-04-07T14:40:38Z</time>
      </trkpt>
      <trkpt lat="46.20661" lon="2.43492">
        <ele>433</ele>
        <time>2016-04-07T14:40:41Z</time>
      </trkpt>
      <trkpt lat="46.20664" lon="2.43488">
        <ele>433</ele>
        <time>2016-04-07T14:40:44Z</time>
      </trkpt>
      <trkpt lat="46.20667" lon="2.43483">
        <ele>433</ele>
        <time>2016-04-07T14:40:47Z</time>
      </trkpt>
      <trkpt lat="46.20668" lon="2.43478">
        <ele>433</ele>
        <time>2016-04-07T14:40:50Z</time>
      </trkpt>
      <trkpt lat="46.2067" lon="2.43472">
        <ele>433</ele>
        <time>2016-04-07T14:40:53Z</time>
      </trkpt>
      <trkpt lat="46.2067" lon="2.43466">
        <ele>433</ele>
        <time>2016-04-07T14:40:56Z</time>
      </trkpt>
      <trkpt lat="46.20671" lon="2.4346">
        <ele>433</ele>
        <time>2016-04-07T14:40:59Z</time>
      </trkpt>
      <trkpt lat="46.20671" lon="2.43454">
        <ele>433</ele>
        <time>2016-04-07T14:41:02Z</time>
      </trkpt>
      <trkpt lat="46.20672" lon="2.43448">
        <ele>433</ele>
        <time>2016-04-07T14:41:05Z</time>
      </trkpt>
      <trkpt lat="46.20673" lon="2.43442">
        <ele>432</ele>
        <time>2016-04-07T14:41:08Z</time>
      </trkpt>
      <trkpt lat="46.20673" lon="2.43436">
        <ele>432</ele>
        <time>2016-04-07T14:41:11Z</time>
      </trkpt>
      <trkpt lat="46.20674" lon="2.43428">
        <ele>432</ele>
        <time>2016-04-07T14:41:14Z</time>
      </trkpt>
      <trkpt lat="46.20675" lon="2.43422">
        <ele>432</ele>
        <time>2016-04-07T14:41:17Z</time>
      </trkpt>
      <trkpt lat="46.20676" lon="2.43415">
        <ele>431</ele>
        <time>2016-04-07T14:41:20Z</time>
      </trkpt>
      <trkpt lat="46.20676" lon="2.43409">
        <ele>431</ele>
        <time>2016-04-07T14:41:23Z</time>
      </trkpt>
      <trkpt lat="46.20677" lon="2.43402">
        <ele>431</ele>
        <time>2016-04-07T14:41:26Z</time>
      </trkpt>
      <trkpt lat="46.20677" lon="2.43396">
        <ele>431</ele>
        <time>2016-04-07T14:41:29Z</time>
      </trkpt>
      <trkpt lat="46.20677" lon="2.4339">
        <ele>430</ele>
        <time>2016-04-07T14:41:32Z</time>
      </trkpt>
      <trkpt lat="46.20678" lon="2.43384">
        <ele>430</ele>
        <time>2016-04-07T14:41:35Z</time>
      </trkpt>
      <trkpt lat="46.20678" lon="2.43378">
        <ele>430</ele>
        <time>2016-04-07T14:41:38Z</time>
      </trkpt>
      <trkpt lat="46.20679" lon="2.43372">
        <ele>430</ele>
        <time>2016-04-07T14:41:41Z</time>
      </trkpt>
      <trkpt lat="46.2068" lon="2.43365">
        <ele>429</ele>
        <time>2016-04-07T14:41:44Z</time>
      </trkpt>
      <trkpt lat="46.2068" lon="2.43359">
        <ele>429</ele>
        <time>2016-04-07T14:41:47Z</time>
      </trkpt>
      <trkpt lat="46.20681" lon="2.43352">
        <ele>429</ele>
        <time>2016-04-07T14:41:50Z</time>
      </trkpt>
      <trkpt lat="46.20682" lon="2.43346">
        <ele>429</ele>
        <time>2016-04-07T14:41:53Z</time>
      </trkpt>
      <trkpt lat="46.20683" lon="2.4334">
        <ele>429</ele>
        <time>2016-04-07T14:41:56Z</time>
      </trkpt>
      <trkpt lat="46.20684" lon="2.43333">
        <ele>429</ele>
        <time>2016-04-07T14:41:59Z</time>
      </trkpt>
      <trkpt lat="46.20685" lon="2.43327">
        <ele>429</ele>
        <time>2016-04-07T14:42:02Z</time>
      </trkpt>
      <trkpt lat="46.20686" lon="2.43321">
        <ele>429</ele>
        <time>2016-04-07T14:42:05Z</time>
      </trkpt>
      <trkpt lat="46.20688" lon="2.43316">
        <ele>429</ele>
        <time>2016-04-07T14:42:08Z</time>
      </trkpt>
      <trkpt lat="46.2069" lon="2.4331">
        <ele>429</ele>
        <time>2016-04-07T14:42:11Z</time>
      </trkpt>
      <trkpt lat="46.20693" lon="2.43304">
        <ele>429</ele>
        <time>2016-04-07T14:42:14Z</time>
      </trkpt>
      <trkpt lat="46.20695" lon="2.43299">
        <ele>429</ele>
        <time>2016-04-07T14:42:17Z</time>
      </trkpt>
      <trkpt lat="46.20698" lon="2.43294">
        <ele>429</ele>
        <time>2016-04-07T14:42:20Z</time>
      </trkpt>
      <trkpt lat="46.20701" lon="2.43288">
        <ele>429</ele>
        <time>2016-04-07T14:42:23Z</time>
      </trkpt>
      <trkpt lat="46.20703" lon="2.43283">
        <ele>429</ele>
        <time>2016-04-07T14:42:26Z</time>
      </trkpt>
      <trkpt lat="46.20705" lon="2.43278">
        <ele>429</ele>
        <time>2016-04-07T14:42:29Z</time>
      </trkpt>
      <trkpt lat="46.20708" lon="2.43273">
        <ele>429</ele>
        <time>2016-04-07T14:42:32Z</time>
      </trkpt>
      <trkpt lat="46.20711" lon="2.43268">
        <ele>429</ele>
        <time>2016-04-07T14:42:35Z</time>
      </trkpt>
      <trkpt lat="46.20713" lon="2.43264">
        <ele>429</ele>
        <time>2016-04-07T14:42:38Z</time>
      </trkpt>
      <trkpt lat="46.20715" lon="2.43259">
        <ele>429</ele>
        <time>2016-04-07T14:42:41Z</time>
      </trkpt>
      <trkpt lat="46.20717" lon="2.43254">
        <ele>429</ele>
        <time>2016-04-07T14:42:44Z</time>
      </trkpt>
      <trkpt lat="46.20719" lon="2.43249">
        <ele>429</ele>
        <time>2016-04-07T14:42:47Z</time>
      </trkpt>
      <trkpt lat="46.20722" lon="2.43244">
        <ele>429</ele>
        <time>2016-04-07T14:42:50Z</time>
      </trkpt>
      <trkpt lat="46.20725" lon="2.43238">
        <ele>429</ele>
        <time>2016-04-07T14:42:53Z</time>
      </trkpt>
      <trkpt lat="46.20727" lon="2.43233">
        <ele>429</ele>
        <time>2016-04-07T14:42:56Z</time>
      </trkpt>
      <trkpt lat="46.20729" lon="2.43228">
        <ele>429</ele>
        <time>2016-04-07T14:42:59Z</time>
      </trkpt>
      <trkpt lat="46.20732" lon="2.43224">
        <ele>429</ele>
        <time>2016-04-07T14:43:02Z</time>
      </trkpt>
      <trkpt lat="46.20735" lon="2.43219">
        <ele>429</ele>
        <time>2016-04-07T14:43:05Z</time>
      </trkpt>
      <trkpt lat="46.20737" lon="2.43214">
        <ele>429</ele>
        <time>2016-04-07T14:43:08Z</time>
      </trkpt>
      <trkpt lat="46.20739" lon="2.43209">
        <ele>429</ele>
        <time>2016-04-07T14:43:11Z</time>
      </trkpt>
      <trkpt lat="46.20741" lon="2.43203">
        <ele>429</ele>
        <time>2016-04-07T14:43:14Z</time>
      </trkpt>
      <trkpt lat="46.20742" lon="2.43198">
        <ele>429</ele>
        <time>2016-04-07T14:43:17Z</time>
      </trkpt>
      <trkpt lat="46.20743" lon="2.43192">
        <ele>429</ele>
        <time>2016-04-07T14:43:20Z</time>
      </trkpt>
      <trkpt lat="46.20744" lon="2.43186">
        <ele>429</ele>
        <time>2016-04-07T14:43:23Z</time>
      </trkpt>
      <trkpt lat="46.20745" lon="2.43181">
        <ele>429</ele>
        <time>2016-04-07T14:43:26Z</time>
      </trkpt>
      <trkpt lat="46.20746" lon="2.43176">
        <ele>429</ele>
        <time>2016-04-07T14:43:29Z</time>
      </trkpt>
      <trkpt lat="46.20747" lon="2.43169">
        <ele>429</ele>
        <time>2016-04-07T14:43:32Z</time>
      </trkpt>
      <trkpt lat="46.20749" lon="2.43164">
        <ele>429</ele>
        <time>2016-04-07T14:43:35Z</time>
      </trkpt>
      <trkpt lat="46.2075" lon="2.4316">
        <ele>429</ele>
        <time>2016-04-07T14:43:38Z</time>
      </trkpt>
      <trkpt lat="46.2075" lon="2.43154">
        <ele>429</ele>
        <time>2016-04-07T14:43:41Z</time>
      </trkpt>
      <trkpt lat="46.20751" lon="2.43148">
        <ele>429</ele>
        <time>2016-04-07T14:43:44Z</time>
      </trkpt>
      <trkpt lat="46.20751" lon="2.43142">
        <ele>429</ele>
        <time>2016-04-07T14:43:47Z</time>
      </trkpt>
      <trkpt lat="46.20752" lon="2.43136">
        <ele>429</ele>
        <time>2016-04-07T14:43:50Z</time>
      </trkpt>
      <trkpt lat="46.20752" lon="2.43131">
        <ele>429</ele>
        <time>2016-04-07T14:43:53Z</time>
      </trkpt>
      <trkpt lat="46.20751" lon="2.43126">
        <ele>429</ele>
        <time>2016-04-07T14:43:56Z</time>
      </trkpt>
      <trkpt lat="46.20749" lon="2.43121">
        <ele>429</ele>
        <time>2016-04-07T14:44:00Z</time>
      </trkpt>
      <trkpt lat="46.20746" lon="2.43117">
        <ele>429</ele>
        <time>2016-04-07T14:44:04Z</time>
      </trkpt>
      <trkpt lat="46.20742" lon="2.43113">
        <ele>429</ele>
        <time>2016-04-07T14:44:08Z</time>
      </trkpt>
      <trkpt lat="46.20738" lon="2.43109">
        <ele>429</ele>
        <time>2016-04-07T14:44:12Z</time>
      </trkpt>
      <trkpt lat="46.20735" lon="2.43105">
        <ele>429</ele>
        <time>2016-04-07T14:44:15Z</time>
      </trkpt>
      <trkpt lat="46.20734" lon="2.43099">
        <ele>429</ele>
        <time>2016-04-07T14:44:18Z</time>
      </trkpt>
      <trkpt lat="46.20733" lon="2.43093">
        <ele>429</ele>
        <time>2016-04-07T14:44:21Z</time>
      </trkpt>
      <trkpt lat="46.20734" lon="2.43088">
        <ele>428</ele>
        <time>2016-04-07T14:44:24Z</time>
      </trkpt>
      <trkpt lat="46.20734" lon="2.43082">
        <ele>428</ele>
        <time>2016-04-07T14:44:27Z</time>
      </trkpt>
      <trkpt lat="46.20736" lon="2.43077">
        <ele>427</ele>
        <time>2016-04-07T14:44:30Z</time>
      </trkpt>
      <trkpt lat="46.20737" lon="2.43071">
        <ele>427</ele>
        <time>2016-04-07T14:44:33Z</time>
      </trkpt>
      <trkpt lat="46.20738" lon="2.43066">
        <ele>426</ele>
        <time>2016-04-07T14:44:36Z</time>
      </trkpt>
      <trkpt lat="46.20739" lon="2.43061">
        <ele>425</ele>
        <time>2016-04-07T14:44:39Z</time>
      </trkpt>
      <trkpt lat="46.20739" lon="2.43055">
        <ele>425</ele>
        <time>2016-04-07T14:44:42Z</time>
      </trkpt>
      <trkpt lat="46.20739" lon="2.43049">
        <ele>425</ele>
        <time>2016-04-07T14:44:45Z</time>
      </trkpt>
      <trkpt lat="46.20738" lon="2.43044">
        <ele>424</ele>
        <time>2016-04-07T14:44:48Z</time>
      </trkpt>
      <trkpt lat="46.20735" lon="2.4304">
        <ele>423</ele>
        <time>2016-04-07T14:44:52Z</time>
      </trkpt>
      <trkpt lat="46.20734" lon="2.43039">
        <ele>423</ele>
        <time>2016-04-07T14:44:56Z</time>
      </trkpt>
      <trkpt lat="46.2073" lon="2.43036">
        <ele>423</ele>
        <time>2016-04-07T14:45:00Z</time>
      </trkpt>
      <trkpt lat="46.20726" lon="2.43032">
        <ele>423</ele>
        <time>2016-04-07T14:45:03Z</time>
      </trkpt>
      <trkpt lat="46.20723" lon="2.43028">
        <ele>423</ele>
        <time>2016-04-07T14:45:06Z</time>
      </trkpt>
      <trkpt lat="46.20719" lon="2.43025">
        <ele>423</ele>
        <time>2016-04-07T14:45:09Z</time>
      </trkpt>
      <trkpt lat="46.20715" lon="2.43022">
        <ele>423</ele>
        <time>2016-04-07T14:45:12Z</time>
      </trkpt>
      <trkpt lat="46.20712" lon="2.43019">
        <ele>423</ele>
        <time>2016-04-07T14:45:15Z</time>
      </trkpt>
      <trkpt lat="46.20708" lon="2.43014">
        <ele>423</ele>
        <time>2016-04-07T14:45:19Z</time>
      </trkpt>
      <trkpt lat="46.20705" lon="2.4301">
        <ele>423</ele>
        <time>2016-04-07T14:45:22Z</time>
      </trkpt>
      <trkpt lat="46.20702" lon="2.43006">
        <ele>423</ele>
        <time>2016-04-07T14:45:25Z</time>
      </trkpt>
      <trkpt lat="46.20699" lon="2.43002">
        <ele>422</ele>
        <time>2016-04-07T14:45:28Z</time>
      </trkpt>
      <trkpt lat="46.20697" lon="2.42998">
        <ele>422</ele>
        <time>2016-04-07T14:45:31Z</time>
      </trkpt>
      <trkpt lat="46.20693" lon="2.42992">
        <ele>422</ele>
        <time>2016-04-07T14:45:35Z</time>
      </trkpt>
      <trkpt lat="46.2069" lon="2.42987">
        <ele>422</ele>
        <time>2016-04-07T14:45:39Z</time>
      </trkpt>
      <trkpt lat="46.20688" lon="2.42982">
        <ele>422</ele>
        <time>2016-04-07T14:45:42Z</time>
      </trkpt>
      <trkpt lat="46.20685" lon="2.42977">
        <ele>422</ele>
        <time>2016-04-07T14:45:45Z</time>
      </trkpt>
      <trkpt lat="46.20683" lon="2.42972">
        <ele>422</ele>
        <time>2016-04-07T14:45:48Z</time>
      </trkpt>
      <trkpt lat="46.2068" lon="2.42967">
        <ele>422</ele>
        <time>2016-04-07T14:45:51Z</time>
      </trkpt>
      <trkpt lat="46.20678" lon="2.42962">
        <ele>422</ele>
        <time>2016-04-07T14:45:54Z</time>
      </trkpt>
      <trkpt lat="46.20675" lon="2.42957">
        <ele>422</ele>
        <time>2016-04-07T14:45:57Z</time>
      </trkpt>
      <trkpt lat="46.20672" lon="2.42952">
        <ele>422</ele>
        <time>2016-04-07T14:46:00Z</time>
      </trkpt>
      <trkpt lat="46.2067" lon="2.42948">
        <ele>422</ele>
        <time>2016-04-07T14:46:03Z</time>
      </trkpt>
      <trkpt lat="46.20666" lon="2.42943">
        <ele>422</ele>
        <time>2016-04-07T14:46:07Z</time>
      </trkpt>
      <trkpt lat="46.20663" lon="2.42939">
        <ele>422</ele>
        <time>2016-04-07T14:46:10Z</time>
      </trkpt>
      <trkpt lat="46.2066" lon="2.42934">
        <ele>422</ele>
        <time>2016-04-07T14:46:14Z</time>
      </trkpt>
      <trkpt lat="46.2066" lon="2.42933">
        <ele>422</ele>
        <time>2016-04-07T14:46:17Z</time>
      </trkpt>
      <trkpt lat="46.2066" lon="2.42931">
        <ele>422</ele>
        <time>2016-04-07T14:46:23Z</time>
      </trkpt>
      <trkpt lat="46.2066" lon="2.42927">
        <ele>422</ele>
        <time>2016-04-07T14:46:26Z</time>
      </trkpt>
      <trkpt lat="46.2066" lon="2.4292">
        <ele>422</ele>
        <time>2016-04-07T14:46:29Z</time>
      </trkpt>
      <trkpt lat="46.20661" lon="2.42915">
        <ele>422</ele>
        <time>2016-04-07T14:46:32Z</time>
      </trkpt>
      <trkpt lat="46.20662" lon="2.42909">
        <ele>422</ele>
        <time>2016-04-07T14:46:35Z</time>
      </trkpt>
      <trkpt lat="46.20663" lon="2.42903">
        <ele>422</ele>
        <time>2016-04-07T14:46:38Z</time>
      </trkpt>
      <trkpt lat="46.20664" lon="2.42898">
        <ele>422</ele>
        <time>2016-04-07T14:46:41Z</time>
      </trkpt>
      <trkpt lat="46.20665" lon="2.42893">
        <ele>422</ele>
        <time>2016-04-07T14:46:44Z</time>
      </trkpt>
      <trkpt lat="46.20666" lon="2.42887">
        <ele>422</ele>
        <time>2016-04-07T14:46:47Z</time>
      </trkpt>
      <trkpt lat="46.20668" lon="2.42882">
        <ele>422</ele>
        <time>2016-04-07T14:46:50Z</time>
      </trkpt>
      <trkpt lat="46.20668" lon="2.42876">
        <ele>422</ele>
        <time>2016-04-07T14:46:53Z</time>
      </trkpt>
      <trkpt lat="46.20669" lon="2.4287">
        <ele>422</ele>
        <time>2016-04-07T14:46:56Z</time>
      </trkpt>
      <trkpt lat="46.20669" lon="2.42864">
        <ele>422</ele>
        <time>2016-04-07T14:46:59Z</time>
      </trkpt>
      <trkpt lat="46.2067" lon="2.42858">
        <ele>421</ele>
        <time>2016-04-07T14:47:02Z</time>
      </trkpt>
      <trkpt lat="46.2067" lon="2.42851">
        <ele>421</ele>
        <time>2016-04-07T14:47:05Z</time>
      </trkpt>
      <trkpt lat="46.20671" lon="2.42846">
        <ele>420</ele>
        <time>2016-04-07T14:47:08Z</time>
      </trkpt>
      <trkpt lat="46.20672" lon="2.4284">
        <ele>420</ele>
        <time>2016-04-07T14:47:11Z</time>
      </trkpt>
      <trkpt lat="46.20673" lon="2.42834">
        <ele>420</ele>
        <time>2016-04-07T14:47:14Z</time>
      </trkpt>
      <trkpt lat="46.20674" lon="2.42828">
        <ele>420</ele>
        <time>2016-04-07T14:47:17Z</time>
      </trkpt>
      <trkpt lat="46.20674" lon="2.42822">
        <ele>420</ele>
        <time>2016-04-07T14:47:20Z</time>
      </trkpt>
      <trkpt lat="46.20675" lon="2.42815">
        <ele>420</ele>
        <time>2016-04-07T14:47:23Z</time>
      </trkpt>
      <trkpt lat="46.20675" lon="2.42809">
        <ele>419</ele>
        <time>2016-04-07T14:47:26Z</time>
      </trkpt>
      <trkpt lat="46.20676" lon="2.42802">
        <ele>419</ele>
        <time>2016-04-07T14:47:29Z</time>
      </trkpt>
      <trkpt lat="46.20676" lon="2.42796">
        <ele>419</ele>
        <time>2016-04-07T14:47:32Z</time>
      </trkpt>
      <trkpt lat="46.20677" lon="2.42789">
        <ele>419</ele>
        <time>2016-04-07T14:47:35Z</time>
      </trkpt>
      <trkpt lat="46.20678" lon="2.42783">
        <ele>419</ele>
        <time>2016-04-07T14:47:38Z</time>
      </trkpt>
      <trkpt lat="46.20679" lon="2.42777">
        <ele>419</ele>
        <time>2016-04-07T14:47:41Z</time>
      </trkpt>
      <trkpt lat="46.2068" lon="2.42771">
        <ele>419</ele>
        <time>2016-04-07T14:47:44Z</time>
      </trkpt>
      <trkpt lat="46.2068" lon="2.42764">
        <ele>419</ele>
        <time>2016-04-07T14:47:47Z</time>
      </trkpt>
      <trkpt lat="46.20681" lon="2.42759">
        <ele>419</ele>
        <time>2016-04-07T14:47:50Z</time>
      </trkpt>
      <trkpt lat="46.20681" lon="2.42753">
        <ele>419</ele>
        <time>2016-04-07T14:47:53Z</time>
      </trkpt>
      <trkpt lat="46.20681" lon="2.42746">
        <ele>419</ele>
        <time>2016-04-07T14:47:56Z</time>
      </trkpt>
      <trkpt lat="46.20681" lon="2.4274">
        <ele>419</ele>
        <time>2016-04-07T14:47:59Z</time>
      </trkpt>
      <trkpt lat="46.20681" lon="2.42734">
        <ele>419</ele>
        <time>2016-04-07T14:48:02Z</time>
      </trkpt>
      <trkpt lat="46.2068" lon="2.42727">
        <ele>419</ele>
        <time>2016-04-07T14:48:05Z</time>
      </trkpt>
      <trkpt lat="46.20679" lon="2.4272">
        <ele>419</ele>
        <time>2016-04-07T14:48:08Z</time>
      </trkpt>
      <trkpt lat="46.20678" lon="2.42714">
        <ele>419</ele>
        <time>2016-04-07T14:48:11Z</time>
      </trkpt>
      <trkpt lat="46.20678" lon="2.42707">
        <ele>419</ele>
        <time>2016-04-07T14:48:14Z</time>
      </trkpt>
      <trkpt lat="46.20677" lon="2.42701">
        <ele>419</ele>
        <time>2016-04-07T14:48:17Z</time>
      </trkpt>
      <trkpt lat="46.20676" lon="2.42695">
        <ele>419</ele>
        <time>2016-04-07T14:48:20Z</time>
      </trkpt>
      <trkpt lat="46.20676" lon="2.42689">
        <ele>419</ele>
        <time>2016-04-07T14:48:23Z</time>
      </trkpt>
      <trkpt lat="46.20675" lon="2.42683">
        <ele>419</ele>
        <time>2016-04-07T14:48:26Z</time>
      </trkpt>
      <trkpt lat="46.20674" lon="2.42676">
        <ele>419</ele>
        <time>2016-04-07T14:48:29Z</time>
      </trkpt>
      <trkpt lat="46.20673" lon="2.42671">
        <ele>419</ele>
        <time>2016-04-07T14:48:32Z</time>
      </trkpt>
      <trkpt lat="46.20673" lon="2.42664">
        <ele>419</ele>
        <time>2016-04-07T14:48:35Z</time>
      </trkpt>
      <trkpt lat="46.20672" lon="2.42658">
        <ele>419</ele>
        <time>2016-04-07T14:48:38Z</time>
      </trkpt>
      <trkpt lat="46.20671" lon="2.42652">
        <ele>419</ele>
        <time>2016-04-07T14:48:41Z</time>
      </trkpt>
      <trkpt lat="46.20671" lon="2.42646">
        <ele>419</ele>
        <time>2016-04-07T14:48:44Z</time>
      </trkpt>
      <trkpt lat="46.2067" lon="2.42639">
        <ele>419</ele>
        <time>2016-04-07T14:48:47Z</time>
      </trkpt>
      <trkpt lat="46.20669" lon="2.42633">
        <ele>419</ele>
        <time>2016-04-07T14:48:50Z</time>
      </trkpt>
      <trkpt lat="46.20668" lon="2.42627">
        <ele>419</ele>
        <time>2016-04-07T14:48:53Z</time>
      </trkpt>
      <trkpt lat="46.20667" lon="2.42621">
        <ele>419</ele>
        <time>2016-04-07T14:48:56Z</time>
      </trkpt>
      <trkpt lat="46.20667" lon="2.42614">
        <ele>419</ele>
        <time>2016-04-07T14:48:59Z</time>
      </trkpt>
      <trkpt lat="46.20666" lon="2.42609">
        <ele>419</ele>
        <time>2016-04-07T14:49:02Z</time>
      </trkpt>
      <trkpt lat="46.20665" lon="2.42603">
        <ele>419</ele>
        <time>2016-04-07T14:49:05Z</time>
      </trkpt>
      <trkpt lat="46.20664" lon="2.42597">
        <ele>419</ele>
        <time>2016-04-07T14:49:08Z</time>
      </trkpt>
      <trkpt lat="46.20664" lon="2.42592">
        <ele>419</ele>
        <time>2016-04-07T14:49:11Z</time>
      </trkpt>
      <trkpt lat="46.20663" lon="2.42586">
        <ele>419</ele>
        <time>2016-04-07T14:49:14Z</time>
      </trkpt>
      <trkpt lat="46.20663" lon="2.4258">
        <ele>419</ele>
        <time>2016-04-07T14:49:17Z</time>
      </trkpt>
      <trkpt lat="46.20662" lon="2.42575">
        <ele>419</ele>
        <time>2016-04-07T14:49:20Z</time>
      </trkpt>
      <trkpt lat="46.20662" lon="2.42568">
        <ele>419</ele>
        <time>2016-04-07T14:49:23Z</time>
      </trkpt>
      <trkpt lat="46.2066" lon="2.42563">
        <ele>419</ele>
        <time>2016-04-07T14:49:26Z</time>
      </trkpt>
      <trkpt lat="46.2066" lon="2.42558">
        <ele>419</ele>
        <time>2016-04-07T14:49:29Z</time>
      </trkpt>
      <trkpt lat="46.2066" lon="2.42551">
        <ele>419</ele>
        <time>2016-04-07T14:49:32Z</time>
      </trkpt>
      <trkpt lat="46.20659" lon="2.42546">
        <ele>419</ele>
        <time>2016-04-07T14:49:35Z</time>
      </trkpt>
      <trkpt lat="46.20658" lon="2.42541">
        <ele>419</ele>
        <time>2016-04-07T14:49:38Z</time>
      </trkpt>
      <trkpt lat="46.20657" lon="2.42535">
        <ele>419</ele>
        <time>2016-04-07T14:49:41Z</time>
      </trkpt>
      <trkpt lat="46.20656" lon="2.42529">
        <ele>419</ele>
        <time>2016-04-07T14:49:44Z</time>
      </trkpt>
      <trkpt lat="46.20655" lon="2.42523">
        <ele>419</ele>
        <time>2016-04-07T14:49:47Z</time>
      </trkpt>
      <trkpt lat="46.20654" lon="2.42516">
        <ele>419</ele>
        <time>2016-04-07T14:49:50Z</time>
      </trkpt>
      <trkpt lat="46.20653" lon="2.4251">
        <ele>419</ele>
        <time>2016-04-07T14:49:53Z</time>
      </trkpt>
      <trkpt lat="46.20652" lon="2.42505">
        <ele>418</ele>
        <time>2016-04-07T14:49:56Z</time>
      </trkpt>
      <trkpt lat="46.20651" lon="2.42499">
        <ele>418</ele>
        <time>2016-04-07T14:49:59Z</time>
      </trkpt>
      <trkpt lat="46.2065" lon="2.42493">
        <ele>418</ele>
        <time>2016-04-07T14:50:02Z</time>
      </trkpt>
      <trkpt lat="46.20648" lon="2.42487">
        <ele>418</ele>
        <time>2016-04-07T14:50:05Z</time>
      </trkpt>
      <trkpt lat="46.20647" lon="2.42481">
        <ele>418</ele>
        <time>2016-04-07T14:50:08Z</time>
      </trkpt>
      <trkpt lat="46.20646" lon="2.42476">
        <ele>417</ele>
        <time>2016-04-07T14:50:11Z</time>
      </trkpt>
      <trkpt lat="46.20645" lon="2.4247">
        <ele>417</ele>
        <time>2016-04-07T14:50:14Z</time>
      </trkpt>
      <trkpt lat="46.20644" lon="2.42464">
        <ele>416</ele>
        <time>2016-04-07T14:50:17Z</time>
      </trkpt>
      <trkpt lat="46.20644" lon="2.42459">
        <ele>416</ele>
        <time>2016-04-07T14:50:20Z</time>
      </trkpt>
      <trkpt lat="46.20643" lon="2.42453">
        <ele>415</ele>
        <time>2016-04-07T14:50:23Z</time>
      </trkpt>
      <trkpt lat="46.20641" lon="2.42447">
        <ele>415</ele>
        <time>2016-04-07T14:50:26Z</time>
      </trkpt>
      <trkpt lat="46.20641" lon="2.42441">
        <ele>414</ele>
        <time>2016-04-07T14:50:29Z</time>
      </trkpt>
      <trkpt lat="46.20641" lon="2.42435">
        <ele>414</ele>
        <time>2016-04-07T14:50:32Z</time>
      </trkpt>
      <trkpt lat="46.20641" lon="2.42429">
        <ele>413</ele>
        <time>2016-04-07T14:50:35Z</time>
      </trkpt>
      <trkpt lat="46.20642" lon="2.42423">
        <ele>412</ele>
        <time>2016-04-07T14:50:38Z</time>
      </trkpt>
      <trkpt lat="46.20643" lon="2.42418">
        <ele>412</ele>
        <time>2016-04-07T14:50:41Z</time>
      </trkpt>
      <trkpt lat="46.20644" lon="2.42412">
        <ele>411</ele>
        <time>2016-04-07T14:50:44Z</time>
      </trkpt>
      <trkpt lat="46.20645" lon="2.42406">
        <ele>410</ele>
        <time>2016-04-07T14:50:47Z</time>
      </trkpt>
      <trkpt lat="46.20647" lon="2.42402">
        <ele>409</ele>
        <time>2016-04-07T14:50:50Z</time>
      </trkpt>
      <trkpt lat="46.20648" lon="2.42397">
        <ele>408</ele>
        <time>2016-04-07T14:50:53Z</time>
      </trkpt>
      <trkpt lat="46.20652" lon="2.4239">
        <ele>408</ele>
        <time>2016-04-07T14:50:57Z</time>
      </trkpt>
      <trkpt lat="46.20654" lon="2.42388">
        <ele>407</ele>
        <time>2016-04-07T14:51:01Z</time>
      </trkpt>
      <trkpt lat="46.20656" lon="2.42387">
        <ele>407</ele>
        <time>2016-04-07T14:51:04Z</time>
      </trkpt>
      <trkpt lat="46.20657" lon="2.42387">
        <ele>407</ele>
        <time>2016-04-07T14:51:07Z</time>
      </trkpt>
      <trkpt lat="46.20658" lon="2.42386">
        <ele>407</ele>
        <time>2016-04-07T14:51:11Z</time>
      </trkpt>
      <trkpt lat="46.20659" lon="2.42386">
        <ele>407</ele>
        <time>2016-04-07T14:51:19Z</time>
      </trkpt>
      <trkpt lat="46.2066" lon="2.42385">
        <ele>412</ele>
        <time>2016-04-07T14:51:31Z</time>
      </trkpt>
      <trkpt lat="46.20661" lon="2.42382">
        <ele>415</ele>
        <time>2016-04-07T14:51:48Z</time>
      </trkpt>
      <trkpt lat="46.20662" lon="2.42378">
        <ele>416</ele>
        <time>2016-04-07T14:51:51Z</time>
      </trkpt>
      <trkpt lat="46.20664" lon="2.42373">
        <ele>416</ele>
        <time>2016-04-07T14:51:54Z</time>
      </trkpt>
      <trkpt lat="46.20666" lon="2.42369">
        <ele>416</ele>
        <time>2016-04-07T14:52:07Z</time>
      </trkpt>
      <trkpt lat="46.20669" lon="2.42364">
        <ele>416</ele>
        <time>2016-04-07T14:52:11Z</time>
      </trkpt>
      <trkpt lat="46.2067" lon="2.42359">
        <ele>416</ele>
        <time>2016-04-07T14:52:14Z</time>
      </trkpt>
      <trkpt lat="46.20672" lon="2.42357">
        <ele>416</ele>
        <time>2016-04-07T14:52:24Z</time>
      </trkpt>
      <trkpt lat="46.20675" lon="2.42351">
        <ele>414</ele>
        <time>2016-04-07T14:52:34Z</time>
      </trkpt>
      <trkpt lat="46.20677" lon="2.42347">
        <ele>414</ele>
        <time>2016-04-07T14:52:38Z</time>
      </trkpt>
      <trkpt lat="46.2068" lon="2.42343">
        <ele>414</ele>
        <time>2016-04-07T14:52:42Z</time>
      </trkpt>
      <trkpt lat="46.20681" lon="2.42338">
        <ele>414</ele>
        <time>2016-04-07T14:52:45Z</time>
      </trkpt>
      <trkpt lat="46.20684" lon="2.42331">
        <ele>414</ele>
        <time>2016-04-07T14:52:50Z</time>
      </trkpt>
      <trkpt lat="46.20686" lon="2.42324">
        <ele>413</ele>
        <time>2016-04-07T14:52:54Z</time>
      </trkpt>
      <trkpt lat="46.20687" lon="2.4232">
        <ele>412</ele>
        <time>2016-04-07T14:52:57Z</time>
      </trkpt>
      <trkpt lat="46.20689" lon="2.42316">
        <ele>411</ele>
        <time>2016-04-07T14:53:00Z</time>
      </trkpt>
      <trkpt lat="46.20691" lon="2.42311">
        <ele>411</ele>
        <time>2016-04-07T14:53:03Z</time>
      </trkpt>
      <trkpt lat="46.20694" lon="2.42304">
        <ele>410</ele>
        <time>2016-04-07T14:53:07Z</time>
      </trkpt>
      <trkpt lat="46.20696" lon="2.42299">
        <ele>409</ele>
        <time>2016-04-07T14:53:10Z</time>
      </trkpt>
      <trkpt lat="46.20699" lon="2.42292">
        <ele>408</ele>
        <time>2016-04-07T14:53:14Z</time>
      </trkpt>
      <trkpt lat="46.207" lon="2.42287">
        <ele>407</ele>
        <time>2016-04-07T14:53:17Z</time>
      </trkpt>
      <trkpt lat="46.20702" lon="2.42282">
        <ele>407</ele>
        <time>2016-04-07T14:53:20Z</time>
      </trkpt>
      <trkpt lat="46.20705" lon="2.42275">
        <ele>407</ele>
        <time>2016-04-07T14:53:24Z</time>
      </trkpt>
      <trkpt lat="46.20707" lon="2.42272">
        <ele>407</ele>
        <time>2016-04-07T14:53:30Z</time>
      </trkpt>
      <trkpt lat="46.20708" lon="2.42272">
        <ele>407</ele>
        <time>2016-04-07T14:53:35Z</time>
      </trkpt>
      <trkpt lat="46.20709" lon="2.42272">
        <ele>407</ele>
        <time>2016-04-07T14:53:46Z</time>
      </trkpt>
      <trkpt lat="46.2071" lon="2.42271">
        <ele>407</ele>
        <time>2016-04-07T14:53:50Z</time>
      </trkpt>
      <trkpt lat="46.20712" lon="2.42271">
        <ele>407</ele>
        <time>2016-04-07T14:54:03Z</time>
      </trkpt>
      <trkpt lat="46.20715" lon="2.4227">
        <ele>407</ele>
        <time>2016-04-07T14:54:06Z</time>
      </trkpt>
      <trkpt lat="46.20718" lon="2.42269">
        <ele>407</ele>
        <time>2016-04-07T14:54:09Z</time>
      </trkpt>
      <trkpt lat="46.20722" lon="2.42268">
        <ele>407</ele>
        <time>2016-04-07T14:54:12Z</time>
      </trkpt>
      <trkpt lat="46.20726" lon="2.42268">
        <ele>407</ele>
        <time>2016-04-07T14:54:15Z</time>
      </trkpt>
      <trkpt lat="46.20731" lon="2.42268">
        <ele>407</ele>
        <time>2016-04-07T14:54:18Z</time>
      </trkpt>
      <trkpt lat="46.20735" lon="2.42268">
        <ele>408</ele>
        <time>2016-04-07T14:54:21Z</time>
      </trkpt>
      <trkpt lat="46.20739" lon="2.42267">
        <ele>408</ele>
        <time>2016-04-07T14:54:24Z</time>
      </trkpt>
      <trkpt lat="46.20744" lon="2.42267">
        <ele>408</ele>
        <time>2016-04-07T14:54:27Z</time>
      </trkpt>
      <trkpt lat="46.20748" lon="2.42267">
        <ele>409</ele>
        <time>2016-04-07T14:54:30Z</time>
      </trkpt>
      <trkpt lat="46.20752" lon="2.42267">
        <ele>409</ele>
        <time>2016-04-07T14:54:33Z</time>
      </trkpt>
      <trkpt lat="46.20757" lon="2.42266">
        <ele>409</ele>
        <time>2016-04-07T14:54:36Z</time>
      </trkpt>
      <trkpt lat="46.20762" lon="2.42265">
        <ele>409</ele>
        <time>2016-04-07T14:54:39Z</time>
      </trkpt>
      <trkpt lat="46.20766" lon="2.42265">
        <ele>409</ele>
        <time>2016-04-07T14:54:42Z</time>
      </trkpt>
      <trkpt lat="46.20771" lon="2.42264">
        <ele>409</ele>
        <time>2016-04-07T14:54:45Z</time>
      </trkpt>
      <trkpt lat="46.20776" lon="2.42263">
        <ele>409</ele>
        <time>2016-04-07T14:54:48Z</time>
      </trkpt>
      <trkpt lat="46.2078" lon="2.42262">
        <ele>409</ele>
        <time>2016-04-07T14:54:51Z</time>
      </trkpt>
      <trkpt lat="46.20784" lon="2.4226">
        <ele>409</ele>
        <time>2016-04-07T14:54:54Z</time>
      </trkpt>
      <trkpt lat="46.20789" lon="2.42258">
        <ele>409</ele>
        <time>2016-04-07T14:54:57Z</time>
      </trkpt>
      <trkpt lat="46.20793" lon="2.42256">
        <ele>409</ele>
        <time>2016-04-07T14:55:00Z</time>
      </trkpt>
      <trkpt lat="46.20797" lon="2.42254">
        <ele>409</ele>
        <time>2016-04-07T14:55:03Z</time>
      </trkpt>
      <trkpt lat="46.20802" lon="2.42252">
        <ele>409</ele>
        <time>2016-04-07T14:55:06Z</time>
      </trkpt>
      <trkpt lat="46.20806" lon="2.4225">
        <ele>409</ele>
        <time>2016-04-07T14:55:09Z</time>
      </trkpt>
      <trkpt lat="46.2081" lon="2.42248">
        <ele>409</ele>
        <time>2016-04-07T14:55:12Z</time>
      </trkpt>
      <trkpt lat="46.20813" lon="2.42243">
        <ele>409</ele>
        <time>2016-04-07T14:55:15Z</time>
      </trkpt>
      <trkpt lat="46.20818" lon="2.42237">
        <ele>409</ele>
        <time>2016-04-07T14:55:19Z</time>
      </trkpt>
      <trkpt lat="46.20822" lon="2.42233">
        <ele>409</ele>
        <time>2016-04-07T14:55:22Z</time>
      </trkpt>
      <trkpt lat="46.20826" lon="2.4223">
        <ele>409</ele>
        <time>2016-04-07T14:55:25Z</time>
      </trkpt>
      <trkpt lat="46.20829" lon="2.42226">
        <ele>409</ele>
        <time>2016-04-07T14:55:28Z</time>
      </trkpt>
      <trkpt lat="46.20833" lon="2.42223">
        <ele>409</ele>
        <time>2016-04-07T14:55:31Z</time>
      </trkpt>
      <trkpt lat="46.20837" lon="2.4222">
        <ele>409</ele>
        <time>2016-04-07T14:55:34Z</time>
      </trkpt>
      <trkpt lat="46.20841" lon="2.42216">
        <ele>409</ele>
        <time>2016-04-07T14:55:37Z</time>
      </trkpt>
      <trkpt lat="46.20845" lon="2.42213">
        <ele>408</ele>
        <time>2016-04-07T14:55:40Z</time>
      </trkpt>
      <trkpt lat="46.20849" lon="2.4221">
        <ele>408</ele>
        <time>2016-04-07T14:55:43Z</time>
      </trkpt>
      <trkpt lat="46.20853" lon="2.42208">
        <ele>408</ele>
        <time>2016-04-07T14:55:46Z</time>
      </trkpt>
      <trkpt lat="46.20857" lon="2.42205">
        <ele>408</ele>
        <time>2016-04-07T14:55:49Z</time>
      </trkpt>
      <trkpt lat="46.20861" lon="2.42202">
        <ele>408</ele>
        <time>2016-04-07T14:55:52Z</time>
      </trkpt>
      <trkpt lat="46.20865" lon="2.422">
        <ele>408</ele>
        <time>2016-04-07T14:55:55Z</time>
      </trkpt>
      <trkpt lat="46.2087" lon="2.42197">
        <ele>408</ele>
        <time>2016-04-07T14:55:58Z</time>
      </trkpt>
      <trkpt lat="46.20874" lon="2.42195">
        <ele>408</ele>
        <time>2016-04-07T14:56:01Z</time>
      </trkpt>
      <trkpt lat="46.20879" lon="2.42192">
        <ele>408</ele>
        <time>2016-04-07T14:56:04Z</time>
      </trkpt>
      <trkpt lat="46.20883" lon="2.4219">
        <ele>408</ele>
        <time>2016-04-07T14:56:07Z</time>
      </trkpt>
      <trkpt lat="46.20887" lon="2.42187">
        <ele>408</ele>
        <time>2016-04-07T14:56:10Z</time>
      </trkpt>
      <trkpt lat="46.20892" lon="2.42185">
        <ele>408</ele>
        <time>2016-04-07T14:56:13Z</time>
      </trkpt>
      <trkpt lat="46.20897" lon="2.42184">
        <ele>408</ele>
        <time>2016-04-07T14:56:16Z</time>
      </trkpt>
      <trkpt lat="46.20901" lon="2.42182">
        <ele>408</ele>
        <time>2016-04-07T14:56:19Z</time>
      </trkpt>
      <trkpt lat="46.20906" lon="2.4218">
        <ele>408</ele>
        <time>2016-04-07T14:56:22Z</time>
      </trkpt>
      <trkpt lat="46.20911" lon="2.42179">
        <ele>408</ele>
        <time>2016-04-07T14:56:25Z</time>
      </trkpt>
      <trkpt lat="46.20915" lon="2.42177">
        <ele>408</ele>
        <time>2016-04-07T14:56:28Z</time>
      </trkpt>
      <trkpt lat="46.2092" lon="2.42175">
        <ele>408</ele>
        <time>2016-04-07T14:56:31Z</time>
      </trkpt>
      <trkpt lat="46.20924" lon="2.42173">
        <ele>408</ele>
        <time>2016-04-07T14:56:34Z</time>
      </trkpt>
      <trkpt lat="46.20929" lon="2.42171">
        <ele>408</ele>
        <time>2016-04-07T14:56:37Z</time>
      </trkpt>
      <trkpt lat="46.20933" lon="2.42169">
        <ele>408</ele>
        <time>2016-04-07T14:56:40Z</time>
      </trkpt>
      <trkpt lat="46.20938" lon="2.42167">
        <ele>408</ele>
        <time>2016-04-07T14:56:43Z</time>
      </trkpt>
      <trkpt lat="46.20943" lon="2.42165">
        <ele>408</ele>
        <time>2016-04-07T14:56:46Z</time>
      </trkpt>
      <trkpt lat="46.20947" lon="2.42163">
        <ele>408</ele>
        <time>2016-04-07T14:56:49Z</time>
      </trkpt>
      <trkpt lat="46.20952" lon="2.42161">
        <ele>408</ele>
        <time>2016-04-07T14:56:52Z</time>
      </trkpt>
      <trkpt lat="46.20957" lon="2.42159">
        <ele>408</ele>
        <time>2016-04-07T14:56:55Z</time>
      </trkpt>
      <trkpt lat="46.20961" lon="2.42157">
        <ele>407</ele>
        <time>2016-04-07T14:56:58Z</time>
      </trkpt>
      <trkpt lat="46.20966" lon="2.42155">
        <ele>407</ele>
        <time>2016-04-07T14:57:01Z</time>
      </trkpt>
      <trkpt lat="46.20971" lon="2.42153">
        <ele>407</ele>
        <time>2016-04-07T14:57:04Z</time>
      </trkpt>
      <trkpt lat="46.20975" lon="2.42151">
        <ele>407</ele>
        <time>2016-04-07T14:57:07Z</time>
      </trkpt>
      <trkpt lat="46.2098" lon="2.42148">
        <ele>407</ele>
        <time>2016-04-07T14:57:10Z</time>
      </trkpt>
      <trkpt lat="46.20985" lon="2.42146">
        <ele>406</ele>
        <time>2016-04-07T14:57:13Z</time>
      </trkpt>
      <trkpt lat="46.20989" lon="2.42144">
        <ele>406</ele>
        <time>2016-04-07T14:57:16Z</time>
      </trkpt>
      <trkpt lat="46.20994" lon="2.42141">
        <ele>406</ele>
        <time>2016-04-07T14:57:19Z</time>
      </trkpt>
      <trkpt lat="46.20998" lon="2.42139">
        <ele>406</ele>
        <time>2016-04-07T14:57:22Z</time>
      </trkpt>
      <trkpt lat="46.21003" lon="2.42137">
        <ele>406</ele>
        <time>2016-04-07T14:57:25Z</time>
      </trkpt>
      <trkpt lat="46.21007" lon="2.42136">
        <ele>406</ele>
        <time>2016-04-07T14:57:28Z</time>
      </trkpt>
      <trkpt lat="46.21012" lon="2.42135">
        <ele>406</ele>
        <time>2016-04-07T14:57:31Z</time>
      </trkpt>
      <trkpt lat="46.21016" lon="2.42133">
        <ele>406</ele>
        <time>2016-04-07T14:57:34Z</time>
      </trkpt>
      <trkpt lat="46.21021" lon="2.42131">
        <ele>406</ele>
        <time>2016-04-07T14:57:37Z</time>
      </trkpt>
      <trkpt lat="46.21025" lon="2.42129">
        <ele>406</ele>
        <time>2016-04-07T14:57:40Z</time>
      </trkpt>
      <trkpt lat="46.21029" lon="2.42127">
        <ele>406</ele>
        <time>2016-04-07T14:57:43Z</time>
      </trkpt>
      <trkpt lat="46.21033" lon="2.42125">
        <ele>406</ele>
        <time>2016-04-07T14:57:46Z</time>
      </trkpt>
      <trkpt lat="46.21038" lon="2.42123">
        <ele>406</ele>
        <time>2016-04-07T14:57:49Z</time>
      </trkpt>
      <trkpt lat="46.21043" lon="2.42121">
        <ele>406</ele>
        <time>2016-04-07T14:57:52Z</time>
      </trkpt>
      <trkpt lat="46.21047" lon="2.42119">
        <ele>406</ele>
        <time>2016-04-07T14:57:55Z</time>
      </trkpt>
      <trkpt lat="46.21052" lon="2.42117">
        <ele>406</ele>
        <time>2016-04-07T14:57:58Z</time>
      </trkpt>
      <trkpt lat="46.21056" lon="2.42115">
        <ele>406</ele>
        <time>2016-04-07T14:58:01Z</time>
      </trkpt>
      <trkpt lat="46.21061" lon="2.42113">
        <ele>406</ele>
        <time>2016-04-07T14:58:04Z</time>
      </trkpt>
      <trkpt lat="46.21066" lon="2.42112">
        <ele>406</ele>
        <time>2016-04-07T14:58:07Z</time>
      </trkpt>
      <trkpt lat="46.2107" lon="2.4211">
        <ele>406</ele>
        <time>2016-04-07T14:58:10Z</time>
      </trkpt>
      <trkpt lat="46.21075" lon="2.42108">
        <ele>406</ele>
        <time>2016-04-07T14:58:13Z</time>
      </trkpt>
      <trkpt lat="46.2108" lon="2.42105">
        <ele>406</ele>
        <time>2016-04-07T14:58:16Z</time>
      </trkpt>
      <trkpt lat="46.21084" lon="2.42103">
        <ele>406</ele>
        <time>2016-04-07T14:58:19Z</time>
      </trkpt>
      <trkpt lat="46.21089" lon="2.42101">
        <ele>406</ele>
        <time>2016-04-07T14:58:22Z</time>
      </trkpt>
      <trkpt lat="46.21093" lon="2.42098">
        <ele>406</ele>
        <time>2016-04-07T14:58:25Z</time>
      </trkpt>
      <trkpt lat="46.21098" lon="2.42095">
        <ele>406</ele>
        <time>2016-04-07T14:58:28Z</time>
      </trkpt>
      <trkpt lat="46.21102" lon="2.42093">
        <ele>406</ele>
        <time>2016-04-07T14:58:31Z</time>
      </trkpt>
      <trkpt lat="46.21106" lon="2.4209">
        <ele>406</ele>
        <time>2016-04-07T14:58:34Z</time>
      </trkpt>
      <trkpt lat="46.2111" lon="2.42087">
        <ele>406</ele>
        <time>2016-04-07T14:58:37Z</time>
      </trkpt>
      <trkpt lat="46.21114" lon="2.42084">
        <ele>406</ele>
        <time>2016-04-07T14:58:40Z</time>
      </trkpt>
      <trkpt lat="46.21118" lon="2.42081">
        <ele>406</ele>
        <time>2016-04-07T14:58:43Z</time>
      </trkpt>
      <trkpt lat="46.21122" lon="2.42077">
        <ele>406</ele>
        <time>2016-04-07T14:58:46Z</time>
      </trkpt>
      <trkpt lat="46.21126" lon="2.42074">
        <ele>406</ele>
        <time>2016-04-07T14:58:49Z</time>
      </trkpt>
      <trkpt lat="46.2113" lon="2.42072">
        <ele>406</ele>
        <time>2016-04-07T14:58:52Z</time>
      </trkpt>
      <trkpt lat="46.21134" lon="2.42069">
        <ele>406</ele>
        <time>2016-04-07T14:58:55Z</time>
      </trkpt>
      <trkpt lat="46.21138" lon="2.42066">
        <ele>406</ele>
        <time>2016-04-07T14:58:58Z</time>
      </trkpt>
      <trkpt lat="46.21142" lon="2.42063">
        <ele>406</ele>
        <time>2016-04-07T14:59:01Z</time>
      </trkpt>
      <trkpt lat="46.21146" lon="2.4206">
        <ele>406</ele>
        <time>2016-04-07T14:59:04Z</time>
      </trkpt>
      <trkpt lat="46.2115" lon="2.42057">
        <ele>406</ele>
        <time>2016-04-07T14:59:07Z</time>
      </trkpt>
      <trkpt lat="46.21154" lon="2.42055">
        <ele>406</ele>
        <time>2016-04-07T14:59:10Z</time>
      </trkpt>
      <trkpt lat="46.21157" lon="2.4205">
        <ele>406</ele>
        <time>2016-04-07T14:59:13Z</time>
      </trkpt>
      <trkpt lat="46.21159" lon="2.42044">
        <ele>407</ele>
        <time>2016-04-07T14:59:16Z</time>
      </trkpt>
      <trkpt lat="46.21159" lon="2.42038">
        <ele>407</ele>
        <time>2016-04-07T14:59:19Z</time>
      </trkpt>
      <trkpt lat="46.21157" lon="2.42032">
        <ele>408</ele>
        <time>2016-04-07T14:59:22Z</time>
      </trkpt>
      <trkpt lat="46.21156" lon="2.42026">
        <ele>408</ele>
        <time>2016-04-07T14:59:25Z</time>
      </trkpt>
      <trkpt lat="46.21154" lon="2.4202">
        <ele>408</ele>
        <time>2016-04-07T14:59:28Z</time>
      </trkpt>
      <trkpt lat="46.21151" lon="2.42015">
        <ele>409</ele>
        <time>2016-04-07T14:59:31Z</time>
      </trkpt>
      <trkpt lat="46.21149" lon="2.4201">
        <ele>409</ele>
        <time>2016-04-07T14:59:34Z</time>
      </trkpt>
      <trkpt lat="46.21146" lon="2.42005">
        <ele>409</ele>
        <time>2016-04-07T14:59:37Z</time>
      </trkpt>
      <trkpt lat="46.21144" lon="2.41999">
        <ele>409</ele>
        <time>2016-04-07T14:59:40Z</time>
      </trkpt>
      <trkpt lat="46.21141" lon="2.41994">
        <ele>409</ele>
        <time>2016-04-07T14:59:43Z</time>
      </trkpt>
      <trkpt lat="46.21139" lon="2.41988">
        <ele>409</ele>
        <time>2016-04-07T14:59:46Z</time>
      </trkpt>
      <trkpt lat="46.21137" lon="2.41982">
        <ele>409</ele>
        <time>2016-04-07T14:59:49Z</time>
      </trkpt>
      <trkpt lat="46.21135" lon="2.41977">
        <ele>409</ele>
        <time>2016-04-07T14:59:52Z</time>
      </trkpt>
      <trkpt lat="46.21133" lon="2.41971">
        <ele>409</ele>
        <time>2016-04-07T14:59:55Z</time>
      </trkpt>
      <trkpt lat="46.21131" lon="2.41967">
        <ele>409</ele>
        <time>2016-04-07T14:59:58Z</time>
      </trkpt>
      <trkpt lat="46.2113" lon="2.41963">
        <ele>409</ele>
        <time>2016-04-07T15:00:03Z</time>
      </trkpt>
      <trkpt lat="46.21128" lon="2.4196">
        <ele>409</ele>
        <time>2016-04-07T15:00:07Z</time>
      </trkpt>
      <trkpt lat="46.21126" lon="2.41955">
        <ele>409</ele>
        <time>2016-04-07T15:00:10Z</time>
      </trkpt>
      <trkpt lat="46.21124" lon="2.4195">
        <ele>409</ele>
        <time>2016-04-07T15:00:13Z</time>
      </trkpt>
      <trkpt lat="46.21123" lon="2.41945">
        <ele>409</ele>
        <time>2016-04-07T15:00:16Z</time>
      </trkpt>
      <trkpt lat="46.2112" lon="2.4194">
        <ele>409</ele>
        <time>2016-04-07T15:00:19Z</time>
      </trkpt>
      <trkpt lat="46.21118" lon="2.41934">
        <ele>409</ele>
        <time>2016-04-07T15:00:22Z</time>
      </trkpt>
      <trkpt lat="46.21115" lon="2.41928">
        <ele>409</ele>
        <time>2016-04-07T15:00:25Z</time>
      </trkpt>
      <trkpt lat="46.21113" lon="2.41922">
        <ele>409</ele>
        <time>2016-04-07T15:00:28Z</time>
      </trkpt>
      <trkpt lat="46.21112" lon="2.41917">
        <ele>409</ele>
        <time>2016-04-07T15:00:31Z</time>
      </trkpt>
      <trkpt lat="46.21109" lon="2.41912">
        <ele>409</ele>
        <time>2016-04-07T15:00:34Z</time>
      </trkpt>
      <trkpt lat="46.21107" lon="2.41906">
        <ele>409</ele>
        <time>2016-04-07T15:00:37Z</time>
      </trkpt>
      <trkpt lat="46.21104" lon="2.419">
        <ele>409</ele>
        <time>2016-04-07T15:00:40Z</time>
      </trkpt>
      <trkpt lat="46.21102" lon="2.41895">
        <ele>409</ele>
        <time>2016-04-07T15:00:43Z</time>
      </trkpt>
      <trkpt lat="46.211" lon="2.4189">
        <ele>409</ele>
        <time>2016-04-07T15:00:46Z</time>
      </trkpt>
      <trkpt lat="46.21098" lon="2.41885">
        <ele>409</ele>
        <time>2016-04-07T15:00:49Z</time>
      </trkpt>
      <trkpt lat="46.21095" lon="2.41879">
        <ele>409</ele>
        <time>2016-04-07T15:00:52Z</time>
      </trkpt>
      <trkpt lat="46.21093" lon="2.41874">
        <ele>409</ele>
        <time>2016-04-07T15:00:55Z</time>
      </trkpt>
      <trkpt lat="46.21091" lon="2.41868">
        <ele>409</ele>
        <time>2016-04-07T15:00:58Z</time>
      </trkpt>
      <trkpt lat="46.21089" lon="2.41863">
        <ele>409</ele>
        <time>2016-04-07T15:01:01Z</time>
      </trkpt>
      <trkpt lat="46.21087" lon="2.41858">
        <ele>409</ele>
        <time>2016-04-07T15:01:04Z</time>
      </trkpt>
      <trkpt lat="46.21084" lon="2.41852">
        <ele>409</ele>
        <time>2016-04-07T15:01:07Z</time>
      </trkpt>
      <trkpt lat="46.21082" lon="2.41846">
        <ele>409</ele>
        <time>2016-04-07T15:01:10Z</time>
      </trkpt>
      <trkpt lat="46.2108" lon="2.41841">
        <ele>409</ele>
        <time>2016-04-07T15:01:13Z</time>
      </trkpt>
      <trkpt lat="46.21078" lon="2.41835">
        <ele>409</ele>
        <time>2016-04-07T15:01:16Z</time>
      </trkpt>
      <trkpt lat="46.21075" lon="2.4183">
        <ele>409</ele>
        <time>2016-04-07T15:01:19Z</time>
      </trkpt>
      <trkpt lat="46.21072" lon="2.41824">
        <ele>409</ele>
        <time>2016-04-07T15:01:22Z</time>
      </trkpt>
      <trkpt lat="46.21069" lon="2.41818">
        <ele>409</ele>
        <time>2016-04-07T15:01:25Z</time>
      </trkpt>
      <trkpt lat="46.21067" lon="2.41812">
        <ele>409</ele>
        <time>2016-04-07T15:01:28Z</time>
      </trkpt>
      <trkpt lat="46.21065" lon="2.41807">
        <ele>409</ele>
        <time>2016-04-07T15:01:31Z</time>
      </trkpt>
      <trkpt lat="46.21062" lon="2.41802">
        <ele>409</ele>
        <time>2016-04-07T15:01:34Z</time>
      </trkpt>
      <trkpt lat="46.21059" lon="2.41796">
        <ele>409</ele>
        <time>2016-04-07T15:01:37Z</time>
      </trkpt>
      <trkpt lat="46.21057" lon="2.41791">
        <ele>409</ele>
        <time>2016-04-07T15:01:40Z</time>
      </trkpt>
      <trkpt lat="46.21055" lon="2.41785">
        <ele>409</ele>
        <time>2016-04-07T15:01:43Z</time>
      </trkpt>
      <trkpt lat="46.21053" lon="2.41779">
        <ele>409</ele>
        <time>2016-04-07T15:01:46Z</time>
      </trkpt>
      <trkpt lat="46.21049" lon="2.41774">
        <ele>409</ele>
        <time>2016-04-07T15:01:49Z</time>
      </trkpt>
      <trkpt lat="46.21047" lon="2.41768">
        <ele>409</ele>
        <time>2016-04-07T15:01:52Z</time>
      </trkpt>
      <trkpt lat="46.21045" lon="2.41762">
        <ele>409</ele>
        <time>2016-04-07T15:01:55Z</time>
      </trkpt>
      <trkpt lat="46.21042" lon="2.41756">
        <ele>409</ele>
        <time>2016-04-07T15:01:58Z</time>
      </trkpt>
      <trkpt lat="46.21039" lon="2.4175">
        <ele>409</ele>
        <time>2016-04-07T15:02:01Z</time>
      </trkpt>
      <trkpt lat="46.21037" lon="2.41745">
        <ele>408</ele>
        <time>2016-04-07T15:02:04Z</time>
      </trkpt>
      <trkpt lat="46.21035" lon="2.4174">
        <ele>407</ele>
        <time>2016-04-07T15:02:07Z</time>
      </trkpt>
      <trkpt lat="46.21032" lon="2.41734">
        <ele>407</ele>
        <time>2016-04-07T15:02:10Z</time>
      </trkpt>
      <trkpt lat="46.2103" lon="2.41728">
        <ele>407</ele>
        <time>2016-04-07T15:02:13Z</time>
      </trkpt>
      <trkpt lat="46.21028" lon="2.41722">
        <ele>407</ele>
        <time>2016-04-07T15:02:16Z</time>
      </trkpt>
      <trkpt lat="46.21026" lon="2.41717">
        <ele>406</ele>
        <time>2016-04-07T15:02:19Z</time>
      </trkpt>
      <trkpt lat="46.21024" lon="2.41711">
        <ele>406</ele>
        <time>2016-04-07T15:02:22Z</time>
      </trkpt>
      <trkpt lat="46.21021" lon="2.41706">
        <ele>406</ele>
        <time>2016-04-07T15:02:25Z</time>
      </trkpt>
      <trkpt lat="46.21018" lon="2.41698">
        <ele>406</ele>
        <time>2016-04-07T15:02:28Z</time>
      </trkpt>
      <trkpt lat="46.21016" lon="2.41692">
        <ele>406</ele>
        <time>2016-04-07T15:02:31Z</time>
      </trkpt>
      <trkpt lat="46.21013" lon="2.41686">
        <ele>406</ele>
        <time>2016-04-07T15:02:34Z</time>
      </trkpt>
      <trkpt lat="46.21011" lon="2.4168">
        <ele>406</ele>
        <time>2016-04-07T15:02:37Z</time>
      </trkpt>
      <trkpt lat="46.21008" lon="2.41674">
        <ele>406</ele>
        <time>2016-04-07T15:02:40Z</time>
      </trkpt>
      <trkpt lat="46.21006" lon="2.41668">
        <ele>406</ele>
        <time>2016-04-07T15:02:43Z</time>
      </trkpt>
      <trkpt lat="46.21004" lon="2.41662">
        <ele>406</ele>
        <time>2016-04-07T15:02:46Z</time>
      </trkpt>
      <trkpt lat="46.21002" lon="2.41657">
        <ele>406</ele>
        <time>2016-04-07T15:02:49Z</time>
      </trkpt>
      <trkpt lat="46.21001" lon="2.41651">
        <ele>406</ele>
        <time>2016-04-07T15:02:52Z</time>
      </trkpt>
      <trkpt lat="46.20999" lon="2.41645">
        <ele>406</ele>
        <time>2016-04-07T15:02:55Z</time>
      </trkpt>
      <trkpt lat="46.20997" lon="2.41638">
        <ele>406</ele>
        <time>2016-04-07T15:02:58Z</time>
      </trkpt>
      <trkpt lat="46.20995" lon="2.41632">
        <ele>406</ele>
        <time>2016-04-07T15:03:01Z</time>
      </trkpt>
      <trkpt lat="46.20994" lon="2.41626">
        <ele>406</ele>
        <time>2016-04-07T15:03:04Z</time>
      </trkpt>
      <trkpt lat="46.20992" lon="2.4162">
        <ele>406</ele>
        <time>2016-04-07T15:03:07Z</time>
      </trkpt>
      <trkpt lat="46.2099" lon="2.41614">
        <ele>406</ele>
        <time>2016-04-07T15:03:10Z</time>
      </trkpt>
      <trkpt lat="46.20989" lon="2.41609">
        <ele>406</ele>
        <time>2016-04-07T15:03:13Z</time>
      </trkpt>
      <trkpt lat="46.20987" lon="2.41603">
        <ele>406</ele>
        <time>2016-04-07T15:03:16Z</time>
      </trkpt>
      <trkpt lat="46.20986" lon="2.41597">
        <ele>406</ele>
        <time>2016-04-07T15:03:19Z</time>
      </trkpt>
      <trkpt lat="46.20984" lon="2.41592">
        <ele>406</ele>
        <time>2016-04-07T15:03:22Z</time>
      </trkpt>
      <trkpt lat="46.20984" lon="2.41585">
        <ele>406</ele>
        <time>2016-04-07T15:03:25Z</time>
      </trkpt>
      <trkpt lat="46.20982" lon="2.41579">
        <ele>406</ele>
        <time>2016-04-07T15:03:28Z</time>
      </trkpt>
      <trkpt lat="46.20981" lon="2.41573">
        <ele>406</ele>
        <time>2016-04-07T15:03:31Z</time>
      </trkpt>
      <trkpt lat="46.2098" lon="2.41567">
        <ele>406</ele>
        <time>2016-04-07T15:03:34Z</time>
      </trkpt>
      <trkpt lat="46.20978" lon="2.41561">
        <ele>406</ele>
        <time>2016-04-07T15:03:37Z</time>
      </trkpt>
      <trkpt lat="46.20976" lon="2.41555">
        <ele>406</ele>
        <time>2016-04-07T15:03:40Z</time>
      </trkpt>
      <trkpt lat="46.20974" lon="2.41549">
        <ele>406</ele>
        <time>2016-04-07T15:03:43Z</time>
      </trkpt>
      <trkpt lat="46.20972" lon="2.41543">
        <ele>406</ele>
        <time>2016-04-07T15:03:46Z</time>
      </trkpt>
      <trkpt lat="46.20971" lon="2.41537">
        <ele>406</ele>
        <time>2016-04-07T15:03:49Z</time>
      </trkpt>
      <trkpt lat="46.20969" lon="2.41531">
        <ele>406</ele>
        <time>2016-04-07T15:03:52Z</time>
      </trkpt>
      <trkpt lat="46.20967" lon="2.41526">
        <ele>405</ele>
        <time>2016-04-07T15:03:55Z</time>
      </trkpt>
      <trkpt lat="46.20966" lon="2.41522">
        <ele>403</ele>
        <time>2016-04-07T15:03:58Z</time>
      </trkpt>
      <trkpt lat="46.20965" lon="2.41517">
        <ele>401</ele>
        <time>2016-04-07T15:04:01Z</time>
      </trkpt>
      <trkpt lat="46.20964" lon="2.41513">
        <ele>399</ele>
        <time>2016-04-07T15:04:04Z</time>
      </trkpt>
      <trkpt lat="46.20961" lon="2.41508">
        <ele>398</ele>
        <time>2016-04-07T15:04:07Z</time>
      </trkpt>
      <trkpt lat="46.20958" lon="2.41503">
        <ele>398</ele>
        <time>2016-04-07T15:04:10Z</time>
      </trkpt>
      <trkpt lat="46.20956" lon="2.41498">
        <ele>398</ele>
        <time>2016-04-07T15:04:13Z</time>
      </trkpt>
      <trkpt lat="46.20952" lon="2.41493">
        <ele>397</ele>
        <time>2016-04-07T15:04:17Z</time>
      </trkpt>
      <trkpt lat="46.2095" lon="2.41489">
        <ele>397</ele>
        <time>2016-04-07T15:04:20Z</time>
      </trkpt>
      <trkpt lat="46.20948" lon="2.41484">
        <ele>396</ele>
        <time>2016-04-07T15:04:23Z</time>
      </trkpt>
      <trkpt lat="46.20945" lon="2.41476">
        <ele>395</ele>
        <time>2016-04-07T15:04:26Z</time>
      </trkpt>
      <trkpt lat="46.20942" lon="2.41467">
        <ele>395</ele>
        <time>2016-04-07T15:04:29Z</time>
      </trkpt>
      <trkpt lat="46.2094" lon="2.4146">
        <ele>395</ele>
        <time>2016-04-07T15:04:32Z</time>
      </trkpt>
      <trkpt lat="46.20938" lon="2.41452">
        <ele>395</ele>
        <time>2016-04-07T15:04:35Z</time>
      </trkpt>
      <trkpt lat="46.20937" lon="2.41445">
        <ele>395</ele>
        <time>2016-04-07T15:04:38Z</time>
      </trkpt>
      <trkpt lat="46.20936" lon="2.41438">
        <ele>395</ele>
        <time>2016-04-07T15:04:41Z</time>
      </trkpt>
      <trkpt lat="46.20935" lon="2.41432">
        <ele>395</ele>
        <time>2016-04-07T15:04:44Z</time>
      </trkpt>
      <trkpt lat="46.20935" lon="2.41425">
        <ele>395</ele>
        <time>2016-04-07T15:04:47Z</time>
      </trkpt>
      <trkpt lat="46.20935" lon="2.41419">
        <ele>395</ele>
        <time>2016-04-07T15:04:50Z</time>
      </trkpt>
      <trkpt lat="46.20933" lon="2.41411">
        <ele>395</ele>
        <time>2016-04-07T15:04:53Z</time>
      </trkpt>
      <trkpt lat="46.20932" lon="2.41405">
        <ele>395</ele>
        <time>2016-04-07T15:04:56Z</time>
      </trkpt>
      <trkpt lat="46.20931" lon="2.41398">
        <ele>395</ele>
        <time>2016-04-07T15:04:59Z</time>
      </trkpt>
      <trkpt lat="46.20929" lon="2.41393">
        <ele>395</ele>
        <time>2016-04-07T15:05:02Z</time>
      </trkpt>
      <trkpt lat="46.20928" lon="2.41386">
        <ele>395</ele>
        <time>2016-04-07T15:05:05Z</time>
      </trkpt>
      <trkpt lat="46.20926" lon="2.4138">
        <ele>395</ele>
        <time>2016-04-07T15:05:08Z</time>
      </trkpt>
      <trkpt lat="46.20924" lon="2.41373">
        <ele>395</ele>
        <time>2016-04-07T15:05:11Z</time>
      </trkpt>
      <trkpt lat="46.20923" lon="2.41368">
        <ele>395</ele>
        <time>2016-04-07T15:05:14Z</time>
      </trkpt>
      <trkpt lat="46.20921" lon="2.41362">
        <ele>395</ele>
        <time>2016-04-07T15:05:17Z</time>
      </trkpt>
      <trkpt lat="46.20919" lon="2.41356">
        <ele>395</ele>
        <time>2016-04-07T15:05:20Z</time>
      </trkpt>
      <trkpt lat="46.20917" lon="2.41351">
        <ele>394</ele>
        <time>2016-04-07T15:05:23Z</time>
      </trkpt>
      <trkpt lat="46.20915" lon="2.41347">
        <ele>394</ele>
        <time>2016-04-07T15:05:26Z</time>
      </trkpt>
      <trkpt lat="46.20913" lon="2.41341">
        <ele>393</ele>
        <time>2016-04-07T15:05:29Z</time>
      </trkpt>
      <trkpt lat="46.20909" lon="2.41336">
        <ele>392</ele>
        <time>2016-04-07T15:05:33Z</time>
      </trkpt>
      <trkpt lat="46.20907" lon="2.4133">
        <ele>391</ele>
        <time>2016-04-07T15:05:36Z</time>
      </trkpt>
      <trkpt lat="46.20905" lon="2.41327">
        <ele>390</ele>
        <time>2016-04-07T15:05:39Z</time>
      </trkpt>
      <trkpt lat="46.20901" lon="2.41321">
        <ele>389</ele>
        <time>2016-04-07T15:05:43Z</time>
      </trkpt>
      <trkpt lat="46.20898" lon="2.41318">
        <ele>388</ele>
        <time>2016-04-07T15:05:46Z</time>
      </trkpt>
      <trkpt lat="46.20895" lon="2.41317">
        <ele>388</ele>
        <time>2016-04-07T15:05:49Z</time>
      </trkpt>
      <trkpt lat="46.20891" lon="2.41315">
        <ele>388</ele>
        <time>2016-04-07T15:05:52Z</time>
      </trkpt>
      <trkpt lat="46.20887" lon="2.41313">
        <ele>387</ele>
        <time>2016-04-07T15:05:55Z</time>
      </trkpt>
      <trkpt lat="46.20882" lon="2.41309">
        <ele>387</ele>
        <time>2016-04-07T15:05:58Z</time>
      </trkpt>
      <trkpt lat="46.20879" lon="2.41306">
        <ele>387</ele>
        <time>2016-04-07T15:06:01Z</time>
      </trkpt>
      <trkpt lat="46.20875" lon="2.41305">
        <ele>387</ele>
        <time>2016-04-07T15:06:04Z</time>
      </trkpt>
      <trkpt lat="46.20871" lon="2.41303">
        <ele>387</ele>
        <time>2016-04-07T15:06:07Z</time>
      </trkpt>
      <trkpt lat="46.20867" lon="2.41302">
        <ele>387</ele>
        <time>2016-04-07T15:06:11Z</time>
      </trkpt>
      <trkpt lat="46.20863" lon="2.41301">
        <ele>387</ele>
        <time>2016-04-07T15:06:14Z</time>
      </trkpt>
      <trkpt lat="46.2086" lon="2.413">
        <ele>386</ele>
        <time>2016-04-07T15:06:17Z</time>
      </trkpt>
      <trkpt lat="46.20855" lon="2.41298">
        <ele>385</ele>
        <time>2016-04-07T15:06:20Z</time>
      </trkpt>
      <trkpt lat="46.2085" lon="2.41296">
        <ele>384</ele>
        <time>2016-04-07T15:06:23Z</time>
      </trkpt>
      <trkpt lat="46.20847" lon="2.41295">
        <ele>383</ele>
        <time>2016-04-07T15:06:26Z</time>
      </trkpt>
      <trkpt lat="46.20842" lon="2.41294">
        <ele>381</ele>
        <time>2016-04-07T15:06:29Z</time>
      </trkpt>
      <trkpt lat="46.20838" lon="2.41291">
        <ele>379</ele>
        <time>2016-04-07T15:06:32Z</time>
      </trkpt>
      <trkpt lat="46.20833" lon="2.4129">
        <ele>378</ele>
        <time>2016-04-07T15:06:35Z</time>
      </trkpt>
      <trkpt lat="46.20829" lon="2.41287">
        <ele>376</ele>
        <time>2016-04-07T15:06:38Z</time>
      </trkpt>
      <trkpt lat="46.20825" lon="2.41285">
        <ele>374</ele>
        <time>2016-04-07T15:06:41Z</time>
      </trkpt>
      <trkpt lat="46.20821" lon="2.41284">
        <ele>373</ele>
        <time>2016-04-07T15:06:44Z</time>
      </trkpt>
      <trkpt lat="46.20816" lon="2.41282">
        <ele>373</ele>
        <time>2016-04-07T15:06:47Z</time>
      </trkpt>
      <trkpt lat="46.2081" lon="2.41279">
        <ele>373</ele>
        <time>2016-04-07T15:06:50Z</time>
      </trkpt>
      <trkpt lat="46.20806" lon="2.41278">
        <ele>373</ele>
        <time>2016-04-07T15:06:53Z</time>
      </trkpt>
      <trkpt lat="46.20801" lon="2.41276">
        <ele>373</ele>
        <time>2016-04-07T15:06:56Z</time>
      </trkpt>
      <trkpt lat="46.20797" lon="2.41276">
        <ele>373</ele>
        <time>2016-04-07T15:06:59Z</time>
      </trkpt>
      <trkpt lat="46.20792" lon="2.41276">
        <ele>373</ele>
        <time>2016-04-07T15:07:02Z</time>
      </trkpt>
      <trkpt lat="46.20787" lon="2.41276">
        <ele>373</ele>
        <time>2016-04-07T15:07:05Z</time>
      </trkpt>
      <trkpt lat="46.20782" lon="2.41276">
        <ele>373</ele>
        <time>2016-04-07T15:07:08Z</time>
      </trkpt>
      <trkpt lat="46.20778" lon="2.41277">
        <ele>373</ele>
        <time>2016-04-07T15:07:11Z</time>
      </trkpt>
      <trkpt lat="46.20773" lon="2.41277">
        <ele>373</ele>
        <time>2016-04-07T15:07:14Z</time>
      </trkpt>
      <trkpt lat="46.20769" lon="2.41278">
        <ele>373</ele>
        <time>2016-04-07T15:07:17Z</time>
      </trkpt>
      <trkpt lat="46.20765" lon="2.4128">
        <ele>373</ele>
        <time>2016-04-07T15:07:20Z</time>
      </trkpt>
      <trkpt lat="46.20761" lon="2.41281">
        <ele>373</ele>
        <time>2016-04-07T15:07:23Z</time>
      </trkpt>
      <trkpt lat="46.20756" lon="2.41282">
        <ele>373</ele>
        <time>2016-04-07T15:07:26Z</time>
      </trkpt>
      <trkpt lat="46.20752" lon="2.41284">
        <ele>373</ele>
        <time>2016-04-07T15:07:29Z</time>
      </trkpt>
      <trkpt lat="46.20748" lon="2.41284">
        <ele>373</ele>
        <time>2016-04-07T15:07:32Z</time>
      </trkpt>
      <trkpt lat="46.20746" lon="2.41282">
        <ele>373</ele>
        <time>2016-04-07T15:07:35Z</time>
      </trkpt>
      <trkpt lat="46.20743" lon="2.4128">
        <ele>373</ele>
        <time>2016-04-07T15:07:38Z</time>
      </trkpt>
      <trkpt lat="46.20742" lon="2.41279">
        <ele>373</ele>
        <time>2016-04-07T15:07:43Z</time>
      </trkpt>
      <trkpt lat="46.20741" lon="2.41277">
        <ele>374</ele>
        <time>2016-04-07T15:07:48Z</time>
      </trkpt>
      <trkpt lat="46.20741" lon="2.41272">
        <ele>375</ele>
        <time>2016-04-07T15:07:53Z</time>
      </trkpt>
      <trkpt lat="46.20739" lon="2.41271">
        <ele>376</ele>
        <time>2016-04-07T15:08:06Z</time>
      </trkpt>
      <trkpt lat="46.20739" lon="2.41269">
        <ele>378</ele>
        <time>2016-04-07T15:08:14Z</time>
      </trkpt>
      <trkpt lat="46.2074" lon="2.41265">
        <ele>378</ele>
        <time>2016-04-07T15:08:17Z</time>
      </trkpt>
      <trkpt lat="46.20743" lon="2.4126">
        <ele>378</ele>
        <time>2016-04-07T15:08:21Z</time>
      </trkpt>
      <trkpt lat="46.20746" lon="2.41254">
        <ele>378</ele>
        <time>2016-04-07T15:08:24Z</time>
      </trkpt>
      <trkpt lat="46.20748" lon="2.41249">
        <ele>378</ele>
        <time>2016-04-07T15:08:27Z</time>
      </trkpt>
      <trkpt lat="46.2075" lon="2.41245">
        <ele>376</ele>
        <time>2016-04-07T15:08:30Z</time>
      </trkpt>
      <trkpt lat="46.20752" lon="2.4124">
        <ele>374</ele>
        <time>2016-04-07T15:08:33Z</time>
      </trkpt>
      <trkpt lat="46.20754" lon="2.41234">
        <ele>373</ele>
        <time>2016-04-07T15:08:36Z</time>
      </trkpt>
      <trkpt lat="46.20753" lon="2.41229">
        <ele>372</ele>
        <time>2016-04-07T15:08:40Z</time>
      </trkpt>
      <trkpt lat="46.20749" lon="2.41233">
        <ele>372</ele>
        <time>2016-04-07T15:08:44Z</time>
      </trkpt>
      <trkpt lat="46.20747" lon="2.41236">
        <ele>371</ele>
        <time>2016-04-07T15:08:47Z</time>
      </trkpt>
      <trkpt lat="46.20743" lon="2.41238">
        <ele>371</ele>
        <time>2016-04-07T15:08:50Z</time>
      </trkpt>
      <trkpt lat="46.20739" lon="2.4124">
        <ele>370</ele>
        <time>2016-04-07T15:08:53Z</time>
      </trkpt>
      <trkpt lat="46.20735" lon="2.41243">
        <ele>369</ele>
        <time>2016-04-07T15:08:57Z</time>
      </trkpt>
      <trkpt lat="46.20731" lon="2.41245">
        <ele>369</ele>
        <time>2016-04-07T15:09:00Z</time>
      </trkpt>
      <trkpt lat="46.20726" lon="2.41246">
        <ele>369</ele>
        <time>2016-04-07T15:09:04Z</time>
      </trkpt>
      <trkpt lat="46.20722" lon="2.41248">
        <ele>369</ele>
        <time>2016-04-07T15:09:07Z</time>
      </trkpt>
      <trkpt lat="46.20719" lon="2.41248">
        <ele>369</ele>
        <time>2016-04-07T15:09:10Z</time>
      </trkpt>
      <trkpt lat="46.20715" lon="2.41249">
        <ele>369</ele>
        <time>2016-04-07T15:09:13Z</time>
      </trkpt>
      <trkpt lat="46.20711" lon="2.41251">
        <ele>369</ele>
        <time>2016-04-07T15:09:16Z</time>
      </trkpt>
      <trkpt lat="46.20707" lon="2.41254">
        <ele>369</ele>
        <time>2016-04-07T15:09:20Z</time>
      </trkpt>
      <trkpt lat="46.20704" lon="2.41256">
        <ele>369</ele>
        <time>2016-04-07T15:09:23Z</time>
      </trkpt>
      <trkpt lat="46.20701" lon="2.41258">
        <ele>369</ele>
        <time>2016-04-07T15:09:26Z</time>
      </trkpt>
      <trkpt lat="46.20696" lon="2.4126">
        <ele>369</ele>
        <time>2016-04-07T15:09:29Z</time>
      </trkpt>
      <trkpt lat="46.20692" lon="2.41262">
        <ele>369</ele>
        <time>2016-04-07T15:09:32Z</time>
      </trkpt>
      <trkpt lat="46.20688" lon="2.41263">
        <ele>369</ele>
        <time>2016-04-07T15:09:35Z</time>
      </trkpt>
      <trkpt lat="46.20684" lon="2.41265">
        <ele>368</ele>
        <time>2016-04-07T15:09:38Z</time>
      </trkpt>
      <trkpt lat="46.20679" lon="2.41265">
        <ele>367</ele>
        <time>2016-04-07T15:09:41Z</time>
      </trkpt>
      <trkpt lat="46.20675" lon="2.41265">
        <ele>367</ele>
        <time>2016-04-07T15:09:44Z</time>
      </trkpt>
      <trkpt lat="46.20671" lon="2.41263">
        <ele>366</ele>
        <time>2016-04-07T15:09:47Z</time>
      </trkpt>
      <trkpt lat="46.20666" lon="2.41262">
        <ele>366</ele>
        <time>2016-04-07T15:09:50Z</time>
      </trkpt>
      <trkpt lat="46.20661" lon="2.41261">
        <ele>366</ele>
        <time>2016-04-07T15:09:53Z</time>
      </trkpt>
      <trkpt lat="46.20656" lon="2.41259">
        <ele>366</ele>
        <time>2016-04-07T15:09:56Z</time>
      </trkpt>
      <trkpt lat="46.20652" lon="2.41257">
        <ele>366</ele>
        <time>2016-04-07T15:09:59Z</time>
      </trkpt>
      <trkpt lat="46.20649" lon="2.41257">
        <ele>365</ele>
        <time>2016-04-07T15:10:02Z</time>
      </trkpt>
      <trkpt lat="46.20644" lon="2.41257">
        <ele>365</ele>
        <time>2016-04-07T15:10:05Z</time>
      </trkpt>
      <trkpt lat="46.2064" lon="2.41256">
        <ele>364</ele>
        <time>2016-04-07T15:10:08Z</time>
      </trkpt>
      <trkpt lat="46.20635" lon="2.41257">
        <ele>363</ele>
        <time>2016-04-07T15:10:11Z</time>
      </trkpt>
      <trkpt lat="46.20631" lon="2.41258">
        <ele>362</ele>
        <time>2016-04-07T15:10:14Z</time>
      </trkpt>
      <trkpt lat="46.20626" lon="2.41262">
        <ele>360</ele>
        <time>2016-04-07T15:10:18Z</time>
      </trkpt>
      <trkpt lat="46.20622" lon="2.41264">
        <ele>359</ele>
        <time>2016-04-07T15:10:21Z</time>
      </trkpt>
      <trkpt lat="46.20618" lon="2.41267">
        <ele>358</ele>
        <time>2016-04-07T15:10:24Z</time>
      </trkpt>
      <trkpt lat="46.20614" lon="2.4127">
        <ele>357</ele>
        <time>2016-04-07T15:10:27Z</time>
      </trkpt>
      <trkpt lat="46.2061" lon="2.41275">
        <ele>357</ele>
        <time>2016-04-07T15:10:30Z</time>
      </trkpt>
      <trkpt lat="46.20607" lon="2.41279">
        <ele>357</ele>
        <time>2016-04-07T15:10:33Z</time>
      </trkpt>
      <trkpt lat="46.20604" lon="2.41284">
        <ele>357</ele>
        <time>2016-04-07T15:10:36Z</time>
      </trkpt>
      <trkpt lat="46.20601" lon="2.41288">
        <ele>357</ele>
        <time>2016-04-07T15:10:39Z</time>
      </trkpt>
      <trkpt lat="46.20597" lon="2.4129">
        <ele>357</ele>
        <time>2016-04-07T15:10:43Z</time>
      </trkpt>
      <trkpt lat="46.20594" lon="2.41291">
        <ele>357</ele>
        <time>2016-04-07T15:10:47Z</time>
      </trkpt>
      <trkpt lat="46.20591" lon="2.4129">
        <ele>356</ele>
        <time>2016-04-07T15:10:51Z</time>
      </trkpt>
      <trkpt lat="46.20588" lon="2.41291">
        <ele>355</ele>
        <time>2016-04-07T15:10:55Z</time>
      </trkpt>
      <trkpt lat="46.20584" lon="2.41294">
        <ele>353</ele>
        <time>2016-04-07T15:10:59Z</time>
      </trkpt>
      <trkpt lat="46.20581" lon="2.41294">
        <ele>352</ele>
        <time>2016-04-07T15:11:04Z</time>
      </trkpt>
      <trkpt lat="46.20579" lon="2.41295">
        <ele>350</ele>
        <time>2016-04-07T15:11:09Z</time>
      </trkpt>
      <trkpt lat="46.20576" lon="2.41296">
        <ele>350</ele>
        <time>2016-04-07T15:11:13Z</time>
      </trkpt>
      <trkpt lat="46.20575" lon="2.41298">
        <ele>349</ele>
        <time>2016-04-07T15:11:16Z</time>
      </trkpt>
      <trkpt lat="46.20573" lon="2.413">
        <ele>348</ele>
        <time>2016-04-07T15:11:20Z</time>
      </trkpt>
      <trkpt lat="46.20572" lon="2.41301">
        <ele>348</ele>
        <time>2016-04-07T15:11:23Z</time>
      </trkpt>
      <trkpt lat="46.20568" lon="2.41304">
        <ele>347</ele>
        <time>2016-04-07T15:11:27Z</time>
      </trkpt>
      <trkpt lat="46.20565" lon="2.41307">
        <ele>347</ele>
        <time>2016-04-07T15:11:31Z</time>
      </trkpt>
      <trkpt lat="46.20561" lon="2.41311">
        <ele>347</ele>
        <time>2016-04-07T15:11:35Z</time>
      </trkpt>
      <trkpt lat="46.2056" lon="2.41312">
        <ele>347</ele>
        <time>2016-04-07T15:11:39Z</time>
      </trkpt>
      <trkpt lat="46.20556" lon="2.41313">
        <ele>347</ele>
        <time>2016-04-07T15:11:43Z</time>
      </trkpt>
      <trkpt lat="46.20557" lon="2.41318">
        <ele>347</ele>
        <time>2016-04-07T15:11:46Z</time>
      </trkpt>
      <trkpt lat="46.20555" lon="2.41324">
        <ele>347</ele>
        <time>2016-04-07T15:11:49Z</time>
      </trkpt>
      <trkpt lat="46.20555" lon="2.41331">
        <ele>347</ele>
        <time>2016-04-07T15:11:52Z</time>
      </trkpt>
      <trkpt lat="46.20555" lon="2.41336">
        <ele>347</ele>
        <time>2016-04-07T15:11:55Z</time>
      </trkpt>
      <trkpt lat="46.20554" lon="2.41341">
        <ele>347</ele>
        <time>2016-04-07T15:11:58Z</time>
      </trkpt>
      <trkpt lat="46.20553" lon="2.41346">
        <ele>347</ele>
        <time>2016-04-07T15:12:01Z</time>
      </trkpt>
      <trkpt lat="46.20553" lon="2.4135">
        <ele>346</ele>
        <time>2016-04-07T15:12:04Z</time>
      </trkpt>
      <trkpt lat="46.20552" lon="2.41354">
        <ele>345</ele>
        <time>2016-04-07T15:12:08Z</time>
      </trkpt>
      <trkpt lat="46.20551" lon="2.41355">
        <ele>345</ele>
        <time>2016-04-07T15:12:11Z</time>
      </trkpt>
      <trkpt lat="46.20549" lon="2.41356">
        <ele>345</ele>
        <time>2016-04-07T15:12:20Z</time>
      </trkpt>
      <trkpt lat="46.20549" lon="2.41357">
        <ele>345</ele>
        <time>2016-04-07T15:12:26Z</time>
      </trkpt>
      <trkpt lat="46.20549" lon="2.41359">
        <ele>345</ele>
        <time>2016-04-07T15:12:29Z</time>
      </trkpt>
      <trkpt lat="46.20549" lon="2.41361">
        <ele>345</ele>
        <time>2016-04-07T15:12:34Z</time>
      </trkpt>
      <trkpt lat="46.20547" lon="2.41361">
        <ele>345</ele>
        <time>2016-04-07T15:12:37Z</time>
      </trkpt>
      <trkpt lat="46.20547" lon="2.41365">
        <ele>345</ele>
        <time>2016-04-07T15:12:41Z</time>
      </trkpt>
      <trkpt lat="46.20549" lon="2.41367">
        <ele>345</ele>
        <time>2016-04-07T15:12:49Z</time>
      </trkpt>
      <trkpt lat="46.20552" lon="2.41365">
        <ele>345</ele>
        <time>2016-04-07T15:12:54Z</time>
      </trkpt>
      <trkpt lat="46.20551" lon="2.41369">
        <ele>345</ele>
        <time>2016-04-07T15:12:57Z</time>
      </trkpt>
      <trkpt lat="46.20551" lon="2.41374">
        <ele>345</ele>
        <time>2016-04-07T15:13:00Z</time>
      </trkpt>
      <trkpt lat="46.20551" lon="2.41378">
        <ele>345</ele>
        <time>2016-04-07T15:13:04Z</time>
      </trkpt>
      <trkpt lat="46.20551" lon="2.41382">
        <ele>343</ele>
        <time>2016-04-07T15:13:08Z</time>
      </trkpt>
      <trkpt lat="46.20551" lon="2.41386">
        <ele>341</ele>
        <time>2016-04-07T15:13:12Z</time>
      </trkpt>
      <trkpt lat="46.20551" lon="2.41392">
        <ele>341</ele>
        <time>2016-04-07T15:13:15Z</time>
      </trkpt>
      <trkpt lat="46.20552" lon="2.41396">
        <ele>341</ele>
        <time>2016-04-07T15:13:19Z</time>
      </trkpt>
      <trkpt lat="46.20552" lon="2.41397">
        <ele>341</ele>
        <time>2016-04-07T15:13:24Z</time>
      </trkpt>
      <trkpt lat="46.20552" lon="2.41399">
        <ele>341</ele>
        <time>2016-04-07T15:13:30Z</time>
      </trkpt>
      <trkpt lat="46.20552" lon="2.414">
        <ele>341</ele>
        <time>2016-04-07T15:13:34Z</time>
      </trkpt>
      <trkpt lat="46.20553" lon="2.41403">
        <ele>341</ele>
        <time>2016-04-07T15:13:38Z</time>
      </trkpt>
      <trkpt lat="46.20554" lon="2.41407">
        <ele>341</ele>
        <time>2016-04-07T15:13:42Z</time>
      </trkpt>
      <trkpt lat="46.20554" lon="2.41412">
        <ele>341</ele>
        <time>2016-04-07T15:13:46Z</time>
      </trkpt>
      <trkpt lat="46.20555" lon="2.41416">
        <ele>341</ele>
        <time>2016-04-07T15:13:51Z</time>
      </trkpt>
      <trkpt lat="46.20555" lon="2.41418">
        <ele>341</ele>
        <time>2016-04-07T15:13:54Z</time>
      </trkpt>
      <trkpt lat="46.20556" lon="2.4142">
        <ele>341</ele>
        <time>2016-04-07T15:13:57Z</time>
      </trkpt>
      <trkpt lat="46.20557" lon="2.41423">
        <ele>342</ele>
        <time>2016-04-07T15:14:01Z</time>
      </trkpt>
      <trkpt lat="46.20556" lon="2.41425">
        <ele>344</ele>
        <time>2016-04-07T15:14:12Z</time>
      </trkpt>
      <trkpt lat="46.20554" lon="2.41427">
        <ele>340</ele>
        <time>2016-04-07T15:14:17Z</time>
      </trkpt>
      <trkpt lat="46.20554" lon="2.41432">
        <ele>337</ele>
        <time>2016-04-07T15:14:20Z</time>
      </trkpt>
      <trkpt lat="46.20555" lon="2.41436">
        <ele>335</ele>
        <time>2016-04-07T15:14:23Z</time>
      </trkpt>
      <trkpt lat="46.20556" lon="2.41442">
        <ele>335</ele>
        <time>2016-04-07T15:14:26Z</time>
      </trkpt>
      <trkpt lat="46.20559" lon="2.41447">
        <ele>335</ele>
        <time>2016-04-07T15:14:29Z</time>
      </trkpt>
      <trkpt lat="46.2056" lon="2.41451">
        <ele>335</ele>
        <time>2016-04-07T15:14:32Z</time>
      </trkpt>
      <trkpt lat="46.20562" lon="2.41456">
        <ele>335</ele>
        <time>2016-04-07T15:14:35Z</time>
      </trkpt>
      <trkpt lat="46.20563" lon="2.41462">
        <ele>335</ele>
        <time>2016-04-07T15:14:38Z</time>
      </trkpt>
      <trkpt lat="46.20567" lon="2.41468">
        <ele>335</ele>
        <time>2016-04-07T15:14:42Z</time>
      </trkpt>
      <trkpt lat="46.20569" lon="2.41471">
        <ele>335</ele>
        <time>2016-04-07T15:14:45Z</time>
      </trkpt>
      <trkpt lat="46.2057" lon="2.41477">
        <ele>335</ele>
        <time>2016-04-07T15:14:48Z</time>
      </trkpt>
      <trkpt lat="46.20572" lon="2.41482">
        <ele>335</ele>
        <time>2016-04-07T15:14:51Z</time>
      </trkpt>
      <trkpt lat="46.20574" lon="2.41487">
        <ele>335</ele>
        <time>2016-04-07T15:14:54Z</time>
      </trkpt>
      <trkpt lat="46.20575" lon="2.41495">
        <ele>335</ele>
        <time>2016-04-07T15:14:57Z</time>
      </trkpt>
      <trkpt lat="46.20576" lon="2.41501">
        <ele>335</ele>
        <time>2016-04-07T15:15:00Z</time>
      </trkpt>
      <trkpt lat="46.20576" lon="2.41506">
        <ele>337</ele>
        <time>2016-04-07T15:15:03Z</time>
      </trkpt>
      <trkpt lat="46.20577" lon="2.41511">
        <ele>339</ele>
        <time>2016-04-07T15:15:07Z</time>
      </trkpt>
      <trkpt lat="46.20578" lon="2.41517">
        <ele>340</ele>
        <time>2016-04-07T15:15:10Z</time>
      </trkpt>
      <trkpt lat="46.2058" lon="2.41523">
        <ele>342</ele>
        <time>2016-04-07T15:15:13Z</time>
      </trkpt>
      <trkpt lat="46.20582" lon="2.41527">
        <ele>344</ele>
        <time>2016-04-07T15:15:16Z</time>
      </trkpt>
      <trkpt lat="46.20584" lon="2.4153">
        <ele>344</ele>
        <time>2016-04-07T15:15:20Z</time>
      </trkpt>
      <trkpt lat="46.20586" lon="2.41531">
        <ele>344</ele>
        <time>2016-04-07T15:15:23Z</time>
      </trkpt>
      <trkpt lat="46.20587" lon="2.41535">
        <ele>345</ele>
        <time>2016-04-07T15:15:26Z</time>
      </trkpt>
      <trkpt lat="46.20588" lon="2.41539">
        <ele>345</ele>
        <time>2016-04-07T15:15:32Z</time>
      </trkpt>
      <trkpt lat="46.20589" lon="2.41544">
        <ele>345</ele>
        <time>2016-04-07T15:15:36Z</time>
      </trkpt>
      <trkpt lat="46.2059" lon="2.41548">
        <ele>345</ele>
        <time>2016-04-07T15:15:39Z</time>
      </trkpt>
      <trkpt lat="46.20592" lon="2.41552">
        <ele>345</ele>
        <time>2016-04-07T15:15:43Z</time>
      </trkpt>
      <trkpt lat="46.20594" lon="2.41557">
        <ele>345</ele>
        <time>2016-04-07T15:15:47Z</time>
      </trkpt>
      <trkpt lat="46.20596" lon="2.41563">
        <ele>345</ele>
        <time>2016-04-07T15:15:50Z</time>
      </trkpt>
      <trkpt lat="46.206" lon="2.41568">
        <ele>347</ele>
        <time>2016-04-07T15:15:54Z</time>
      </trkpt>
      <trkpt lat="46.20602" lon="2.41574">
        <ele>349</ele>
        <time>2016-04-07T15:15:58Z</time>
      </trkpt>
      <trkpt lat="46.20604" lon="2.41579">
        <ele>350</ele>
        <time>2016-04-07T15:16:01Z</time>
      </trkpt>
      <trkpt lat="46.2061" lon="2.41584">
        <ele>351</ele>
        <time>2016-04-07T15:16:04Z</time>
      </trkpt>
      <trkpt lat="46.20612" lon="2.41583">
        <ele>353</ele>
        <time>2016-04-07T15:16:11Z</time>
      </trkpt>
      <trkpt lat="46.20613" lon="2.41585">
        <ele>353</ele>
        <time>2016-04-07T15:16:17Z</time>
      </trkpt>
      <trkpt lat="46.20611" lon="2.4159">
        <ele>354</ele>
        <time>2016-04-07T15:16:21Z</time>
      </trkpt>
      <trkpt lat="46.2061" lon="2.41596">
        <ele>358</ele>
        <time>2016-04-07T15:16:25Z</time>
      </trkpt>
      <trkpt lat="46.20609" lon="2.41599">
        <ele>360</ele>
        <time>2016-04-07T15:16:28Z</time>
      </trkpt>
      <trkpt lat="46.20606" lon="2.41603">
        <ele>363</ele>
        <time>2016-04-07T15:16:32Z</time>
      </trkpt>
      <trkpt lat="46.20606" lon="2.41607">
        <ele>363</ele>
        <time>2016-04-07T15:16:35Z</time>
      </trkpt>
      <trkpt lat="46.20605" lon="2.41611">
        <ele>363</ele>
        <time>2016-04-07T15:16:38Z</time>
      </trkpt>
      <trkpt lat="46.20602" lon="2.41614">
        <ele>363</ele>
        <time>2016-04-07T15:16:41Z</time>
      </trkpt>
      <trkpt lat="46.20599" lon="2.41618">
        <ele>363</ele>
        <time>2016-04-07T15:16:45Z</time>
      </trkpt>
      <trkpt lat="46.20599" lon="2.41621">
        <ele>362</ele>
        <time>2016-04-07T15:16:48Z</time>
      </trkpt>
      <trkpt lat="46.20596" lon="2.41624">
        <ele>359</ele>
        <time>2016-04-07T15:16:52Z</time>
      </trkpt>
      <trkpt lat="46.20592" lon="2.41628">
        <ele>358</ele>
        <time>2016-04-07T15:16:55Z</time>
      </trkpt>
      <trkpt lat="46.20588" lon="2.41634">
        <ele>358</ele>
        <time>2016-04-07T15:16:59Z</time>
      </trkpt>
      <trkpt lat="46.20585" lon="2.41637">
        <ele>355</ele>
        <time>2016-04-07T15:17:03Z</time>
      </trkpt>
      <trkpt lat="46.20582" lon="2.41641">
        <ele>352</ele>
        <time>2016-04-07T15:17:07Z</time>
      </trkpt>
      <trkpt lat="46.20579" lon="2.4164">
        <ele>350</ele>
        <time>2016-04-07T15:17:11Z</time>
      </trkpt>
      <trkpt lat="46.20577" lon="2.41642">
        <ele>348</ele>
        <time>2016-04-07T15:17:15Z</time>
      </trkpt>
      <trkpt lat="46.20575" lon="2.41646">
        <ele>347</ele>
        <time>2016-04-07T15:17:19Z</time>
      </trkpt>
      <trkpt lat="46.20575" lon="2.41652">
        <ele>343</ele>
        <time>2016-04-07T15:17:23Z</time>
      </trkpt>
      <trkpt lat="46.20573" lon="2.41653">
        <ele>339</ele>
        <time>2016-04-07T15:17:27Z</time>
      </trkpt>
      <trkpt lat="46.20572" lon="2.41652">
        <ele>338</ele>
        <time>2016-04-07T15:17:31Z</time>
      </trkpt>
      <trkpt lat="46.20569" lon="2.41652">
        <ele>338</ele>
        <time>2016-04-07T15:17:34Z</time>
      </trkpt>
      <trkpt lat="46.20566" lon="2.41652">
        <ele>338</ele>
        <time>2016-04-07T15:17:38Z</time>
      </trkpt>
      <trkpt lat="46.20565" lon="2.41653">
        <ele>338</ele>
        <time>2016-04-07T15:17:41Z</time>
      </trkpt>
      <trkpt lat="46.20561" lon="2.41652">
        <ele>338</ele>
        <time>2016-04-07T15:17:45Z</time>
      </trkpt>
      <trkpt lat="46.20558" lon="2.41651">
        <ele>337</ele>
        <time>2016-04-07T15:17:48Z</time>
      </trkpt>
      <trkpt lat="46.20555" lon="2.4165">
        <ele>336</ele>
        <time>2016-04-07T15:17:51Z</time>
      </trkpt>
      <trkpt lat="46.20551" lon="2.41648">
        <ele>334</ele>
        <time>2016-04-07T15:17:55Z</time>
      </trkpt>
      <trkpt lat="46.20547" lon="2.41648">
        <ele>333</ele>
        <time>2016-04-07T15:17:58Z</time>
      </trkpt>
      <trkpt lat="46.20543" lon="2.41647">
        <ele>332</ele>
        <time>2016-04-07T15:18:02Z</time>
      </trkpt>
      <trkpt lat="46.20539" lon="2.41647">
        <ele>332</ele>
        <time>2016-04-07T15:18:06Z</time>
      </trkpt>
      <trkpt lat="46.20535" lon="2.41647">
        <ele>332</ele>
        <time>2016-04-07T15:18:10Z</time>
      </trkpt>
      <trkpt lat="46.2053" lon="2.41647">
        <ele>331</ele>
        <time>2016-04-07T15:18:13Z</time>
      </trkpt>
      <trkpt lat="46.20528" lon="2.41646">
        <ele>331</ele>
        <time>2016-04-07T15:18:16Z</time>
      </trkpt>
      <trkpt lat="46.20525" lon="2.41647">
        <ele>328</ele>
        <time>2016-04-07T15:18:21Z</time>
      </trkpt>
      <trkpt lat="46.20523" lon="2.41649">
        <ele>326</ele>
        <time>2016-04-07T15:18:25Z</time>
      </trkpt>
      <trkpt lat="46.2052" lon="2.41649">
        <ele>326</ele>
        <time>2016-04-07T15:18:28Z</time>
      </trkpt>
      <trkpt lat="46.20516" lon="2.41648">
        <ele>324</ele>
        <time>2016-04-07T15:18:31Z</time>
      </trkpt>
      <trkpt lat="46.20512" lon="2.41648">
        <ele>323</ele>
        <time>2016-04-07T15:18:34Z</time>
      </trkpt>
      <trkpt lat="46.20508" lon="2.41649">
        <ele>323</ele>
        <time>2016-04-07T15:18:37Z</time>
      </trkpt>
      <trkpt lat="46.20505" lon="2.4165">
        <ele>321</ele>
        <time>2016-04-07T15:18:40Z</time>
      </trkpt>
      <trkpt lat="46.20501" lon="2.4165">
        <ele>321</ele>
        <time>2016-04-07T15:18:44Z</time>
      </trkpt>
      <trkpt lat="46.205" lon="2.41649">
        <ele>321</ele>
        <time>2016-04-07T15:18:47Z</time>
      </trkpt>
      <trkpt lat="46.20499" lon="2.41649">
        <ele>321</ele>
        <time>2016-04-07T15:18:50Z</time>
      </trkpt>
      <trkpt lat="46.20498" lon="2.41647">
        <ele>321</ele>
        <time>2016-04-07T15:18:55Z</time>
      </trkpt>
      <trkpt lat="46.20496" lon="2.41645">
        <ele>321</ele>
        <time>2016-04-07T15:19:00Z</time>
      </trkpt>
      <trkpt lat="46.20495" lon="2.41645">
        <ele>321</ele>
        <time>2016-04-07T15:19:05Z</time>
      </trkpt>
      <trkpt lat="46.20493" lon="2.41644">
        <ele>321</ele>
        <time>2016-04-07T15:19:12Z</time>
      </trkpt>
      <trkpt lat="46.2049" lon="2.41643">
        <ele>322</ele>
        <time>2016-04-07T15:19:16Z</time>
      </trkpt>
      <trkpt lat="46.20486" lon="2.41645">
        <ele>322</ele>
        <time>2016-04-07T15:19:20Z</time>
      </trkpt>
      <trkpt lat="46.20483" lon="2.41646">
        <ele>322</ele>
        <time>2016-04-07T15:19:23Z</time>
      </trkpt>
      <trkpt lat="46.20479" lon="2.41646">
        <ele>322</ele>
        <time>2016-04-07T15:19:26Z</time>
      </trkpt>
      <trkpt lat="46.20475" lon="2.41645">
        <ele>322</ele>
        <time>2016-04-07T15:19:30Z</time>
      </trkpt>
      <trkpt lat="46.20472" lon="2.41644">
        <ele>321</ele>
        <time>2016-04-07T15:19:33Z</time>
      </trkpt>
      <trkpt lat="46.20467" lon="2.41643">
        <ele>320</ele>
        <time>2016-04-07T15:19:36Z</time>
      </trkpt>
      <trkpt lat="46.20462" lon="2.41644">
        <ele>320</ele>
        <time>2016-04-07T15:19:40Z</time>
      </trkpt>
      <trkpt lat="46.20458" lon="2.41642">
        <ele>319</ele>
        <time>2016-04-07T15:19:44Z</time>
      </trkpt>
      <trkpt lat="46.20455" lon="2.41639">
        <ele>318</ele>
        <time>2016-04-07T15:19:47Z</time>
      </trkpt>
      <trkpt lat="46.20451" lon="2.41638">
        <ele>318</ele>
        <time>2016-04-07T15:19:50Z</time>
      </trkpt>
      <trkpt lat="46.20448" lon="2.41638">
        <ele>318</ele>
        <time>2016-04-07T15:19:54Z</time>
      </trkpt>
      <trkpt lat="46.20444" lon="2.41637">
        <ele>318</ele>
        <time>2016-04-07T15:19:57Z</time>
      </trkpt>
      <trkpt lat="46.20439" lon="2.41635">
        <ele>318</ele>
        <time>2016-04-07T15:20:01Z</time>
      </trkpt>
      <trkpt lat="46.20435" lon="2.41635">
        <ele>318</ele>
        <time>2016-04-07T15:20:04Z</time>
      </trkpt>
      <trkpt lat="46.20431" lon="2.41634">
        <ele>318</ele>
        <time>2016-04-07T15:20:07Z</time>
      </trkpt>
      <trkpt lat="46.20426" lon="2.41634">
        <ele>318</ele>
        <time>2016-04-07T15:20:10Z</time>
      </trkpt>
      <trkpt lat="46.20423" lon="2.41634">
        <ele>318</ele>
        <time>2016-04-07T15:20:13Z</time>
      </trkpt>
      <trkpt lat="46.20419" lon="2.41631">
        <ele>315</ele>
        <time>2016-04-07T15:20:17Z</time>
      </trkpt>
      <trkpt lat="46.20415" lon="2.41632">
        <ele>313</ele>
        <time>2016-04-07T15:20:20Z</time>
      </trkpt>
      <trkpt lat="46.20411" lon="2.41632">
        <ele>312</ele>
        <time>2016-04-07T15:20:23Z</time>
      </trkpt>
      <trkpt lat="46.20406" lon="2.41633">
        <ele>311</ele>
        <time>2016-04-07T15:20:26Z</time>
      </trkpt>
      <trkpt lat="46.20401" lon="2.41633">
        <ele>310</ele>
        <time>2016-04-07T15:20:29Z</time>
      </trkpt>
      <trkpt lat="46.20398" lon="2.41633">
        <ele>309</ele>
        <time>2016-04-07T15:20:33Z</time>
      </trkpt>
      <trkpt lat="46.20394" lon="2.41633">
        <ele>308</ele>
        <time>2016-04-07T15:20:36Z</time>
      </trkpt>
      <trkpt lat="46.20389" lon="2.41636">
        <ele>308</ele>
        <time>2016-04-07T15:20:40Z</time>
      </trkpt>
      <trkpt lat="46.20385" lon="2.41639">
        <ele>308</ele>
        <time>2016-04-07T15:20:43Z</time>
      </trkpt>
      <trkpt lat="46.20381" lon="2.41646">
        <ele>310</ele>
        <time>2016-04-07T15:20:46Z</time>
      </trkpt>
      <trkpt lat="46.20377" lon="2.4165">
        <ele>313</ele>
        <time>2016-04-07T15:20:49Z</time>
      </trkpt>
      <trkpt lat="46.20375" lon="2.41655">
        <ele>314</ele>
        <time>2016-04-07T15:20:52Z</time>
      </trkpt>
      <trkpt lat="46.20372" lon="2.4166">
        <ele>316</ele>
        <time>2016-04-07T15:20:56Z</time>
      </trkpt>
      <trkpt lat="46.20368" lon="2.41664">
        <ele>319</ele>
        <time>2016-04-07T15:20:59Z</time>
      </trkpt>
      <trkpt lat="46.20362" lon="2.41669">
        <ele>321</ele>
        <time>2016-04-07T15:21:02Z</time>
      </trkpt>
      <trkpt lat="46.20358" lon="2.41673">
        <ele>323</ele>
        <time>2016-04-07T15:21:05Z</time>
      </trkpt>
      <trkpt lat="46.20354" lon="2.41677">
        <ele>324</ele>
        <time>2016-04-07T15:21:08Z</time>
      </trkpt>
      <trkpt lat="46.20351" lon="2.4168">
        <ele>327</ele>
        <time>2016-04-07T15:21:11Z</time>
      </trkpt>
      <trkpt lat="46.20347" lon="2.41683">
        <ele>330</ele>
        <time>2016-04-07T15:21:14Z</time>
      </trkpt>
      <trkpt lat="46.20345" lon="2.41686">
        <ele>331</ele>
        <time>2016-04-07T15:21:17Z</time>
      </trkpt>
      <trkpt lat="46.20341" lon="2.4169">
        <ele>331</ele>
        <time>2016-04-07T15:21:21Z</time>
      </trkpt>
      <trkpt lat="46.20338" lon="2.41693">
        <ele>333</ele>
        <time>2016-04-07T15:21:25Z</time>
      </trkpt>
      <trkpt lat="46.20335" lon="2.41698">
        <ele>333</ele>
        <time>2016-04-07T15:21:28Z</time>
      </trkpt>
      <trkpt lat="46.20335" lon="2.41706">
        <ele>337</ele>
        <time>2016-04-07T15:21:32Z</time>
      </trkpt>
      <trkpt lat="46.20335" lon="2.4171">
        <ele>340</ele>
        <time>2016-04-07T15:21:35Z</time>
      </trkpt>
      <trkpt lat="46.20333" lon="2.41715">
        <ele>343</ele>
        <time>2016-04-07T15:21:38Z</time>
      </trkpt>
      <trkpt lat="46.20331" lon="2.41719">
        <ele>346</ele>
        <time>2016-04-07T15:21:41Z</time>
      </trkpt>
      <trkpt lat="46.20332" lon="2.41725">
        <ele>347</ele>
        <time>2016-04-07T15:21:44Z</time>
      </trkpt>
      <trkpt lat="46.20331" lon="2.41729">
        <ele>349</ele>
        <time>2016-04-07T15:21:48Z</time>
      </trkpt>
      <trkpt lat="46.2033" lon="2.41735">
        <ele>349</ele>
        <time>2016-04-07T15:21:51Z</time>
      </trkpt>
      <trkpt lat="46.20331" lon="2.41739">
        <ele>351</ele>
        <time>2016-04-07T15:21:55Z</time>
      </trkpt>
      <trkpt lat="46.20331" lon="2.41742">
        <ele>352</ele>
        <time>2016-04-07T15:21:58Z</time>
      </trkpt>
      <trkpt lat="46.2033" lon="2.41747">
        <ele>352</ele>
        <time>2016-04-07T15:22:01Z</time>
      </trkpt>
      <trkpt lat="46.2033" lon="2.41751">
        <ele>352</ele>
        <time>2016-04-07T15:22:04Z</time>
      </trkpt>
      <trkpt lat="46.20328" lon="2.41756">
        <ele>352</ele>
        <time>2016-04-07T15:22:07Z</time>
      </trkpt>
      <trkpt lat="46.20325" lon="2.41761">
        <ele>352</ele>
        <time>2016-04-07T15:22:10Z</time>
      </trkpt>
      <trkpt lat="46.20324" lon="2.41765">
        <ele>353</ele>
        <time>2016-04-07T15:22:14Z</time>
      </trkpt>
      <trkpt lat="46.20324" lon="2.4177">
        <ele>355</ele>
        <time>2016-04-07T15:22:17Z</time>
      </trkpt>
      <trkpt lat="46.20323" lon="2.41777">
        <ele>355</ele>
        <time>2016-04-07T15:22:21Z</time>
      </trkpt>
      <trkpt lat="46.20322" lon="2.41782">
        <ele>355</ele>
        <time>2016-04-07T15:22:25Z</time>
      </trkpt>
      <trkpt lat="46.2032" lon="2.41788">
        <ele>355</ele>
        <time>2016-04-07T15:22:28Z</time>
      </trkpt>
      <trkpt lat="46.20318" lon="2.41794">
        <ele>355</ele>
        <time>2016-04-07T15:22:31Z</time>
      </trkpt>
      <trkpt lat="46.20317" lon="2.418">
        <ele>355</ele>
        <time>2016-04-07T15:22:34Z</time>
      </trkpt>
      <trkpt lat="46.20315" lon="2.41806">
        <ele>353</ele>
        <time>2016-04-07T15:22:37Z</time>
      </trkpt>
      <trkpt lat="46.20316" lon="2.41812">
        <ele>352</ele>
        <time>2016-04-07T15:22:41Z</time>
      </trkpt>
      <trkpt lat="46.20317" lon="2.41819">
        <ele>352</ele>
        <time>2016-04-07T15:22:45Z</time>
      </trkpt>
      <trkpt lat="46.20316" lon="2.41826">
        <ele>352</ele>
        <time>2016-04-07T15:22:48Z</time>
      </trkpt>
      <trkpt lat="46.20316" lon="2.41833">
        <ele>352</ele>
        <time>2016-04-07T15:22:51Z</time>
      </trkpt>
      <trkpt lat="46.20314" lon="2.4184">
        <ele>352</ele>
        <time>2016-04-07T15:22:55Z</time>
      </trkpt>
      <trkpt lat="46.20315" lon="2.41845">
        <ele>354</ele>
        <time>2016-04-07T15:22:58Z</time>
      </trkpt>
      <trkpt lat="46.20314" lon="2.4185">
        <ele>356</ele>
        <time>2016-04-07T15:23:01Z</time>
      </trkpt>
      <trkpt lat="46.20315" lon="2.41855">
        <ele>359</ele>
        <time>2016-04-07T15:23:04Z</time>
      </trkpt>
      <trkpt lat="46.20317" lon="2.4186">
        <ele>361</ele>
        <time>2016-04-07T15:23:08Z</time>
      </trkpt>
      <trkpt lat="46.20318" lon="2.41864">
        <ele>363</ele>
        <time>2016-04-07T15:23:11Z</time>
      </trkpt>
      <trkpt lat="46.20319" lon="2.4187">
        <ele>364</ele>
        <time>2016-04-07T15:23:14Z</time>
      </trkpt>
      <trkpt lat="46.20321" lon="2.41877">
        <ele>364</ele>
        <time>2016-04-07T15:23:18Z</time>
      </trkpt>
      <trkpt lat="46.20324" lon="2.41883">
        <ele>364</ele>
        <time>2016-04-07T15:23:22Z</time>
      </trkpt>
      <trkpt lat="46.20325" lon="2.41887">
        <ele>364</ele>
        <time>2016-04-07T15:23:26Z</time>
      </trkpt>
      <trkpt lat="46.20326" lon="2.41893">
        <ele>364</ele>
        <time>2016-04-07T15:23:30Z</time>
      </trkpt>
      <trkpt lat="46.20327" lon="2.41897">
        <ele>365</ele>
        <time>2016-04-07T15:23:34Z</time>
      </trkpt>
      <trkpt lat="46.20328" lon="2.41901">
        <ele>365</ele>
        <time>2016-04-07T15:23:37Z</time>
      </trkpt>
      <trkpt lat="46.20329" lon="2.41905">
        <ele>365</ele>
        <time>2016-04-07T15:23:41Z</time>
      </trkpt>
      <trkpt lat="46.20328" lon="2.41911">
        <ele>365</ele>
        <time>2016-04-07T15:23:45Z</time>
      </trkpt>
      <trkpt lat="46.2033" lon="2.41915">
        <ele>365</ele>
        <time>2016-04-07T15:23:48Z</time>
      </trkpt>
      <trkpt lat="46.2033" lon="2.41919">
        <ele>365</ele>
        <time>2016-04-07T15:23:51Z</time>
      </trkpt>
      <trkpt lat="46.20332" lon="2.41922">
        <ele>365</ele>
        <time>2016-04-07T15:23:54Z</time>
      </trkpt>
      <trkpt lat="46.20334" lon="2.41929">
        <ele>365</ele>
        <time>2016-04-07T15:23:57Z</time>
      </trkpt>
      <trkpt lat="46.20338" lon="2.41936">
        <ele>365</ele>
        <time>2016-04-07T15:24:01Z</time>
      </trkpt>
      <trkpt lat="46.2034" lon="2.41941">
        <ele>365</ele>
        <time>2016-04-07T15:24:04Z</time>
      </trkpt>
      <trkpt lat="46.20343" lon="2.41947">
        <ele>365</ele>
        <time>2016-04-07T15:24:07Z</time>
      </trkpt>
      <trkpt lat="46.20345" lon="2.41952">
        <ele>365</ele>
        <time>2016-04-07T15:24:10Z</time>
      </trkpt>
      <trkpt lat="46.20347" lon="2.41958">
        <ele>363</ele>
        <time>2016-04-07T15:24:13Z</time>
      </trkpt>
      <trkpt lat="46.2035" lon="2.41963">
        <ele>363</ele>
        <time>2016-04-07T15:24:17Z</time>
      </trkpt>
      <trkpt lat="46.2035" lon="2.41965">
        <ele>363</ele>
        <time>2016-04-07T15:24:20Z</time>
      </trkpt>
      <trkpt lat="46.2035" lon="2.4197">
        <ele>362</ele>
        <time>2016-04-07T15:24:24Z</time>
      </trkpt>
      <trkpt lat="46.20351" lon="2.41974">
        <ele>362</ele>
        <time>2016-04-07T15:24:27Z</time>
      </trkpt>
      <trkpt lat="46.20353" lon="2.4198">
        <ele>362</ele>
        <time>2016-04-07T15:24:30Z</time>
      </trkpt>
      <trkpt lat="46.20352" lon="2.41985">
        <ele>362</ele>
        <time>2016-04-07T15:24:33Z</time>
      </trkpt>
      <trkpt lat="46.20353" lon="2.41993">
        <ele>362</ele>
        <time>2016-04-07T15:24:37Z</time>
      </trkpt>
      <trkpt lat="46.20353" lon="2.41998">
        <ele>361</ele>
        <time>2016-04-07T15:24:40Z</time>
      </trkpt>
      <trkpt lat="46.20354" lon="2.42003">
        <ele>358</ele>
        <time>2016-04-07T15:24:45Z</time>
      </trkpt>
      <trkpt lat="46.20352" lon="2.42005">
        <ele>355</ele>
        <time>2016-04-07T15:24:50Z</time>
      </trkpt>
      <trkpt lat="46.20351" lon="2.42008">
        <ele>353</ele>
        <time>2016-04-07T15:24:53Z</time>
      </trkpt>
      <trkpt lat="46.2035" lon="2.42013">
        <ele>353</ele>
        <time>2016-04-07T15:24:56Z</time>
      </trkpt>
      <trkpt lat="46.20348" lon="2.42019">
        <ele>353</ele>
        <time>2016-04-07T15:25:00Z</time>
      </trkpt>
      <trkpt lat="46.20346" lon="2.42023">
        <ele>353</ele>
        <time>2016-04-07T15:25:04Z</time>
      </trkpt>
      <trkpt lat="46.20346" lon="2.42028">
        <ele>353</ele>
        <time>2016-04-07T15:25:08Z</time>
      </trkpt>
      <trkpt lat="46.20345" lon="2.42033">
        <ele>350</ele>
        <time>2016-04-07T15:25:12Z</time>
      </trkpt>
      <trkpt lat="46.20342" lon="2.42036">
        <ele>349</ele>
        <time>2016-04-07T15:25:16Z</time>
      </trkpt>
      <trkpt lat="46.2034" lon="2.4204">
        <ele>349</ele>
        <time>2016-04-07T15:25:20Z</time>
      </trkpt>
      <trkpt lat="46.20337" lon="2.42043">
        <ele>349</ele>
        <time>2016-04-07T15:25:24Z</time>
      </trkpt>
      <trkpt lat="46.20334" lon="2.42045">
        <ele>349</ele>
        <time>2016-04-07T15:25:27Z</time>
      </trkpt>
      <trkpt lat="46.20332" lon="2.42048">
        <ele>349</ele>
        <time>2016-04-07T15:25:32Z</time>
      </trkpt>
      <trkpt lat="46.2033" lon="2.4205">
        <ele>349</ele>
        <time>2016-04-07T15:25:35Z</time>
      </trkpt>
      <trkpt lat="46.2033" lon="2.42052">
        <ele>349</ele>
        <time>2016-04-07T15:25:38Z</time>
      </trkpt>
      <trkpt lat="46.20327" lon="2.42056">
        <ele>349</ele>
        <time>2016-04-07T15:25:42Z</time>
      </trkpt>
      <trkpt lat="46.20324" lon="2.42061">
        <ele>349</ele>
        <time>2016-04-07T15:25:45Z</time>
      </trkpt>
      <trkpt lat="46.20325" lon="2.42066">
        <ele>349</ele>
        <time>2016-04-07T15:25:49Z</time>
      </trkpt>
      <trkpt lat="46.20323" lon="2.42069">
        <ele>346</ele>
        <time>2016-04-07T15:25:54Z</time>
      </trkpt>
      <trkpt lat="46.20323" lon="2.42071">
        <ele>346</ele>
        <time>2016-04-07T15:25:58Z</time>
      </trkpt>
      <trkpt lat="46.20322" lon="2.42072">
        <ele>346</ele>
        <time>2016-04-07T15:26:02Z</time>
      </trkpt>
      <trkpt lat="46.20321" lon="2.42073">
        <ele>346</ele>
        <time>2016-04-07T15:26:06Z</time>
      </trkpt>
      <trkpt lat="46.20322" lon="2.42075">
        <ele>346</ele>
        <time>2016-04-07T15:26:11Z</time>
      </trkpt>
      <trkpt lat="46.2032" lon="2.42076">
        <ele>346</ele>
        <time>2016-04-07T15:26:18Z</time>
      </trkpt>
      <trkpt lat="46.20315" lon="2.42079">
        <ele>346</ele>
        <time>2016-04-07T15:26:22Z</time>
      </trkpt>
      <trkpt lat="46.2031" lon="2.42082">
        <ele>346</ele>
        <time>2016-04-07T15:26:27Z</time>
      </trkpt>
      <trkpt lat="46.20307" lon="2.42087">
        <ele>346</ele>
        <time>2016-04-07T15:26:31Z</time>
      </trkpt>
      <trkpt lat="46.20304" lon="2.42091">
        <ele>345</ele>
        <time>2016-04-07T15:26:35Z</time>
      </trkpt>
      <trkpt lat="46.20298" lon="2.42095">
        <ele>344</ele>
        <time>2016-04-07T15:26:40Z</time>
      </trkpt>
      <trkpt lat="46.20295" lon="2.42099">
        <ele>344</ele>
        <time>2016-04-07T15:26:43Z</time>
      </trkpt>
      <trkpt lat="46.20296" lon="2.42103">
        <ele>344</ele>
        <time>2016-04-07T15:26:47Z</time>
      </trkpt>
      <trkpt lat="46.20296" lon="2.42108">
        <ele>336</ele>
        <time>2016-04-07T15:26:56Z</time>
      </trkpt>
      <trkpt lat="46.20296" lon="2.42112">
        <ele>332</ele>
        <time>2016-04-07T15:26:59Z</time>
      </trkpt>
      <trkpt lat="46.20294" lon="2.42116">
        <ele>328</ele>
        <time>2016-04-07T15:27:03Z</time>
      </trkpt>
      <trkpt lat="46.20291" lon="2.42119">
        <ele>328</ele>
        <time>2016-04-07T15:27:08Z</time>
      </trkpt>
      <trkpt lat="46.20288" lon="2.42123">
        <ele>328</ele>
        <time>2016-04-07T15:27:13Z</time>
      </trkpt>
      <trkpt lat="46.20284" lon="2.42124">
        <ele>328</ele>
        <time>2016-04-07T15:27:16Z</time>
      </trkpt>
      <trkpt lat="46.2028" lon="2.42125">
        <ele>328</ele>
        <time>2016-04-07T15:27:19Z</time>
      </trkpt>
      <trkpt lat="46.20276" lon="2.42129">
        <ele>328</ele>
        <time>2016-04-07T15:27:24Z</time>
      </trkpt>
      <trkpt lat="46.20273" lon="2.42131">
        <ele>328</ele>
        <time>2016-04-07T15:27:27Z</time>
      </trkpt>
      <trkpt lat="46.2027" lon="2.42132">
        <ele>326</ele>
        <time>2016-04-07T15:27:30Z</time>
      </trkpt>
      <trkpt lat="46.20266" lon="2.42135">
        <ele>326</ele>
        <time>2016-04-07T15:27:35Z</time>
      </trkpt>
      <trkpt lat="46.20263" lon="2.42134">
        <ele>326</ele>
        <time>2016-04-07T15:27:38Z</time>
      </trkpt>
      <trkpt lat="46.20258" lon="2.42134">
        <ele>326</ele>
        <time>2016-04-07T15:27:41Z</time>
      </trkpt>
      <trkpt lat="46.20251" lon="2.42128">
        <ele>326</ele>
        <time>2016-04-07T15:27:46Z</time>
      </trkpt>
      <trkpt lat="46.20245" lon="2.42124">
        <ele>326</ele>
        <time>2016-04-07T15:27:49Z</time>
      </trkpt>
      <trkpt lat="46.20238" lon="2.42122">
        <ele>326</ele>
        <time>2016-04-07T15:27:52Z</time>
      </trkpt>
      <trkpt lat="46.20235" lon="2.42117">
        <ele>328</ele>
        <time>2016-04-07T15:27:56Z</time>
      </trkpt>
      <trkpt lat="46.20229" lon="2.42115">
        <ele>332</ele>
        <time>2016-04-07T15:27:59Z</time>
      </trkpt>
      <trkpt lat="46.20225" lon="2.42118">
        <ele>335</ele>
        <time>2016-04-07T15:28:02Z</time>
      </trkpt>
      <trkpt lat="46.20225" lon="2.42121">
        <ele>337</ele>
        <time>2016-04-07T15:28:07Z</time>
      </trkpt>
      <trkpt lat="46.20226" lon="2.42117">
        <ele>341</ele>
        <time>2016-04-07T15:28:15Z</time>
      </trkpt>
      <trkpt lat="46.20227" lon="2.42115">
        <ele>342</ele>
        <time>2016-04-07T15:28:18Z</time>
      </trkpt>
      <trkpt lat="46.20225" lon="2.42114">
        <ele>348</ele>
        <time>2016-04-07T15:28:26Z</time>
      </trkpt>
      <trkpt lat="46.20227" lon="2.42117">
        <ele>348</ele>
        <time>2016-04-07T15:28:29Z</time>
      </trkpt>
      <trkpt lat="46.20227" lon="2.42122">
        <ele>346</ele>
        <time>2016-04-07T15:28:34Z</time>
      </trkpt>
      <trkpt lat="46.20227" lon="2.4212">
        <ele>343</ele>
        <time>2016-04-07T15:28:42Z</time>
      </trkpt>
      <trkpt lat="46.20229" lon="2.42116">
        <ele>343</ele>
        <time>2016-04-07T15:28:48Z</time>
      </trkpt>
      <trkpt lat="46.20226" lon="2.42108">
        <ele>343</ele>
        <time>2016-04-07T15:28:51Z</time>
      </trkpt>
      <trkpt lat="46.20222" lon="2.42106">
        <ele>343</ele>
        <time>2016-04-07T15:28:54Z</time>
      </trkpt>
      <trkpt lat="46.20219" lon="2.42102">
        <ele>345</ele>
        <time>2016-04-07T15:28:59Z</time>
      </trkpt>
      <trkpt lat="46.20214" lon="2.42096">
        <ele>346</ele>
        <time>2016-04-07T15:29:02Z</time>
      </trkpt>
      <trkpt lat="46.2021" lon="2.42094">
        <ele>347</ele>
        <time>2016-04-07T15:29:05Z</time>
      </trkpt>
      <trkpt lat="46.20206" lon="2.42093">
        <ele>347</ele>
        <time>2016-04-07T15:29:09Z</time>
      </trkpt>
      <trkpt lat="46.20201" lon="2.42091">
        <ele>347</ele>
        <time>2016-04-07T15:29:12Z</time>
      </trkpt>
      <trkpt lat="46.20198" lon="2.42089">
        <ele>347</ele>
        <time>2016-04-07T15:29:15Z</time>
      </trkpt>
      <trkpt lat="46.20195" lon="2.42088">
        <ele>347</ele>
        <time>2016-04-07T15:29:19Z</time>
      </trkpt>
      <trkpt lat="46.2019" lon="2.42085">
        <ele>347</ele>
        <time>2016-04-07T15:29:24Z</time>
      </trkpt>
      <trkpt lat="46.20185" lon="2.42085">
        <ele>347</ele>
        <time>2016-04-07T15:29:29Z</time>
      </trkpt>
      <trkpt lat="46.20181" lon="2.42082">
        <ele>347</ele>
        <time>2016-04-07T15:29:32Z</time>
      </trkpt>
      <trkpt lat="46.20177" lon="2.42082">
        <ele>345</ele>
        <time>2016-04-07T15:29:36Z</time>
      </trkpt>
      <trkpt lat="46.20173" lon="2.4208">
        <ele>342</ele>
        <time>2016-04-07T15:29:39Z</time>
      </trkpt>
      <trkpt lat="46.20171" lon="2.42078">
        <ele>340</ele>
        <time>2016-04-07T15:29:44Z</time>
      </trkpt>
      <trkpt lat="46.20167" lon="2.42077">
        <ele>339</ele>
        <time>2016-04-07T15:29:47Z</time>
      </trkpt>
      <trkpt lat="46.20166" lon="2.42078">
        <ele>338</ele>
        <time>2016-04-07T15:29:51Z</time>
      </trkpt>
      <trkpt lat="46.20165" lon="2.42078">
        <ele>338</ele>
        <time>2016-04-07T15:29:54Z</time>
      </trkpt>
      <trkpt lat="46.20163" lon="2.42078">
        <ele>338</ele>
        <time>2016-04-07T15:29:58Z</time>
      </trkpt>
      <trkpt lat="46.2016" lon="2.42078">
        <ele>338</ele>
        <time>2016-04-07T15:30:02Z</time>
      </trkpt>
      <trkpt lat="46.20157" lon="2.42077">
        <ele>338</ele>
        <time>2016-04-07T15:30:05Z</time>
      </trkpt>
      <trkpt lat="46.20153" lon="2.42078">
        <ele>338</ele>
        <time>2016-04-07T15:30:10Z</time>
      </trkpt>
      <trkpt lat="46.2015" lon="2.42077">
        <ele>339</ele>
        <time>2016-04-07T15:30:13Z</time>
      </trkpt>
      <trkpt lat="46.20146" lon="2.42078">
        <ele>340</ele>
        <time>2016-04-07T15:30:16Z</time>
      </trkpt>
      <trkpt lat="46.20144" lon="2.42078">
        <ele>342</ele>
        <time>2016-04-07T15:30:19Z</time>
      </trkpt>
      <trkpt lat="46.20139" lon="2.42076">
        <ele>343</ele>
        <time>2016-04-07T15:30:22Z</time>
      </trkpt>
      <trkpt lat="46.20134" lon="2.42075">
        <ele>343</ele>
        <time>2016-04-07T15:30:26Z</time>
      </trkpt>
      <trkpt lat="46.20129" lon="2.42075">
        <ele>343</ele>
        <time>2016-04-07T15:30:30Z</time>
      </trkpt>
      <trkpt lat="46.20125" lon="2.42076">
        <ele>343</ele>
        <time>2016-04-07T15:30:33Z</time>
      </trkpt>
      <trkpt lat="46.20122" lon="2.42076">
        <ele>343</ele>
        <time>2016-04-07T15:30:37Z</time>
      </trkpt>
      <trkpt lat="46.20117" lon="2.42073">
        <ele>343</ele>
        <time>2016-04-07T15:30:42Z</time>
      </trkpt>
      <trkpt lat="46.20111" lon="2.42071">
        <ele>343</ele>
        <time>2016-04-07T15:30:45Z</time>
      </trkpt>
      <trkpt lat="46.20106" lon="2.42072">
        <ele>341</ele>
        <time>2016-04-07T15:30:49Z</time>
      </trkpt>
      <trkpt lat="46.20101" lon="2.4207">
        <ele>338</ele>
        <time>2016-04-07T15:30:53Z</time>
      </trkpt>
      <trkpt lat="46.20098" lon="2.42069">
        <ele>337</ele>
        <time>2016-04-07T15:30:57Z</time>
      </trkpt>
      <trkpt lat="46.20093" lon="2.42065">
        <ele>335</ele>
        <time>2016-04-07T15:31:00Z</time>
      </trkpt>
      <trkpt lat="46.20089" lon="2.42064">
        <ele>333</ele>
        <time>2016-04-07T15:31:03Z</time>
      </trkpt>
      <trkpt lat="46.20086" lon="2.42063">
        <ele>332</ele>
        <time>2016-04-07T15:31:06Z</time>
      </trkpt>
      <trkpt lat="46.20082" lon="2.42061">
        <ele>331</ele>
        <time>2016-04-07T15:31:09Z</time>
      </trkpt>
      <trkpt lat="46.20078" lon="2.42061">
        <ele>330</ele>
        <time>2016-04-07T15:31:13Z</time>
      </trkpt>
      <trkpt lat="46.20072" lon="2.42061">
        <ele>328</ele>
        <time>2016-04-07T15:31:16Z</time>
      </trkpt>
      <trkpt lat="46.20068" lon="2.42058">
        <ele>327</ele>
        <time>2016-04-07T15:31:20Z</time>
      </trkpt>
      <trkpt lat="46.20065" lon="2.42059">
        <ele>325</ele>
        <time>2016-04-07T15:31:24Z</time>
      </trkpt>
      <trkpt lat="46.20059" lon="2.4206">
        <ele>322</ele>
        <time>2016-04-07T15:31:27Z</time>
      </trkpt>
      <trkpt lat="46.20054" lon="2.4206">
        <ele>320</ele>
        <time>2016-04-07T15:31:31Z</time>
      </trkpt>
      <trkpt lat="46.20049" lon="2.42061">
        <ele>320</ele>
        <time>2016-04-07T15:31:34Z</time>
      </trkpt>
      <trkpt lat="46.20044" lon="2.4206">
        <ele>319</ele>
        <time>2016-04-07T15:31:37Z</time>
      </trkpt>
      <trkpt lat="46.20041" lon="2.42061">
        <ele>318</ele>
        <time>2016-04-07T15:31:40Z</time>
      </trkpt>
      <trkpt lat="46.20036" lon="2.42063">
        <ele>318</ele>
        <time>2016-04-07T15:31:44Z</time>
      </trkpt>
      <trkpt lat="46.2003" lon="2.42064">
        <ele>318</ele>
        <time>2016-04-07T15:31:47Z</time>
      </trkpt>
      <trkpt lat="46.20025" lon="2.42066">
        <ele>318</ele>
        <time>2016-04-07T15:31:50Z</time>
      </trkpt>
      <trkpt lat="46.20019" lon="2.42066">
        <ele>318</ele>
        <time>2016-04-07T15:31:53Z</time>
      </trkpt>
      <trkpt lat="46.20014" lon="2.42066">
        <ele>318</ele>
        <time>2016-04-07T15:31:56Z</time>
      </trkpt>
      <trkpt lat="46.20009" lon="2.42069">
        <ele>318</ele>
        <time>2016-04-07T15:31:59Z</time>
      </trkpt>
      <trkpt lat="46.20004" lon="2.4207">
        <ele>320</ele>
        <time>2016-04-07T15:32:02Z</time>
      </trkpt>
      <trkpt lat="46.19999" lon="2.42072">
        <ele>321</ele>
        <time>2016-04-07T15:32:05Z</time>
      </trkpt>
      <trkpt lat="46.19995" lon="2.42073">
        <ele>322</ele>
        <time>2016-04-07T15:32:09Z</time>
      </trkpt>
      <trkpt lat="46.1999" lon="2.42075">
        <ele>322</ele>
        <time>2016-04-07T15:32:14Z</time>
      </trkpt>
      <trkpt lat="46.19986" lon="2.42073">
        <ele>322</ele>
        <time>2016-04-07T15:32:17Z</time>
      </trkpt>
      <trkpt lat="46.19982" lon="2.42071">
        <ele>322</ele>
        <time>2016-04-07T15:32:20Z</time>
      </trkpt>
      <trkpt lat="46.19978" lon="2.42072">
        <ele>322</ele>
        <time>2016-04-07T15:32:23Z</time>
      </trkpt>
      <trkpt lat="46.19979" lon="2.42076">
        <ele>322</ele>
        <time>2016-04-07T15:32:27Z</time>
      </trkpt>
      <trkpt lat="46.19978" lon="2.42077">
        <ele>322</ele>
        <time>2016-04-07T15:32:31Z</time>
      </trkpt>
      <trkpt lat="46.19976" lon="2.42076">
        <ele>324</ele>
        <time>2016-04-07T15:32:34Z</time>
      </trkpt>
      <trkpt lat="46.19972" lon="2.42074">
        <ele>328</ele>
        <time>2016-04-07T15:32:38Z</time>
      </trkpt>
      <trkpt lat="46.19969" lon="2.42073">
        <ele>332</ele>
        <time>2016-04-07T15:32:42Z</time>
      </trkpt>
      <trkpt lat="46.19967" lon="2.42074">
        <ele>335</ele>
        <time>2016-04-07T15:32:45Z</time>
      </trkpt>
      <trkpt lat="46.19965" lon="2.42073">
        <ele>343</ele>
        <time>2016-04-07T15:32:50Z</time>
      </trkpt>
      <trkpt lat="46.19963" lon="2.42073">
        <ele>347</ele>
        <time>2016-04-07T15:32:53Z</time>
      </trkpt>
      <trkpt lat="46.19962" lon="2.42071">
        <ele>351</ele>
        <time>2016-04-07T15:32:56Z</time>
      </trkpt>
      <trkpt lat="46.19961" lon="2.4207">
        <ele>356</ele>
        <time>2016-04-07T15:33:00Z</time>
      </trkpt>
      <trkpt lat="46.19962" lon="2.42072">
        <ele>365</ele>
        <time>2016-04-07T15:33:09Z</time>
      </trkpt>
      <trkpt lat="46.19961" lon="2.42073">
        <ele>364</ele>
        <time>2016-04-07T15:33:17Z</time>
      </trkpt>
      <trkpt lat="46.19957" lon="2.42075">
        <ele>361</ele>
        <time>2016-04-07T15:33:20Z</time>
      </trkpt>
      <trkpt lat="46.19954" lon="2.42079">
        <ele>358</ele>
        <time>2016-04-07T15:33:23Z</time>
      </trkpt>
      <trkpt lat="46.19952" lon="2.42083">
        <ele>355</ele>
        <time>2016-04-07T15:33:26Z</time>
      </trkpt>
      <trkpt lat="46.19949" lon="2.42085">
        <ele>352</ele>
        <time>2016-04-07T15:33:29Z</time>
      </trkpt>
      <trkpt lat="46.19946" lon="2.42087">
        <ele>349</ele>
        <time>2016-04-07T15:33:32Z</time>
      </trkpt>
      <trkpt lat="46.19942" lon="2.4209">
        <ele>346</ele>
        <time>2016-04-07T15:33:35Z</time>
      </trkpt>
      <trkpt lat="46.19939" lon="2.42094">
        <ele>344</ele>
        <time>2016-04-07T15:33:39Z</time>
      </trkpt>
      <trkpt lat="46.19938" lon="2.42098">
        <ele>341</ele>
        <time>2016-04-07T15:33:43Z</time>
      </trkpt>
      <trkpt lat="46.19935" lon="2.42105">
        <ele>336</ele>
        <time>2016-04-07T15:33:47Z</time>
      </trkpt>
      <trkpt lat="46.19933" lon="2.42107">
        <ele>335</ele>
        <time>2016-04-07T15:33:50Z</time>
      </trkpt>
      <trkpt lat="46.19928" lon="2.42107">
        <ele>334</ele>
        <time>2016-04-07T15:33:53Z</time>
      </trkpt>
      <trkpt lat="46.19923" lon="2.42107">
        <ele>334</ele>
        <time>2016-04-07T15:33:56Z</time>
      </trkpt>
      <trkpt lat="46.19919" lon="2.42111">
        <ele>334</ele>
        <time>2016-04-07T15:34:00Z</time>
      </trkpt>
      <trkpt lat="46.19915" lon="2.42113">
        <ele>334</ele>
        <time>2016-04-07T15:34:03Z</time>
      </trkpt>
      <trkpt lat="46.1991" lon="2.42115">
        <ele>334</ele>
        <time>2016-04-07T15:34:06Z</time>
      </trkpt>
      <trkpt lat="46.19906" lon="2.42118">
        <ele>333</ele>
        <time>2016-04-07T15:34:09Z</time>
      </trkpt>
      <trkpt lat="46.19903" lon="2.4212">
        <ele>333</ele>
        <time>2016-04-07T15:34:12Z</time>
      </trkpt>
      <trkpt lat="46.19899" lon="2.42121">
        <ele>333</ele>
        <time>2016-04-07T15:34:15Z</time>
      </trkpt>
      <trkpt lat="46.19895" lon="2.42123">
        <ele>332</ele>
        <time>2016-04-07T15:34:18Z</time>
      </trkpt>
      <trkpt lat="46.1989" lon="2.42123">
        <ele>331</ele>
        <time>2016-04-07T15:34:21Z</time>
      </trkpt>
      <trkpt lat="46.19886" lon="2.4212">
        <ele>331</ele>
        <time>2016-04-07T15:34:24Z</time>
      </trkpt>
      <trkpt lat="46.19881" lon="2.42116">
        <ele>331</ele>
        <time>2016-04-07T15:34:28Z</time>
      </trkpt>
      <trkpt lat="46.19877" lon="2.42118">
        <ele>331</ele>
        <time>2016-04-07T15:34:31Z</time>
      </trkpt>
      <trkpt lat="46.19871" lon="2.42119">
        <ele>331</ele>
        <time>2016-04-07T15:34:34Z</time>
      </trkpt>
      <trkpt lat="46.19867" lon="2.42117">
        <ele>331</ele>
        <time>2016-04-07T15:34:37Z</time>
      </trkpt>
      <trkpt lat="46.19862" lon="2.42114">
        <ele>331</ele>
        <time>2016-04-07T15:34:40Z</time>
      </trkpt>
      <trkpt lat="46.19857" lon="2.4211">
        <ele>331</ele>
        <time>2016-04-07T15:34:44Z</time>
      </trkpt>
      <trkpt lat="46.19854" lon="2.42109">
        <ele>331</ele>
        <time>2016-04-07T15:34:47Z</time>
      </trkpt>
      <trkpt lat="46.19851" lon="2.42106">
        <ele>331</ele>
        <time>2016-04-07T15:34:51Z</time>
      </trkpt>
      <trkpt lat="46.1985" lon="2.42103">
        <ele>334</ele>
        <time>2016-04-07T15:34:54Z</time>
      </trkpt>
      <trkpt lat="46.19847" lon="2.42097">
        <ele>335</ele>
        <time>2016-04-07T15:34:57Z</time>
      </trkpt>
      <trkpt lat="46.19843" lon="2.42092">
        <ele>336</ele>
        <time>2016-04-07T15:35:00Z</time>
      </trkpt>
      <trkpt lat="46.19838" lon="2.42087">
        <ele>339</ele>
        <time>2016-04-07T15:35:03Z</time>
      </trkpt>
      <trkpt lat="46.19835" lon="2.42081">
        <ele>342</ele>
        <time>2016-04-07T15:35:06Z</time>
      </trkpt>
      <trkpt lat="46.19833" lon="2.42075">
        <ele>346</ele>
        <time>2016-04-07T15:35:10Z</time>
      </trkpt>
      <trkpt lat="46.1983" lon="2.4207">
        <ele>347</ele>
        <time>2016-04-07T15:35:14Z</time>
      </trkpt>
      <trkpt lat="46.19825" lon="2.42066">
        <ele>347</ele>
        <time>2016-04-07T15:35:17Z</time>
      </trkpt>
      <trkpt lat="46.19825" lon="2.42062">
        <ele>347</ele>
        <time>2016-04-07T15:35:20Z</time>
      </trkpt>
      <trkpt lat="46.19822" lon="2.42053">
        <ele>348</ele>
        <time>2016-04-07T15:35:23Z</time>
      </trkpt>
      <trkpt lat="46.19821" lon="2.42051">
        <ele>352</ele>
        <time>2016-04-07T15:35:27Z</time>
      </trkpt>
      <trkpt lat="46.19818" lon="2.42046">
        <ele>355</ele>
        <time>2016-04-07T15:35:30Z</time>
      </trkpt>
      <trkpt lat="46.19813" lon="2.42042">
        <ele>355</ele>
        <time>2016-04-07T15:35:33Z</time>
      </trkpt>
      <trkpt lat="46.1981" lon="2.42039">
        <ele>355</ele>
        <time>2016-04-07T15:35:36Z</time>
      </trkpt>
      <trkpt lat="46.19806" lon="2.42034">
        <ele>355</ele>
        <time>2016-04-07T15:35:40Z</time>
      </trkpt>
      <trkpt lat="46.19801" lon="2.42031">
        <ele>353</ele>
        <time>2016-04-07T15:35:43Z</time>
      </trkpt>
      <trkpt lat="46.19797" lon="2.42031">
        <ele>351</ele>
        <time>2016-04-07T15:35:46Z</time>
      </trkpt>
      <trkpt lat="46.19793" lon="2.42029">
        <ele>348</ele>
        <time>2016-04-07T15:35:49Z</time>
      </trkpt>
      <trkpt lat="46.19788" lon="2.42028">
        <ele>345</ele>
        <time>2016-04-07T15:35:52Z</time>
      </trkpt>
      <trkpt lat="46.19784" lon="2.42026">
        <ele>345</ele>
        <time>2016-04-07T15:35:55Z</time>
      </trkpt>
      <trkpt lat="46.1978" lon="2.42026">
        <ele>345</ele>
        <time>2016-04-07T15:35:58Z</time>
      </trkpt>
      <trkpt lat="46.19775" lon="2.42024">
        <ele>345</ele>
        <time>2016-04-07T15:36:01Z</time>
      </trkpt>
      <trkpt lat="46.19772" lon="2.42024">
        <ele>344</ele>
        <time>2016-04-07T15:36:04Z</time>
      </trkpt>
      <trkpt lat="46.19768" lon="2.42024">
        <ele>341</ele>
        <time>2016-04-07T15:36:07Z</time>
      </trkpt>
      <trkpt lat="46.19764" lon="2.42023">
        <ele>339</ele>
        <time>2016-04-07T15:36:10Z</time>
      </trkpt>
      <trkpt lat="46.19759" lon="2.42021">
        <ele>338</ele>
        <time>2016-04-07T15:36:13Z</time>
      </trkpt>
      <trkpt lat="46.19756" lon="2.42021">
        <ele>338</ele>
        <time>2016-04-07T15:36:16Z</time>
      </trkpt>
      <trkpt lat="46.19752" lon="2.42024">
        <ele>336</ele>
        <time>2016-04-07T15:36:19Z</time>
      </trkpt>
      <trkpt lat="46.19748" lon="2.42027">
        <ele>333</ele>
        <time>2016-04-07T15:36:22Z</time>
      </trkpt>
      <trkpt lat="46.19744" lon="2.42028">
        <ele>331</ele>
        <time>2016-04-07T15:36:25Z</time>
      </trkpt>
      <trkpt lat="46.1974" lon="2.42029">
        <ele>330</ele>
        <time>2016-04-07T15:36:28Z</time>
      </trkpt>
      <trkpt lat="46.19736" lon="2.42031">
        <ele>328</ele>
        <time>2016-04-07T15:36:31Z</time>
      </trkpt>
      <trkpt lat="46.19732" lon="2.42032">
        <ele>327</ele>
        <time>2016-04-07T15:36:34Z</time>
      </trkpt>
      <trkpt lat="46.19728" lon="2.42033">
        <ele>326</ele>
        <time>2016-04-07T15:36:37Z</time>
      </trkpt>
      <trkpt lat="46.19724" lon="2.42035">
        <ele>325</ele>
        <time>2016-04-07T15:36:40Z</time>
      </trkpt>
      <trkpt lat="46.19719" lon="2.42037">
        <ele>325</ele>
        <time>2016-04-07T15:36:44Z</time>
      </trkpt>
      <trkpt lat="46.19715" lon="2.42038">
        <ele>325</ele>
        <time>2016-04-07T15:36:47Z</time>
      </trkpt>
      <trkpt lat="46.19712" lon="2.42038">
        <ele>325</ele>
        <time>2016-04-07T15:36:50Z</time>
      </trkpt>
      <trkpt lat="46.19711" lon="2.42041">
        <ele>326</ele>
        <time>2016-04-07T15:36:53Z</time>
      </trkpt>
      <trkpt lat="46.19711" lon="2.42047">
        <ele>329</ele>
        <time>2016-04-07T15:36:56Z</time>
      </trkpt>
      <trkpt lat="46.19705" lon="2.42052">
        <ele>332</ele>
        <time>2016-04-07T15:36:59Z</time>
      </trkpt>
      <trkpt lat="46.19699" lon="2.42058">
        <ele>336</ele>
        <time>2016-04-07T15:37:02Z</time>
      </trkpt>
      <trkpt lat="46.1969" lon="2.42059">
        <ele>342</ele>
        <time>2016-04-07T15:37:05Z</time>
      </trkpt>
      <trkpt lat="46.19684" lon="2.4206">
        <ele>349</ele>
        <time>2016-04-07T15:37:08Z</time>
      </trkpt>
      <trkpt lat="46.19683" lon="2.42063">
        <ele>361</ele>
        <time>2016-04-07T15:37:14Z</time>
      </trkpt>
      <trkpt lat="46.19683" lon="2.42067">
        <ele>365</ele>
        <time>2016-04-07T15:37:17Z</time>
      </trkpt>
      <trkpt lat="46.19678" lon="2.42069">
        <ele>368</ele>
        <time>2016-04-07T15:37:20Z</time>
      </trkpt>
      <trkpt lat="46.19675" lon="2.42071">
        <ele>370</ele>
        <time>2016-04-07T15:37:24Z</time>
      </trkpt>
      <trkpt lat="46.19672" lon="2.42072">
        <ele>369</ele>
        <time>2016-04-07T15:37:28Z</time>
      </trkpt>
      <trkpt lat="46.19668" lon="2.42073">
        <ele>365</ele>
        <time>2016-04-07T15:37:32Z</time>
      </trkpt>
      <trkpt lat="46.19664" lon="2.42076">
        <ele>360</ele>
        <time>2016-04-07T15:37:35Z</time>
      </trkpt>
      <trkpt lat="46.19661" lon="2.42078">
        <ele>355</ele>
        <time>2016-04-07T15:37:39Z</time>
      </trkpt>
      <trkpt lat="46.19657" lon="2.42081">
        <ele>350</ele>
        <time>2016-04-07T15:37:43Z</time>
      </trkpt>
      <trkpt lat="46.19654" lon="2.42086">
        <ele>346</ele>
        <time>2016-04-07T15:37:47Z</time>
      </trkpt>
      <trkpt lat="46.19651" lon="2.4209">
        <ele>342</ele>
        <time>2016-04-07T15:37:51Z</time>
      </trkpt>
      <trkpt lat="46.19648" lon="2.42093">
        <ele>337</ele>
        <time>2016-04-07T15:38:06Z</time>
      </trkpt>
      <trkpt lat="46.19645" lon="2.42097">
        <ele>336</ele>
        <time>2016-04-07T15:38:10Z</time>
      </trkpt>
      <trkpt lat="46.19642" lon="2.42102">
        <ele>336</ele>
        <time>2016-04-07T15:38:14Z</time>
      </trkpt>
      <trkpt lat="46.1964" lon="2.42107">
        <ele>335</ele>
        <time>2016-04-07T15:38:18Z</time>
      </trkpt>
      <trkpt lat="46.19638" lon="2.4211">
        <ele>335</ele>
        <time>2016-04-07T15:38:23Z</time>
      </trkpt>
      <trkpt lat="46.19637" lon="2.42112">
        <ele>334</ele>
        <time>2016-04-07T15:38:34Z</time>
      </trkpt>
      <trkpt lat="46.19635" lon="2.4211">
        <ele>333</ele>
        <time>2016-04-07T15:38:39Z</time>
      </trkpt>
      <trkpt lat="46.19634" lon="2.42108">
        <ele>333</ele>
        <time>2016-04-07T15:38:42Z</time>
      </trkpt>
      <trkpt lat="46.19634" lon="2.4211">
        <ele>333</ele>
        <time>2016-04-07T15:38:52Z</time>
      </trkpt>
      <trkpt lat="46.19634" lon="2.42112">
        <ele>333</ele>
        <time>2016-04-07T15:39:00Z</time>
      </trkpt>
      <trkpt lat="46.19634" lon="2.42116">
        <ele>333</ele>
        <time>2016-04-07T15:39:03Z</time>
      </trkpt>
      <trkpt lat="46.19633" lon="2.42121">
        <ele>333</ele>
        <time>2016-04-07T15:39:06Z</time>
      </trkpt>
      <trkpt lat="46.19632" lon="2.42126">
        <ele>333</ele>
        <time>2016-04-07T15:39:12Z</time>
      </trkpt>
      <trkpt lat="46.19631" lon="2.42129">
        <ele>333</ele>
        <time>2016-04-07T15:39:15Z</time>
      </trkpt>
      <trkpt lat="46.1963" lon="2.42133">
        <ele>333</ele>
        <time>2016-04-07T15:39:18Z</time>
      </trkpt>
      <trkpt lat="46.19628" lon="2.42138">
        <ele>333</ele>
        <time>2016-04-07T15:39:21Z</time>
      </trkpt>
      <trkpt lat="46.19626" lon="2.42143">
        <ele>333</ele>
        <time>2016-04-07T15:39:24Z</time>
      </trkpt>
      <trkpt lat="46.19624" lon="2.4215">
        <ele>333</ele>
        <time>2016-04-07T15:39:27Z</time>
      </trkpt>
      <trkpt lat="46.19622" lon="2.42157">
        <ele>333</ele>
        <time>2016-04-07T15:39:30Z</time>
      </trkpt>
      <trkpt lat="46.19622" lon="2.42163">
        <ele>333</ele>
        <time>2016-04-07T15:39:33Z</time>
      </trkpt>
      <trkpt lat="46.19619" lon="2.42167">
        <ele>333</ele>
        <time>2016-04-07T15:39:36Z</time>
      </trkpt>
      <trkpt lat="46.19616" lon="2.42174">
        <ele>335</ele>
        <time>2016-04-07T15:39:39Z</time>
      </trkpt>
      <trkpt lat="46.1961" lon="2.42179">
        <ele>338</ele>
        <time>2016-04-07T15:39:42Z</time>
      </trkpt>
      <trkpt lat="46.19604" lon="2.42183">
        <ele>342</ele>
        <time>2016-04-07T15:39:45Z</time>
      </trkpt>
      <trkpt lat="46.19603" lon="2.42185">
        <ele>345</ele>
        <time>2016-04-07T15:39:48Z</time>
      </trkpt>
      <trkpt lat="46.19601" lon="2.42189">
        <ele>346</ele>
        <time>2016-04-07T15:39:52Z</time>
      </trkpt>
      <trkpt lat="46.19598" lon="2.42194">
        <ele>344</ele>
        <time>2016-04-07T15:39:56Z</time>
      </trkpt>
      <trkpt lat="46.19597" lon="2.42197">
        <ele>340</ele>
        <time>2016-04-07T15:40:00Z</time>
      </trkpt>
      <trkpt lat="46.19594" lon="2.42201">
        <ele>338</ele>
        <time>2016-04-07T15:40:03Z</time>
      </trkpt>
      <trkpt lat="46.19591" lon="2.42206">
        <ele>337</ele>
        <time>2016-04-07T15:40:06Z</time>
      </trkpt>
      <trkpt lat="46.19589" lon="2.4221">
        <ele>336</ele>
        <time>2016-04-07T15:40:09Z</time>
      </trkpt>
      <trkpt lat="46.19586" lon="2.42215">
        <ele>335</ele>
        <time>2016-04-07T15:40:12Z</time>
      </trkpt>
      <trkpt lat="46.19582" lon="2.42219">
        <ele>334</ele>
        <time>2016-04-07T15:40:15Z</time>
      </trkpt>
      <trkpt lat="46.19579" lon="2.42225">
        <ele>334</ele>
        <time>2016-04-07T15:40:18Z</time>
      </trkpt>
      <trkpt lat="46.19576" lon="2.42229">
        <ele>334</ele>
        <time>2016-04-07T15:40:21Z</time>
      </trkpt>
      <trkpt lat="46.19574" lon="2.42234">
        <ele>334</ele>
        <time>2016-04-07T15:40:24Z</time>
      </trkpt>
      <trkpt lat="46.19572" lon="2.42238">
        <ele>333</ele>
        <time>2016-04-07T15:40:27Z</time>
      </trkpt>
      <trkpt lat="46.19569" lon="2.42243">
        <ele>331</ele>
        <time>2016-04-07T15:40:31Z</time>
      </trkpt>
      <trkpt lat="46.19566" lon="2.42248">
        <ele>331</ele>
        <time>2016-04-07T15:40:34Z</time>
      </trkpt>
      <trkpt lat="46.19561" lon="2.42253">
        <ele>332</ele>
        <time>2016-04-07T15:40:38Z</time>
      </trkpt>
      <trkpt lat="46.19559" lon="2.42257">
        <ele>332</ele>
        <time>2016-04-07T15:40:42Z</time>
      </trkpt>
      <trkpt lat="46.19556" lon="2.42262">
        <ele>332</ele>
        <time>2016-04-07T15:40:46Z</time>
      </trkpt>
      <trkpt lat="46.19553" lon="2.42266">
        <ele>332</ele>
        <time>2016-04-07T15:40:49Z</time>
      </trkpt>
      <trkpt lat="46.19549" lon="2.42269">
        <ele>332</ele>
        <time>2016-04-07T15:40:52Z</time>
      </trkpt>
      <trkpt lat="46.19545" lon="2.42273">
        <ele>332</ele>
        <time>2016-04-07T15:40:56Z</time>
      </trkpt>
      <trkpt lat="46.19543" lon="2.42277">
        <ele>331</ele>
        <time>2016-04-07T15:41:00Z</time>
      </trkpt>
      <trkpt lat="46.19539" lon="2.42282">
        <ele>329</ele>
        <time>2016-04-07T15:41:04Z</time>
      </trkpt>
      <trkpt lat="46.19536" lon="2.42285">
        <ele>328</ele>
        <time>2016-04-07T15:41:07Z</time>
      </trkpt>
      <trkpt lat="46.19532" lon="2.42288">
        <ele>328</ele>
        <time>2016-04-07T15:41:10Z</time>
      </trkpt>
      <trkpt lat="46.19528" lon="2.42291">
        <ele>328</ele>
        <time>2016-04-07T15:41:13Z</time>
      </trkpt>
      <trkpt lat="46.19524" lon="2.42293">
        <ele>328</ele>
        <time>2016-04-07T15:41:16Z</time>
      </trkpt>
      <trkpt lat="46.19521" lon="2.42297">
        <ele>328</ele>
        <time>2016-04-07T15:41:19Z</time>
      </trkpt>
      <trkpt lat="46.19517" lon="2.42299">
        <ele>328</ele>
        <time>2016-04-07T15:41:22Z</time>
      </trkpt>
      <trkpt lat="46.19513" lon="2.42302">
        <ele>328</ele>
        <time>2016-04-07T15:41:25Z</time>
      </trkpt>
      <trkpt lat="46.19509" lon="2.42305">
        <ele>328</ele>
        <time>2016-04-07T15:41:29Z</time>
      </trkpt>
      <trkpt lat="46.19505" lon="2.42307">
        <ele>328</ele>
        <time>2016-04-07T15:41:32Z</time>
      </trkpt>
      <trkpt lat="46.19501" lon="2.42309">
        <ele>328</ele>
        <time>2016-04-07T15:41:35Z</time>
      </trkpt>
      <trkpt lat="46.19497" lon="2.4231">
        <ele>328</ele>
        <time>2016-04-07T15:41:38Z</time>
      </trkpt>
      <trkpt lat="46.19493" lon="2.42311">
        <ele>327</ele>
        <time>2016-04-07T15:41:41Z</time>
      </trkpt>
      <trkpt lat="46.1949" lon="2.42311">
        <ele>326</ele>
        <time>2016-04-07T15:41:44Z</time>
      </trkpt>
      <trkpt lat="46.19486" lon="2.4231">
        <ele>325</ele>
        <time>2016-04-07T15:41:47Z</time>
      </trkpt>
      <trkpt lat="46.19482" lon="2.42309">
        <ele>324</ele>
        <time>2016-04-07T15:41:50Z</time>
      </trkpt>
      <trkpt lat="46.19478" lon="2.42306">
        <ele>323</ele>
        <time>2016-04-07T15:41:53Z</time>
      </trkpt>
      <trkpt lat="46.19474" lon="2.42304">
        <ele>323</ele>
        <time>2016-04-07T15:41:56Z</time>
      </trkpt>
      <trkpt lat="46.19471" lon="2.42302">
        <ele>322</ele>
        <time>2016-04-07T15:41:59Z</time>
      </trkpt>
      <trkpt lat="46.19466" lon="2.42299">
        <ele>322</ele>
        <time>2016-04-07T15:42:02Z</time>
      </trkpt>
      <trkpt lat="46.19462" lon="2.42296">
        <ele>322</ele>
        <time>2016-04-07T15:42:06Z</time>
      </trkpt>
      <trkpt lat="46.19458" lon="2.42293">
        <ele>322</ele>
        <time>2016-04-07T15:42:10Z</time>
      </trkpt>
      <trkpt lat="46.19455" lon="2.4229">
        <ele>321</ele>
        <time>2016-04-07T15:42:13Z</time>
      </trkpt>
      <trkpt lat="46.1945" lon="2.42286">
        <ele>320</ele>
        <time>2016-04-07T15:42:17Z</time>
      </trkpt>
      <trkpt lat="46.19447" lon="2.42284">
        <ele>320</ele>
        <time>2016-04-07T15:42:20Z</time>
      </trkpt>
      <trkpt lat="46.19444" lon="2.42282">
        <ele>319</ele>
        <time>2016-04-07T15:42:23Z</time>
      </trkpt>
      <trkpt lat="46.1944" lon="2.4228">
        <ele>319</ele>
        <time>2016-04-07T15:42:26Z</time>
      </trkpt>
      <trkpt lat="46.19436" lon="2.42278">
        <ele>319</ele>
        <time>2016-04-07T15:42:29Z</time>
      </trkpt>
      <trkpt lat="46.19432" lon="2.42276">
        <ele>319</ele>
        <time>2016-04-07T15:42:32Z</time>
      </trkpt>
      <trkpt lat="46.19428" lon="2.42274">
        <ele>319</ele>
        <time>2016-04-07T15:42:35Z</time>
      </trkpt>
      <trkpt lat="46.19423" lon="2.42272">
        <ele>319</ele>
        <time>2016-04-07T15:42:38Z</time>
      </trkpt>
      <trkpt lat="46.19419" lon="2.42272">
        <ele>319</ele>
        <time>2016-04-07T15:42:41Z</time>
      </trkpt>
      <trkpt lat="46.19415" lon="2.4227">
        <ele>319</ele>
        <time>2016-04-07T15:42:44Z</time>
      </trkpt>
      <trkpt lat="46.1941" lon="2.42268">
        <ele>320</ele>
        <time>2016-04-07T15:42:47Z</time>
      </trkpt>
      <trkpt lat="46.19406" lon="2.42267">
        <ele>322</ele>
        <time>2016-04-07T15:42:50Z</time>
      </trkpt>
      <trkpt lat="46.19401" lon="2.42264">
        <ele>323</ele>
        <time>2016-04-07T15:42:54Z</time>
      </trkpt>
      <trkpt lat="46.19396" lon="2.42263">
        <ele>323</ele>
        <time>2016-04-07T15:42:57Z</time>
      </trkpt>
      <trkpt lat="46.19392" lon="2.42262">
        <ele>324</ele>
        <time>2016-04-07T15:43:01Z</time>
      </trkpt>
      <trkpt lat="46.19388" lon="2.42262">
        <ele>324</ele>
        <time>2016-04-07T15:43:04Z</time>
      </trkpt>
      <trkpt lat="46.19384" lon="2.42261">
        <ele>324</ele>
        <time>2016-04-07T15:43:07Z</time>
      </trkpt>
      <trkpt lat="46.19379" lon="2.4226">
        <ele>324</ele>
        <time>2016-04-07T15:43:11Z</time>
      </trkpt>
      <trkpt lat="46.19376" lon="2.42259">
        <ele>324</ele>
        <time>2016-04-07T15:43:14Z</time>
      </trkpt>
      <trkpt lat="46.19371" lon="2.42258">
        <ele>324</ele>
        <time>2016-04-07T15:43:17Z</time>
      </trkpt>
      <trkpt lat="46.19367" lon="2.42258">
        <ele>324</ele>
        <time>2016-04-07T15:43:21Z</time>
      </trkpt>
      <trkpt lat="46.19363" lon="2.42258">
        <ele>324</ele>
        <time>2016-04-07T15:43:24Z</time>
      </trkpt>
      <trkpt lat="46.19359" lon="2.42258">
        <ele>324</ele>
        <time>2016-04-07T15:43:27Z</time>
      </trkpt>
      <trkpt lat="46.19355" lon="2.42256">
        <ele>324</ele>
        <time>2016-04-07T15:43:31Z</time>
      </trkpt>
      <trkpt lat="46.19351" lon="2.42256">
        <ele>324</ele>
        <time>2016-04-07T15:43:34Z</time>
      </trkpt>
      <trkpt lat="46.19347" lon="2.42255">
        <ele>324</ele>
        <time>2016-04-07T15:43:37Z</time>
      </trkpt>
      <trkpt lat="46.19342" lon="2.42254">
        <ele>324</ele>
        <time>2016-04-07T15:43:41Z</time>
      </trkpt>
      <trkpt lat="46.19338" lon="2.42253">
        <ele>324</ele>
        <time>2016-04-07T15:43:44Z</time>
      </trkpt>
      <trkpt lat="46.19334" lon="2.42253">
        <ele>324</ele>
        <time>2016-04-07T15:43:47Z</time>
      </trkpt>
      <trkpt lat="46.1933" lon="2.42253">
        <ele>324</ele>
        <time>2016-04-07T15:43:50Z</time>
      </trkpt>
      <trkpt lat="46.19326" lon="2.42252">
        <ele>324</ele>
        <time>2016-04-07T15:43:53Z</time>
      </trkpt>
      <trkpt lat="46.19322" lon="2.42252">
        <ele>324</ele>
        <time>2016-04-07T15:43:56Z</time>
      </trkpt>
      <trkpt lat="46.19318" lon="2.42252">
        <ele>324</ele>
        <time>2016-04-07T15:43:59Z</time>
      </trkpt>
      <trkpt lat="46.19314" lon="2.42252">
        <ele>324</ele>
        <time>2016-04-07T15:44:02Z</time>
      </trkpt>
      <trkpt lat="46.1931" lon="2.42252">
        <ele>324</ele>
        <time>2016-04-07T15:44:05Z</time>
      </trkpt>
      <trkpt lat="46.19307" lon="2.42253">
        <ele>324</ele>
        <time>2016-04-07T15:44:08Z</time>
      </trkpt>
      <trkpt lat="46.19302" lon="2.42254">
        <ele>324</ele>
        <time>2016-04-07T15:44:11Z</time>
      </trkpt>
      <trkpt lat="46.19299" lon="2.42255">
        <ele>324</ele>
        <time>2016-04-07T15:44:14Z</time>
      </trkpt>
      <trkpt lat="46.19295" lon="2.42256">
        <ele>324</ele>
        <time>2016-04-07T15:44:17Z</time>
      </trkpt>
      <trkpt lat="46.19291" lon="2.42257">
        <ele>323</ele>
        <time>2016-04-07T15:44:20Z</time>
      </trkpt>
      <trkpt lat="46.19288" lon="2.42261">
        <ele>323</ele>
        <time>2016-04-07T15:44:23Z</time>
      </trkpt>
      <trkpt lat="46.19285" lon="2.42265">
        <ele>323</ele>
        <time>2016-04-07T15:44:26Z</time>
      </trkpt>
      <trkpt lat="46.19281" lon="2.42265">
        <ele>323</ele>
        <time>2016-04-07T15:44:29Z</time>
      </trkpt>
      <trkpt lat="46.19277" lon="2.42265">
        <ele>323</ele>
        <time>2016-04-07T15:44:32Z</time>
      </trkpt>
      <trkpt lat="46.19273" lon="2.42265">
        <ele>322</ele>
        <time>2016-04-07T15:44:35Z</time>
      </trkpt>
      <trkpt lat="46.19269" lon="2.42262">
        <ele>322</ele>
        <time>2016-04-07T15:44:38Z</time>
      </trkpt>
      <trkpt lat="46.19265" lon="2.42256">
        <ele>322</ele>
        <time>2016-04-07T15:44:41Z</time>
      </trkpt>
      <trkpt lat="46.19261" lon="2.42255">
        <ele>322</ele>
        <time>2016-04-07T15:44:44Z</time>
      </trkpt>
      <trkpt lat="46.19257" lon="2.42255">
        <ele>322</ele>
        <time>2016-04-07T15:44:47Z</time>
      </trkpt>
      <trkpt lat="46.19252" lon="2.42254">
        <ele>322</ele>
        <time>2016-04-07T15:44:50Z</time>
      </trkpt>
      <trkpt lat="46.19248" lon="2.42253">
        <ele>322</ele>
        <time>2016-04-07T15:44:53Z</time>
      </trkpt>
      <trkpt lat="46.19244" lon="2.42253">
        <ele>322</ele>
        <time>2016-04-07T15:44:56Z</time>
      </trkpt>
      <trkpt lat="46.1924" lon="2.42253">
        <ele>322</ele>
        <time>2016-04-07T15:44:59Z</time>
      </trkpt>
      <trkpt lat="46.19236" lon="2.42252">
        <ele>322</ele>
        <time>2016-04-07T15:45:02Z</time>
      </trkpt>
      <trkpt lat="46.19233" lon="2.42252">
        <ele>322</ele>
        <time>2016-04-07T15:45:05Z</time>
      </trkpt>
      <trkpt lat="46.19229" lon="2.42252">
        <ele>322</ele>
        <time>2016-04-07T15:45:08Z</time>
      </trkpt>
      <trkpt lat="46.19225" lon="2.42252">
        <ele>322</ele>
        <time>2016-04-07T15:45:11Z</time>
      </trkpt>
      <trkpt lat="46.19221" lon="2.42251">
        <ele>322</ele>
        <time>2016-04-07T15:45:14Z</time>
      </trkpt>
      <trkpt lat="46.19217" lon="2.42251">
        <ele>322</ele>
        <time>2016-04-07T15:45:17Z</time>
      </trkpt>
      <trkpt lat="46.19213" lon="2.42251">
        <ele>322</ele>
        <time>2016-04-07T15:45:20Z</time>
      </trkpt>
      <trkpt lat="46.19209" lon="2.4225">
        <ele>322</ele>
        <time>2016-04-07T15:45:23Z</time>
      </trkpt>
      <trkpt lat="46.19205" lon="2.4225">
        <ele>321</ele>
        <time>2016-04-07T15:45:26Z</time>
      </trkpt>
      <trkpt lat="46.192" lon="2.4225">
        <ele>320</ele>
        <time>2016-04-07T15:45:29Z</time>
      </trkpt>
      <trkpt lat="46.19196" lon="2.4225">
        <ele>320</ele>
        <time>2016-04-07T15:45:32Z</time>
      </trkpt>
      <trkpt lat="46.19193" lon="2.4225">
        <ele>319</ele>
        <time>2016-04-07T15:45:35Z</time>
      </trkpt>
      <trkpt lat="46.19189" lon="2.4225">
        <ele>318</ele>
        <time>2016-04-07T15:45:38Z</time>
      </trkpt>
      <trkpt lat="46.19185" lon="2.4225">
        <ele>318</ele>
        <time>2016-04-07T15:45:41Z</time>
      </trkpt>
      <trkpt lat="46.1918" lon="2.42251">
        <ele>317</ele>
        <time>2016-04-07T15:45:45Z</time>
      </trkpt>
      <trkpt lat="46.19175" lon="2.4225">
        <ele>316</ele>
        <time>2016-04-07T15:45:48Z</time>
      </trkpt>
      <trkpt lat="46.1917" lon="2.4225">
        <ele>316</ele>
        <time>2016-04-07T15:45:51Z</time>
      </trkpt>
      <trkpt lat="46.19165" lon="2.4225">
        <ele>316</ele>
        <time>2016-04-07T15:45:54Z</time>
      </trkpt>
      <trkpt lat="46.19161" lon="2.4225">
        <ele>316</ele>
        <time>2016-04-07T15:45:57Z</time>
      </trkpt>
      <trkpt lat="46.19156" lon="2.4225">
        <ele>316</ele>
        <time>2016-04-07T15:46:00Z</time>
      </trkpt>
      <trkpt lat="46.19151" lon="2.4225">
        <ele>316</ele>
        <time>2016-04-07T15:46:03Z</time>
      </trkpt>
      <trkpt lat="46.19146" lon="2.42251">
        <ele>316</ele>
        <time>2016-04-07T15:46:06Z</time>
      </trkpt>
      <trkpt lat="46.19141" lon="2.42251">
        <ele>317</ele>
        <time>2016-04-07T15:46:09Z</time>
      </trkpt>
      <trkpt lat="46.19137" lon="2.42251">
        <ele>318</ele>
        <time>2016-04-07T15:46:12Z</time>
      </trkpt>
      <trkpt lat="46.19133" lon="2.42252">
        <ele>319</ele>
        <time>2016-04-07T15:46:15Z</time>
      </trkpt>
      <trkpt lat="46.19128" lon="2.42253">
        <ele>319</ele>
        <time>2016-04-07T15:46:18Z</time>
      </trkpt>
      <trkpt lat="46.19124" lon="2.42253">
        <ele>319</ele>
        <time>2016-04-07T15:46:21Z</time>
      </trkpt>
      <trkpt lat="46.19121" lon="2.42253">
        <ele>319</ele>
        <time>2016-04-07T15:46:24Z</time>
      </trkpt>
      <trkpt lat="46.19117" lon="2.42254">
        <ele>319</ele>
        <time>2016-04-07T15:46:27Z</time>
      </trkpt>
      <trkpt lat="46.19113" lon="2.42254">
        <ele>319</ele>
        <time>2016-04-07T15:46:30Z</time>
      </trkpt>
      <trkpt lat="46.19109" lon="2.42255">
        <ele>319</ele>
        <time>2016-04-07T15:46:33Z</time>
      </trkpt>
      <trkpt lat="46.19104" lon="2.42255">
        <ele>320</ele>
        <time>2016-04-07T15:46:36Z</time>
      </trkpt>
      <trkpt lat="46.19101" lon="2.42256">
        <ele>321</ele>
        <time>2016-04-07T15:46:39Z</time>
      </trkpt>
      <trkpt lat="46.19097" lon="2.42257">
        <ele>321</ele>
        <time>2016-04-07T15:46:42Z</time>
      </trkpt>
      <trkpt lat="46.19092" lon="2.42259">
        <ele>323</ele>
        <time>2016-04-07T15:46:45Z</time>
      </trkpt>
      <trkpt lat="46.19086" lon="2.42261">
        <ele>326</ele>
        <time>2016-04-07T15:46:49Z</time>
      </trkpt>
      <trkpt lat="46.19083" lon="2.42261">
        <ele>326</ele>
        <time>2016-04-07T15:46:52Z</time>
      </trkpt>
      <trkpt lat="46.19078" lon="2.42263">
        <ele>326</ele>
        <time>2016-04-07T15:46:55Z</time>
      </trkpt>
      <trkpt lat="46.19075" lon="2.42263">
        <ele>326</ele>
        <time>2016-04-07T15:46:58Z</time>
      </trkpt>
      <trkpt lat="46.1907" lon="2.42263">
        <ele>326</ele>
        <time>2016-04-07T15:47:02Z</time>
      </trkpt>
      <trkpt lat="46.19066" lon="2.42263">
        <ele>326</ele>
        <time>2016-04-07T15:47:05Z</time>
      </trkpt>
      <trkpt lat="46.19062" lon="2.42264">
        <ele>326</ele>
        <time>2016-04-07T15:47:09Z</time>
      </trkpt>
      <trkpt lat="46.19057" lon="2.42266">
        <ele>326</ele>
        <time>2016-04-07T15:47:13Z</time>
      </trkpt>
      <trkpt lat="46.19052" lon="2.42267">
        <ele>326</ele>
        <time>2016-04-07T15:47:16Z</time>
      </trkpt>
      <trkpt lat="46.19048" lon="2.42268">
        <ele>326</ele>
        <time>2016-04-07T15:47:19Z</time>
      </trkpt>
      <trkpt lat="46.19044" lon="2.4227">
        <ele>326</ele>
        <time>2016-04-07T15:47:22Z</time>
      </trkpt>
      <trkpt lat="46.19039" lon="2.42272">
        <ele>327</ele>
        <time>2016-04-07T15:47:25Z</time>
      </trkpt>
      <trkpt lat="46.19035" lon="2.42279">
        <ele>331</ele>
        <time>2016-04-07T15:47:29Z</time>
      </trkpt>
      <trkpt lat="46.19033" lon="2.42284">
        <ele>332</ele>
        <time>2016-04-07T15:47:32Z</time>
      </trkpt>
      <trkpt lat="46.19032" lon="2.4229">
        <ele>332</ele>
        <time>2016-04-07T15:47:35Z</time>
      </trkpt>
      <trkpt lat="46.19031" lon="2.42295">
        <ele>332</ele>
        <time>2016-04-07T15:47:38Z</time>
      </trkpt>
      <trkpt lat="46.19029" lon="2.423">
        <ele>332</ele>
        <time>2016-04-07T15:47:41Z</time>
      </trkpt>
      <trkpt lat="46.19027" lon="2.42304">
        <ele>331</ele>
        <time>2016-04-07T15:47:44Z</time>
      </trkpt>
      <trkpt lat="46.19025" lon="2.4231">
        <ele>331</ele>
        <time>2016-04-07T15:47:47Z</time>
      </trkpt>
      <trkpt lat="46.19024" lon="2.42315">
        <ele>330</ele>
        <time>2016-04-07T15:47:50Z</time>
      </trkpt>
      <trkpt lat="46.19023" lon="2.4232">
        <ele>329</ele>
        <time>2016-04-07T15:47:53Z</time>
      </trkpt>
      <trkpt lat="46.19021" lon="2.42326">
        <ele>329</ele>
        <time>2016-04-07T15:47:56Z</time>
      </trkpt>
      <trkpt lat="46.19021" lon="2.42332">
        <ele>329</ele>
        <time>2016-04-07T15:47:59Z</time>
      </trkpt>
      <trkpt lat="46.19019" lon="2.42336">
        <ele>329</ele>
        <time>2016-04-07T15:48:02Z</time>
      </trkpt>
      <trkpt lat="46.19018" lon="2.42341">
        <ele>329</ele>
        <time>2016-04-07T15:48:05Z</time>
      </trkpt>
      <trkpt lat="46.19016" lon="2.42347">
        <ele>329</ele>
        <time>2016-04-07T15:48:08Z</time>
      </trkpt>
      <trkpt lat="46.19014" lon="2.42352">
        <ele>329</ele>
        <time>2016-04-07T15:48:11Z</time>
      </trkpt>
      <trkpt lat="46.19012" lon="2.42357">
        <ele>329</ele>
        <time>2016-04-07T15:48:14Z</time>
      </trkpt>
      <trkpt lat="46.19011" lon="2.42362">
        <ele>329</ele>
        <time>2016-04-07T15:48:17Z</time>
      </trkpt>
      <trkpt lat="46.19009" lon="2.42367">
        <ele>329</ele>
        <time>2016-04-07T15:48:20Z</time>
      </trkpt>
      <trkpt lat="46.19007" lon="2.42372">
        <ele>329</ele>
        <time>2016-04-07T15:48:23Z</time>
      </trkpt>
      <trkpt lat="46.19004" lon="2.42377">
        <ele>329</ele>
        <time>2016-04-07T15:48:26Z</time>
      </trkpt>
      <trkpt lat="46.19002" lon="2.42383">
        <ele>329</ele>
        <time>2016-04-07T15:48:30Z</time>
      </trkpt>
      <trkpt lat="46.18999" lon="2.42389">
        <ele>329</ele>
        <time>2016-04-07T15:48:34Z</time>
      </trkpt>
      <trkpt lat="46.18998" lon="2.42393">
        <ele>329</ele>
        <time>2016-04-07T15:48:37Z</time>
      </trkpt>
      <trkpt lat="46.18996" lon="2.42398">
        <ele>329</ele>
        <time>2016-04-07T15:48:40Z</time>
      </trkpt>
      <trkpt lat="46.18992" lon="2.42404">
        <ele>330</ele>
        <time>2016-04-07T15:48:44Z</time>
      </trkpt>
      <trkpt lat="46.1899" lon="2.42409">
        <ele>330</ele>
        <time>2016-04-07T15:48:47Z</time>
      </trkpt>
      <trkpt lat="46.18988" lon="2.42413">
        <ele>330</ele>
        <time>2016-04-07T15:48:50Z</time>
      </trkpt>
      <trkpt lat="46.18986" lon="2.42418">
        <ele>330</ele>
        <time>2016-04-07T15:48:53Z</time>
      </trkpt>
      <trkpt lat="46.18985" lon="2.42422">
        <ele>330</ele>
        <time>2016-04-07T15:48:56Z</time>
      </trkpt>
      <trkpt lat="46.18983" lon="2.42428">
        <ele>330</ele>
        <time>2016-04-07T15:49:00Z</time>
      </trkpt>
      <trkpt lat="46.18981" lon="2.42432">
        <ele>330</ele>
        <time>2016-04-07T15:49:03Z</time>
      </trkpt>
      <trkpt lat="46.1898" lon="2.42437">
        <ele>330</ele>
        <time>2016-04-07T15:49:06Z</time>
      </trkpt>
      <trkpt lat="46.18979" lon="2.42441">
        <ele>330</ele>
        <time>2016-04-07T15:49:09Z</time>
      </trkpt>
      <trkpt lat="46.18979" lon="2.42443">
        <ele>330</ele>
        <time>2016-04-07T15:49:14Z</time>
      </trkpt>
      <trkpt lat="46.18982" lon="2.42446">
        <ele>330</ele>
        <time>2016-04-07T15:49:17Z</time>
      </trkpt>
      <trkpt lat="46.18983" lon="2.42448">
        <ele>330</ele>
        <time>2016-04-07T15:49:21Z</time>
      </trkpt>
      <trkpt lat="46.18983" lon="2.42451">
        <ele>330</ele>
        <time>2016-04-07T15:49:25Z</time>
      </trkpt>
      <trkpt lat="46.18982" lon="2.42454">
        <ele>331</ele>
        <time>2016-04-07T15:49:30Z</time>
      </trkpt>
      <trkpt lat="46.18979" lon="2.42459">
        <ele>331</ele>
        <time>2016-04-07T15:49:34Z</time>
      </trkpt>
      <trkpt lat="46.18977" lon="2.42464">
        <ele>331</ele>
        <time>2016-04-07T15:49:37Z</time>
      </trkpt>
      <trkpt lat="46.18974" lon="2.42469">
        <ele>330</ele>
        <time>2016-04-07T15:49:41Z</time>
      </trkpt>
      <trkpt lat="46.18973" lon="2.42473">
        <ele>330</ele>
        <time>2016-04-07T15:49:44Z</time>
      </trkpt>
      <trkpt lat="46.18971" lon="2.42479">
        <ele>329</ele>
        <time>2016-04-07T15:49:48Z</time>
      </trkpt>
      <trkpt lat="46.18967" lon="2.42484">
        <ele>328</ele>
        <time>2016-04-07T15:49:52Z</time>
      </trkpt>
      <trkpt lat="46.18964" lon="2.42488">
        <ele>328</ele>
        <time>2016-04-07T15:49:55Z</time>
      </trkpt>
      <trkpt lat="46.1896" lon="2.4249">
        <ele>328</ele>
        <time>2016-04-07T15:49:58Z</time>
      </trkpt>
      <trkpt lat="46.18956" lon="2.42491">
        <ele>328</ele>
        <time>2016-04-07T15:50:01Z</time>
      </trkpt>
      <trkpt lat="46.18951" lon="2.4249">
        <ele>328</ele>
        <time>2016-04-07T15:50:05Z</time>
      </trkpt>
      <trkpt lat="46.18947" lon="2.42488">
        <ele>328</ele>
        <time>2016-04-07T15:50:09Z</time>
      </trkpt>
      <trkpt lat="46.18943" lon="2.42488">
        <ele>328</ele>
        <time>2016-04-07T15:50:13Z</time>
      </trkpt>
      <trkpt lat="46.18941" lon="2.4249">
        <ele>327</ele>
        <time>2016-04-07T15:50:23Z</time>
      </trkpt>
      <trkpt lat="46.18942" lon="2.42492">
        <ele>327</ele>
        <time>2016-04-07T15:50:26Z</time>
      </trkpt>
      <trkpt lat="46.18943" lon="2.42496">
        <ele>327</ele>
        <time>2016-04-07T15:50:30Z</time>
      </trkpt>
      <trkpt lat="46.18946" lon="2.425">
        <ele>327</ele>
        <time>2016-04-07T15:50:33Z</time>
      </trkpt>
      <trkpt lat="46.1895" lon="2.42502">
        <ele>327</ele>
        <time>2016-04-07T15:50:36Z</time>
      </trkpt>
      <trkpt lat="46.18952" lon="2.42508">
        <ele>330</ele>
        <time>2016-04-07T15:50:40Z</time>
      </trkpt>
      <trkpt lat="46.18952" lon="2.42514">
        <ele>330</ele>
        <time>2016-04-07T15:50:43Z</time>
      </trkpt>
      <trkpt lat="46.18951" lon="2.42521">
        <ele>330</ele>
        <time>2016-04-07T15:50:46Z</time>
      </trkpt>
      <trkpt lat="46.1895" lon="2.42528">
        <ele>331</ele>
        <time>2016-04-07T15:50:49Z</time>
      </trkpt>
      <trkpt lat="46.18948" lon="2.42531">
        <ele>332</ele>
        <time>2016-04-07T15:50:52Z</time>
      </trkpt>
      <trkpt lat="46.18942" lon="2.42532">
        <ele>332</ele>
        <time>2016-04-07T15:50:55Z</time>
      </trkpt>
      <trkpt lat="46.18937" lon="2.4253">
        <ele>334</ele>
        <time>2016-04-07T15:50:58Z</time>
      </trkpt>
      <trkpt lat="46.18933" lon="2.42527">
        <ele>335</ele>
        <time>2016-04-07T15:51:01Z</time>
      </trkpt>
      <trkpt lat="46.18929" lon="2.42525">
        <ele>335</ele>
        <time>2016-04-07T15:51:04Z</time>
      </trkpt>
      <trkpt lat="46.18925" lon="2.42522">
        <ele>335</ele>
        <time>2016-04-07T15:51:07Z</time>
      </trkpt>
      <trkpt lat="46.18921" lon="2.42519">
        <ele>335</ele>
        <time>2016-04-07T15:51:11Z</time>
      </trkpt>
      <trkpt lat="46.18917" lon="2.42516">
        <ele>335</ele>
        <time>2016-04-07T15:51:15Z</time>
      </trkpt>
      <trkpt lat="46.18914" lon="2.42512">
        <ele>335</ele>
        <time>2016-04-07T15:51:19Z</time>
      </trkpt>
      <trkpt lat="46.18911" lon="2.42509">
        <ele>335</ele>
        <time>2016-04-07T15:51:22Z</time>
      </trkpt>
      <trkpt lat="46.18906" lon="2.4251">
        <ele>334</ele>
        <time>2016-04-07T15:51:26Z</time>
      </trkpt>
      <trkpt lat="46.18904" lon="2.4251">
        <ele>331</ele>
        <time>2016-04-07T15:51:33Z</time>
      </trkpt>
      <trkpt lat="46.18901" lon="2.42508">
        <ele>330</ele>
        <time>2016-04-07T15:51:37Z</time>
      </trkpt>
      <trkpt lat="46.18898" lon="2.42506">
        <ele>329</ele>
        <time>2016-04-07T15:51:41Z</time>
      </trkpt>
      <trkpt lat="46.18897" lon="2.42506">
        <ele>328</ele>
        <time>2016-04-07T15:51:47Z</time>
      </trkpt>
      <trkpt lat="46.18896" lon="2.42508">
        <ele>326</ele>
        <time>2016-04-07T15:51:53Z</time>
      </trkpt>
      <trkpt lat="46.18895" lon="2.42507">
        <ele>326</ele>
        <time>2016-04-07T15:52:07Z</time>
      </trkpt>
      <trkpt lat="46.18894" lon="2.42505">
        <ele>326</ele>
        <time>2016-04-07T15:52:30Z</time>
      </trkpt>
      <trkpt lat="46.18895" lon="2.42505">
        <ele>326</ele>
        <time>2016-04-07T15:52:43Z</time>
      </trkpt>
      <trkpt lat="46.18894" lon="2.42506">
        <ele>326</ele>
        <time>2016-04-07T15:52:55Z</time>
      </trkpt>
      <trkpt lat="46.18893" lon="2.42505">
        <ele>326</ele>
        <time>2016-04-07T15:53:00Z</time>
      </trkpt>
      <trkpt lat="46.18892" lon="2.42504">
        <ele>330</ele>
        <time>2016-04-07T15:53:06Z</time>
      </trkpt>
      <trkpt lat="46.18893" lon="2.42505">
        <ele>331</ele>
        <time>2016-04-07T15:53:10Z</time>
      </trkpt>
      <trkpt lat="46.18893" lon="2.42507">
        <ele>331</ele>
        <time>2016-04-07T15:53:14Z</time>
      </trkpt>
      <trkpt lat="46.18894" lon="2.42508">
        <ele>331</ele>
        <time>2016-04-07T15:53:28Z</time>
      </trkpt>
      <trkpt lat="46.18893" lon="2.42507">
        <ele>331</ele>
        <time>2016-04-07T15:53:38Z</time>
      </trkpt>
      <trkpt lat="46.18894" lon="2.42506">
        <ele>331</ele>
        <time>2016-04-07T15:53:43Z</time>
      </trkpt>
      <trkpt lat="46.18898" lon="2.42509">
        <ele>331</ele>
        <time>2016-04-07T15:53:47Z</time>
      </trkpt>
      <trkpt lat="46.18901" lon="2.42512">
        <ele>331</ele>
        <time>2016-04-07T15:53:50Z</time>
      </trkpt>
      <trkpt lat="46.18906" lon="2.42515">
        <ele>331</ele>
        <time>2016-04-07T15:53:53Z</time>
      </trkpt>
      <trkpt lat="46.18914" lon="2.4251">
        <ele>322</ele>
        <time>2016-04-07T15:54:41Z</time>
      </trkpt>
      <trkpt lat="46.1891" lon="2.42511">
        <ele>320</ele>
        <time>2016-04-07T15:54:44Z</time>
      </trkpt>
      <trkpt lat="46.18906" lon="2.4251">
        <ele>319</ele>
        <time>2016-04-07T15:54:48Z</time>
      </trkpt>
      <trkpt lat="46.18903" lon="2.42507">
        <ele>319</ele>
        <time>2016-04-07T15:54:52Z</time>
      </trkpt>
      <trkpt lat="46.18899" lon="2.42505">
        <ele>319</ele>
        <time>2016-04-07T15:54:56Z</time>
      </trkpt>
      <trkpt lat="46.18896" lon="2.42506">
        <ele>319</ele>
        <time>2016-04-07T15:55:01Z</time>
      </trkpt>
      <trkpt lat="46.18895" lon="2.42507">
        <ele>319</ele>
        <time>2016-04-07T15:55:09Z</time>
      </trkpt>
      <trkpt lat="46.18895" lon="2.42509">
        <ele>322</ele>
        <time>2016-04-07T15:55:29Z</time>
      </trkpt>
      <trkpt lat="46.18894" lon="2.42509">
        <ele>322</ele>
        <time>2016-04-07T15:55:32Z</time>
      </trkpt>
      <trkpt lat="46.18894" lon="2.42508">
        <ele>323</ele>
        <time>2016-04-07T15:55:36Z</time>
      </trkpt>
      <trkpt lat="46.18895" lon="2.42503">
        <ele>323</ele>
        <time>2016-04-07T15:55:40Z</time>
      </trkpt>
      <trkpt lat="46.18897" lon="2.42501">
        <ele>323</ele>
        <time>2016-04-07T15:55:45Z</time>
      </trkpt>
      <trkpt lat="46.18896" lon="2.42502">
        <ele>325</ele>
        <time>2016-04-07T15:55:48Z</time>
      </trkpt>
      <trkpt lat="46.18892" lon="2.425">
        <ele>325</ele>
        <time>2016-04-07T15:55:51Z</time>
      </trkpt>
      <trkpt lat="46.18883" lon="2.42493">
        <ele>326</ele>
        <time>2016-04-07T15:55:54Z</time>
      </trkpt>
      <trkpt lat="46.18872" lon="2.42487">
        <ele>327</ele>
        <time>2016-04-07T15:55:57Z</time>
      </trkpt>
      <trkpt lat="46.18864" lon="2.42479">
        <ele>329</ele>
        <time>2016-04-07T15:56:00Z</time>
      </trkpt>
      <trkpt lat="46.18858" lon="2.42474">
        <ele>329</ele>
        <time>2016-04-07T15:56:04Z</time>
      </trkpt>
      <trkpt lat="46.18858" lon="2.42472">
        <ele>329</ele>
        <time>2016-04-07T15:56:14Z</time>
      </trkpt>
      <trkpt lat="46.18856" lon="2.42472">
        <ele>329</ele>
        <time>2016-04-07T15:56:17Z</time>
      </trkpt>
      <trkpt lat="46.1885" lon="2.42479">
        <ele>329</ele>
        <time>2016-04-07T15:56:20Z</time>
      </trkpt>
      <trkpt lat="46.18845" lon="2.42498">
        <ele>329</ele>
        <time>2016-04-07T15:56:23Z</time>
      </trkpt>
      <trkpt lat="46.18842" lon="2.42526">
        <ele>329</ele>
        <time>2016-04-07T15:56:26Z</time>
      </trkpt>
      <trkpt lat="46.18837" lon="2.42563">
        <ele>329</ele>
        <time>2016-04-07T15:56:29Z</time>
      </trkpt>
      <trkpt lat="46.18833" lon="2.42604">
        <ele>329</ele>
        <time>2016-04-07T15:56:32Z</time>
      </trkpt>
      <trkpt lat="46.1883" lon="2.42647">
        <ele>329</ele>
        <time>2016-04-07T15:56:35Z</time>
      </trkpt>
      <trkpt lat="46.18827" lon="2.42689">
        <ele>328</ele>
        <time>2016-04-07T15:56:38Z</time>
      </trkpt>
      <trkpt lat="46.18827" lon="2.42689">
        <ele>328</ele>
        <time>2016-04-07T15:56:39Z</time>
      </trkpt>
    </trkseg>
  </trk>
</gpx>